<?xml version='1.0' encoding='UTF-8'?>
<gpx version="1.1" creator="https://www.komoot.de" xmlns="http://www.topografix.com/GPX/1/1" xmlns:xsi="http://www.w3.org/2001/XMLSchema-instance" xsi:schemaLocation="http://www.topografix.com/GPX/1/1 http://www.topografix.com/GPX/1/1/gpx.xsd">
  <metadata>
    <name>260504 Groningen Ride: Engelbert</name>
    <author>
      <link href="https://www.komoot.de">
        <text>komoot</text>
        <type>text/html</type>
      </link>
    </author>
  </metadata>
  <trk>
    <name>260504 Groningen Ride: Engelbert</name>
    <trkseg>
      <trkpt lat="53.240536" lon="6.536822">
        <ele>54.389273</ele>
        <time>2026-05-04T15:08:37.335Z</time>
      </trkpt>
      <trkpt lat="53.240540" lon="6.537148">
        <ele>54.389273</ele>
        <time>2026-05-04T15:08:39.327Z</time>
      </trkpt>
      <trkpt lat="53.240447" lon="6.537139">
        <ele>54.389273</ele>
        <time>2026-05-04T15:08:45.327Z</time>
      </trkpt>
      <trkpt lat="53.240353" lon="6.537114">
        <ele>54.389273</ele>
        <time>2026-05-04T15:08:54.332Z</time>
      </trkpt>
      <trkpt lat="53.240238" lon="6.537094">
        <ele>54.389273</ele>
        <time>2026-05-04T15:08:57.333Z</time>
      </trkpt>
      <trkpt lat="53.240124" lon="6.537028">
        <ele>54.389273</ele>
        <time>2026-05-04T15:09:00.332Z</time>
      </trkpt>
      <trkpt lat="53.240111" lon="6.536879">
        <ele>54.389273</ele>
        <time>2026-05-04T15:09:18.330Z</time>
      </trkpt>
      <trkpt lat="53.240091" lon="6.536725">
        <ele>54.389273</ele>
        <time>2026-05-04T15:09:26.335Z</time>
      </trkpt>
      <trkpt lat="53.240079" lon="6.536525">
        <ele>54.179834</ele>
        <time>2026-05-04T15:09:30.330Z</time>
      </trkpt>
      <trkpt lat="53.240048" lon="6.536371">
        <ele>53.369761</ele>
        <time>2026-05-04T15:09:33.330Z</time>
      </trkpt>
      <trkpt lat="53.240003" lon="6.536234">
        <ele>52.590599</ele>
        <time>2026-05-04T15:09:36.335Z</time>
      </trkpt>
      <trkpt lat="53.239889" lon="6.536239">
        <ele>51.640551</ele>
        <time>2026-05-04T15:09:39.328Z</time>
      </trkpt>
      <trkpt lat="53.239768" lon="6.536325">
        <ele>50.545112</ele>
        <time>2026-05-04T15:09:42.333Z</time>
      </trkpt>
      <trkpt lat="53.239658" lon="6.536401">
        <ele>49.553465</ele>
        <time>2026-05-04T15:09:45.330Z</time>
      </trkpt>
      <trkpt lat="53.239545" lon="6.536478">
        <ele>48.536804</ele>
        <time>2026-05-04T15:09:48.330Z</time>
      </trkpt>
      <trkpt lat="53.239424" lon="6.536562">
        <ele>47.445228</ele>
        <time>2026-05-04T15:09:51.328Z</time>
      </trkpt>
      <trkpt lat="53.239341" lon="6.536627">
        <ele>46.681587</ele>
        <time>2026-05-04T15:09:53.330Z</time>
      </trkpt>
      <trkpt lat="53.239254" lon="6.536690">
        <ele>45.891663</ele>
        <time>2026-05-04T15:09:55.327Z</time>
      </trkpt>
      <trkpt lat="53.239165" lon="6.536747">
        <ele>45.097616</ele>
        <time>2026-05-04T15:09:57.332Z</time>
      </trkpt>
      <trkpt lat="53.239080" lon="6.536809">
        <ele>44.324959</ele>
        <time>2026-05-04T15:09:59.334Z</time>
      </trkpt>
      <trkpt lat="53.238994" lon="6.536876">
        <ele>43.534453</ele>
        <time>2026-05-04T15:10:01.332Z</time>
      </trkpt>
      <trkpt lat="53.238870" lon="6.536967">
        <ele>42.406177</ele>
        <time>2026-05-04T15:10:04.332Z</time>
      </trkpt>
      <trkpt lat="53.238779" lon="6.537020">
        <ele>41.603332</ele>
        <time>2026-05-04T15:10:06.339Z</time>
      </trkpt>
      <trkpt lat="53.238685" lon="6.537093">
        <ele>40.739778</ele>
        <time>2026-05-04T15:10:08.345Z</time>
      </trkpt>
      <trkpt lat="53.238602" lon="6.537171">
        <ele>39.946453</ele>
        <time>2026-05-04T15:10:10.332Z</time>
      </trkpt>
      <trkpt lat="53.238502" lon="6.537231">
        <ele>39.355398</ele>
        <time>2026-05-04T15:10:12.337Z</time>
      </trkpt>
      <trkpt lat="53.238416" lon="6.537283">
        <ele>39.245477</ele>
        <time>2026-05-04T15:10:14.332Z</time>
      </trkpt>
      <trkpt lat="53.238306" lon="6.537361">
        <ele>39.101859</ele>
        <time>2026-05-04T15:10:17.331Z</time>
      </trkpt>
      <trkpt lat="53.238232" lon="6.537450">
        <ele>38.992276</ele>
        <time>2026-05-04T15:10:19.336Z</time>
      </trkpt>
      <trkpt lat="53.238154" lon="6.537530">
        <ele>38.882277</ele>
        <time>2026-05-04T15:10:21.332Z</time>
      </trkpt>
      <trkpt lat="53.238057" lon="6.537568">
        <ele>38.762534</ele>
        <time>2026-05-04T15:10:23.336Z</time>
      </trkpt>
      <trkpt lat="53.237933" lon="6.537642">
        <ele>38.604281</ele>
        <time>2026-05-04T15:10:26.332Z</time>
      </trkpt>
      <trkpt lat="53.237850" lon="6.537704">
        <ele>38.495010</ele>
        <time>2026-05-04T15:10:28.337Z</time>
      </trkpt>
      <trkpt lat="53.237755" lon="6.537778">
        <ele>38.369034</ele>
        <time>2026-05-04T15:10:30.331Z</time>
      </trkpt>
      <trkpt lat="53.237662" lon="6.537842">
        <ele>38.248151</ele>
        <time>2026-05-04T15:10:32.328Z</time>
      </trkpt>
      <trkpt lat="53.237579" lon="6.537902">
        <ele>38.139459</ele>
        <time>2026-05-04T15:10:34.326Z</time>
      </trkpt>
      <trkpt lat="53.237484" lon="6.537969">
        <ele>38.015527</ele>
        <time>2026-05-04T15:10:36.333Z</time>
      </trkpt>
      <trkpt lat="53.237388" lon="6.538034">
        <ele>37.891033</ele>
        <time>2026-05-04T15:10:38.326Z</time>
      </trkpt>
      <trkpt lat="53.237292" lon="6.538105">
        <ele>37.764855</ele>
        <time>2026-05-04T15:10:40.336Z</time>
      </trkpt>
      <trkpt lat="53.237219" lon="6.538208">
        <ele>37.650020</ele>
        <time>2026-05-04T15:10:42.330Z</time>
      </trkpt>
      <trkpt lat="53.237222" lon="6.538369">
        <ele>37.534153</ele>
        <time>2026-05-04T15:10:44.329Z</time>
      </trkpt>
      <trkpt lat="53.237207" lon="6.538517">
        <ele>37.426177</ele>
        <time>2026-05-04T15:10:46.334Z</time>
      </trkpt>
      <trkpt lat="53.237106" lon="6.538618">
        <ele>37.284708</ele>
        <time>2026-05-04T15:10:49.333Z</time>
      </trkpt>
      <trkpt lat="53.237011" lon="6.538681">
        <ele>37.198323</ele>
        <time>2026-05-04T15:10:51.329Z</time>
      </trkpt>
      <trkpt lat="53.236890" lon="6.538768">
        <ele>37.110931</ele>
        <time>2026-05-04T15:10:54.332Z</time>
      </trkpt>
      <trkpt lat="53.236781" lon="6.538854">
        <ele>37.030960</ele>
        <time>2026-05-04T15:10:57.328Z</time>
      </trkpt>
      <trkpt lat="53.236739" lon="6.539027">
        <ele>36.956832</ele>
        <time>2026-05-04T15:11:00.329Z</time>
      </trkpt>
      <trkpt lat="53.236794" lon="6.539211">
        <ele>36.875166</ele>
        <time>2026-05-04T15:11:03.332Z</time>
      </trkpt>
      <trkpt lat="53.236760" lon="6.539381">
        <ele>36.803996</ele>
        <time>2026-05-04T15:11:06.333Z</time>
      </trkpt>
      <trkpt lat="53.236717" lon="6.539570">
        <ele>36.723711</ele>
        <time>2026-05-04T15:11:09.332Z</time>
      </trkpt>
      <trkpt lat="53.236746" lon="6.539733">
        <ele>36.656190</ele>
        <time>2026-05-04T15:11:11.328Z</time>
      </trkpt>
      <trkpt lat="53.236775" lon="6.539892">
        <ele>36.590190</ele>
        <time>2026-05-04T15:11:13.330Z</time>
      </trkpt>
      <trkpt lat="53.236810" lon="6.540068">
        <ele>36.516550</ele>
        <time>2026-05-04T15:11:15.337Z</time>
      </trkpt>
      <trkpt lat="53.236849" lon="6.540238">
        <ele>36.444260</ele>
        <time>2026-05-04T15:11:17.330Z</time>
      </trkpt>
      <trkpt lat="53.236884" lon="6.540417">
        <ele>36.369488</ele>
        <time>2026-05-04T15:11:19.330Z</time>
      </trkpt>
      <trkpt lat="53.236929" lon="6.540583">
        <ele>36.297130</ele>
        <time>2026-05-04T15:11:21.330Z</time>
      </trkpt>
      <trkpt lat="53.236971" lon="6.540759">
        <ele>36.221896</ele>
        <time>2026-05-04T15:11:23.330Z</time>
      </trkpt>
      <trkpt lat="53.237009" lon="6.540935">
        <ele>36.147605</ele>
        <time>2026-05-04T15:11:25.335Z</time>
      </trkpt>
      <trkpt lat="53.237055" lon="6.541100">
        <ele>36.075330</ele>
        <time>2026-05-04T15:11:27.334Z</time>
      </trkpt>
      <trkpt lat="53.237080" lon="6.541267">
        <ele>36.085765</ele>
        <time>2026-05-04T15:11:29.329Z</time>
      </trkpt>
      <trkpt lat="53.237115" lon="6.541448">
        <ele>36.148627</ele>
        <time>2026-05-04T15:11:31.331Z</time>
      </trkpt>
      <trkpt lat="53.237166" lon="6.541635">
        <ele>36.216541</ele>
        <time>2026-05-04T15:11:33.334Z</time>
      </trkpt>
      <trkpt lat="53.237212" lon="6.541821">
        <ele>36.283052</ele>
        <time>2026-05-04T15:11:35.328Z</time>
      </trkpt>
      <trkpt lat="53.237250" lon="6.541998">
        <ele>36.345197</ele>
        <time>2026-05-04T15:11:37.338Z</time>
      </trkpt>
      <trkpt lat="53.237282" lon="6.542186">
        <ele>36.409792</ele>
        <time>2026-05-04T15:11:39.328Z</time>
      </trkpt>
      <trkpt lat="53.237313" lon="6.542373">
        <ele>36.473919</ele>
        <time>2026-05-04T15:11:41.334Z</time>
      </trkpt>
      <trkpt lat="53.237340" lon="6.542556">
        <ele>36.536207</ele>
        <time>2026-05-04T15:11:43.329Z</time>
      </trkpt>
      <trkpt lat="53.237362" lon="6.542738">
        <ele>36.597569</ele>
        <time>2026-05-04T15:11:45.334Z</time>
      </trkpt>
      <trkpt lat="53.237379" lon="6.542925">
        <ele>36.660078</ele>
        <time>2026-05-04T15:11:47.331Z</time>
      </trkpt>
      <trkpt lat="53.237399" lon="6.543102">
        <ele>36.719607</ele>
        <time>2026-05-04T15:11:49.333Z</time>
      </trkpt>
      <trkpt lat="53.237347" lon="6.543296">
        <ele>36.789856</ele>
        <time>2026-05-04T15:11:52.340Z</time>
      </trkpt>
      <trkpt lat="53.237262" lon="6.543359">
        <ele>36.841202</ele>
        <time>2026-05-04T15:11:54.330Z</time>
      </trkpt>
      <trkpt lat="53.237166" lon="6.543449">
        <ele>36.901986</ele>
        <time>2026-05-04T15:11:56.347Z</time>
      </trkpt>
      <trkpt lat="53.237072" lon="6.543527">
        <ele>36.959940</ele>
        <time>2026-05-04T15:11:58.332Z</time>
      </trkpt>
      <trkpt lat="53.236975" lon="6.543573">
        <ele>37.015617</ele>
        <time>2026-05-04T15:12:00.328Z</time>
      </trkpt>
      <trkpt lat="53.236884" lon="6.543617">
        <ele>37.055052</ele>
        <time>2026-05-04T15:12:02.334Z</time>
      </trkpt>
      <trkpt lat="53.236795" lon="6.543659">
        <ele>37.079578</ele>
        <time>2026-05-04T15:12:04.325Z</time>
      </trkpt>
      <trkpt lat="53.236675" lon="6.543681">
        <ele>37.111594</ele>
        <time>2026-05-04T15:12:08.330Z</time>
      </trkpt>
      <trkpt lat="53.236585" lon="6.543754">
        <ele>37.138126</ele>
        <time>2026-05-04T15:12:09.329Z</time>
      </trkpt>
      <trkpt lat="53.236503" lon="6.543920">
        <ele>37.172290</ele>
        <time>2026-05-04T15:12:11.329Z</time>
      </trkpt>
      <trkpt lat="53.236560" lon="6.544102">
        <ele>37.204894</ele>
        <time>2026-05-04T15:12:14.328Z</time>
      </trkpt>
      <trkpt lat="53.236610" lon="6.544251">
        <ele>37.232008</ele>
        <time>2026-05-04T15:12:16.327Z</time>
      </trkpt>
      <trkpt lat="53.236622" lon="6.544413">
        <ele>37.257918</ele>
        <time>2026-05-04T15:12:18.335Z</time>
      </trkpt>
      <trkpt lat="53.236668" lon="6.544576">
        <ele>37.286522</ele>
        <time>2026-05-04T15:12:20.326Z</time>
      </trkpt>
      <trkpt lat="53.236711" lon="6.544738">
        <ele>37.314651</ele>
        <time>2026-05-04T15:12:22.326Z</time>
      </trkpt>
      <trkpt lat="53.236759" lon="6.544917">
        <ele>37.345784</ele>
        <time>2026-05-04T15:12:24.326Z</time>
      </trkpt>
      <trkpt lat="53.236791" lon="6.545110">
        <ele>37.377572</ele>
        <time>2026-05-04T15:12:26.333Z</time>
      </trkpt>
      <trkpt lat="53.236830" lon="6.545300">
        <ele>37.409455</ele>
        <time>2026-05-04T15:12:28.333Z</time>
      </trkpt>
      <trkpt lat="53.236864" lon="6.545484">
        <ele>37.440020</ele>
        <time>2026-05-04T15:12:30.326Z</time>
      </trkpt>
      <trkpt lat="53.236897" lon="6.545683">
        <ele>37.472797</ele>
        <time>2026-05-04T15:12:32.329Z</time>
      </trkpt>
      <trkpt lat="53.236939" lon="6.545865">
        <ele>37.503758</ele>
        <time>2026-05-04T15:12:34.328Z</time>
      </trkpt>
      <trkpt lat="53.236976" lon="6.546066">
        <ele>37.471033</ele>
        <time>2026-05-04T15:12:36.331Z</time>
      </trkpt>
      <trkpt lat="53.237011" lon="6.546246">
        <ele>37.384115</ele>
        <time>2026-05-04T15:12:38.330Z</time>
      </trkpt>
      <trkpt lat="53.237039" lon="6.546438">
        <ele>37.293359</ele>
        <time>2026-05-04T15:12:40.331Z</time>
      </trkpt>
      <trkpt lat="53.237066" lon="6.546635">
        <ele>37.200544</ele>
        <time>2026-05-04T15:12:42.332Z</time>
      </trkpt>
      <trkpt lat="53.237086" lon="6.546832">
        <ele>37.108780</ele>
        <time>2026-05-04T15:12:44.323Z</time>
      </trkpt>
      <trkpt lat="53.237066" lon="6.547028">
        <ele>37.017468</ele>
        <time>2026-05-04T15:12:46.338Z</time>
      </trkpt>
      <trkpt lat="53.237071" lon="6.547218">
        <ele>36.930126</ele>
        <time>2026-05-04T15:12:48.330Z</time>
      </trkpt>
      <trkpt lat="53.237106" lon="6.547409">
        <ele>36.838390</ele>
        <time>2026-05-04T15:12:50.325Z</time>
      </trkpt>
      <trkpt lat="53.237142" lon="6.547592">
        <ele>36.749924</ele>
        <time>2026-05-04T15:12:52.328Z</time>
      </trkpt>
      <trkpt lat="53.237180" lon="6.547787">
        <ele>36.655743</ele>
        <time>2026-05-04T15:12:54.329Z</time>
      </trkpt>
      <trkpt lat="53.237216" lon="6.547967">
        <ele>36.568584</ele>
        <time>2026-05-04T15:12:56.328Z</time>
      </trkpt>
      <trkpt lat="53.237247" lon="6.548162">
        <ele>36.475926</ele>
        <time>2026-05-04T15:12:58.325Z</time>
      </trkpt>
      <trkpt lat="53.237284" lon="6.548347">
        <ele>36.386346</ele>
        <time>2026-05-04T15:13:00.329Z</time>
      </trkpt>
      <trkpt lat="53.237349" lon="6.548492">
        <ele>36.303148</ele>
        <time>2026-05-04T15:13:02.331Z</time>
      </trkpt>
      <trkpt lat="53.237439" lon="6.548613">
        <ele>36.214507</ele>
        <time>2026-05-04T15:13:04.336Z</time>
      </trkpt>
      <trkpt lat="53.237505" lon="6.548789">
        <ele>36.148993</ele>
        <time>2026-05-04T15:13:06.331Z</time>
      </trkpt>
      <trkpt lat="53.237531" lon="6.548989">
        <ele>36.189439</ele>
        <time>2026-05-04T15:13:08.328Z</time>
      </trkpt>
      <trkpt lat="53.237568" lon="6.549190">
        <ele>36.230997</ele>
        <time>2026-05-04T15:13:10.333Z</time>
      </trkpt>
      <trkpt lat="53.237601" lon="6.549392">
        <ele>36.272377</ele>
        <time>2026-05-04T15:13:12.324Z</time>
      </trkpt>
      <trkpt lat="53.237637" lon="6.549568">
        <ele>36.309133</ele>
        <time>2026-05-04T15:13:14.343Z</time>
      </trkpt>
      <trkpt lat="53.237662" lon="6.549750">
        <ele>36.346035</ele>
        <time>2026-05-04T15:13:16.333Z</time>
      </trkpt>
      <trkpt lat="53.237695" lon="6.549920">
        <ele>36.381353</ele>
        <time>2026-05-04T15:13:18.326Z</time>
      </trkpt>
      <trkpt lat="53.237731" lon="6.550092">
        <ele>36.417362</ele>
        <time>2026-05-04T15:13:20.328Z</time>
      </trkpt>
      <trkpt lat="53.237750" lon="6.550285">
        <ele>36.456015</ele>
        <time>2026-05-04T15:13:22.327Z</time>
      </trkpt>
      <trkpt lat="53.237727" lon="6.550466">
        <ele>36.492582</ele>
        <time>2026-05-04T15:13:24.332Z</time>
      </trkpt>
      <trkpt lat="53.237699" lon="6.550656">
        <ele>36.531251</ele>
        <time>2026-05-04T15:13:26.331Z</time>
      </trkpt>
      <trkpt lat="53.237703" lon="6.550852">
        <ele>36.570007</ele>
        <time>2026-05-04T15:13:28.330Z</time>
      </trkpt>
      <trkpt lat="53.237733" lon="6.551043">
        <ele>36.609031</ele>
        <time>2026-05-04T15:13:30.330Z</time>
      </trkpt>
      <trkpt lat="53.237765" lon="6.551235">
        <ele>36.648417</ele>
        <time>2026-05-04T15:13:32.329Z</time>
      </trkpt>
      <trkpt lat="53.237805" lon="6.551417">
        <ele>36.686732</ele>
        <time>2026-05-04T15:13:34.332Z</time>
      </trkpt>
      <trkpt lat="53.237841" lon="6.551599">
        <ele>36.724612</ele>
        <time>2026-05-04T15:13:36.329Z</time>
      </trkpt>
      <trkpt lat="53.237884" lon="6.551752">
        <ele>36.801965</ele>
        <time>2026-05-04T15:13:38.331Z</time>
      </trkpt>
      <trkpt lat="53.237962" lon="6.551890">
        <ele>36.907856</ele>
        <time>2026-05-04T15:13:40.331Z</time>
      </trkpt>
      <trkpt lat="53.238029" lon="6.552044">
        <ele>37.014069</ele>
        <time>2026-05-04T15:13:42.330Z</time>
      </trkpt>
      <trkpt lat="53.238059" lon="6.552240">
        <ele>37.126930</ele>
        <time>2026-05-04T15:13:44.329Z</time>
      </trkpt>
      <trkpt lat="53.238072" lon="6.552433">
        <ele>37.235279</ele>
        <time>2026-05-04T15:13:46.330Z</time>
      </trkpt>
      <trkpt lat="53.238087" lon="6.552626">
        <ele>37.343851</ele>
        <time>2026-05-04T15:13:48.329Z</time>
      </trkpt>
      <trkpt lat="53.238107" lon="6.552817">
        <ele>37.452023</ele>
        <time>2026-05-04T15:13:50.329Z</time>
      </trkpt>
      <trkpt lat="53.238124" lon="6.553012">
        <ele>37.561955</ele>
        <time>2026-05-04T15:13:52.323Z</time>
      </trkpt>
      <trkpt lat="53.238133" lon="6.553214">
        <ele>37.674956</ele>
        <time>2026-05-04T15:13:54.331Z</time>
      </trkpt>
      <trkpt lat="53.238143" lon="6.553417">
        <ele>37.788586</ele>
        <time>2026-05-04T15:13:56.330Z</time>
      </trkpt>
      <trkpt lat="53.238149" lon="6.553606">
        <ele>37.894171</ele>
        <time>2026-05-04T15:13:58.328Z</time>
      </trkpt>
      <trkpt lat="53.238168" lon="6.553804">
        <ele>38.006040</ele>
        <time>2026-05-04T15:14:00.331Z</time>
      </trkpt>
      <trkpt lat="53.238151" lon="6.554025">
        <ele>38.130343</ele>
        <time>2026-05-04T15:14:02.346Z</time>
      </trkpt>
      <trkpt lat="53.238143" lon="6.554200">
        <ele>38.228254</ele>
        <time>2026-05-04T15:14:04.327Z</time>
      </trkpt>
      <trkpt lat="53.238132" lon="6.554365">
        <ele>38.320871</ele>
        <time>2026-05-04T15:14:06.329Z</time>
      </trkpt>
      <trkpt lat="53.238138" lon="6.554538">
        <ele>38.411172</ele>
        <time>2026-05-04T15:14:09.333Z</time>
      </trkpt>
      <trkpt lat="53.238137" lon="6.554708">
        <ele>38.420632</ele>
        <time>2026-05-04T15:14:12.339Z</time>
      </trkpt>
      <trkpt lat="53.238129" lon="6.554920">
        <ele>38.432452</ele>
        <time>2026-05-04T15:14:15.331Z</time>
      </trkpt>
      <trkpt lat="53.238124" lon="6.555080">
        <ele>38.441367</ele>
        <time>2026-05-04T15:14:17.331Z</time>
      </trkpt>
      <trkpt lat="53.238136" lon="6.555235">
        <ele>38.450064</ele>
        <time>2026-05-04T15:14:19.328Z</time>
      </trkpt>
      <trkpt lat="53.238148" lon="6.555426">
        <ele>38.460751</ele>
        <time>2026-05-04T15:14:21.333Z</time>
      </trkpt>
      <trkpt lat="53.238136" lon="6.555618">
        <ele>38.471492</ele>
        <time>2026-05-04T15:14:23.330Z</time>
      </trkpt>
      <trkpt lat="53.238123" lon="6.555826">
        <ele>38.483129</ele>
        <time>2026-05-04T15:14:25.328Z</time>
      </trkpt>
      <trkpt lat="53.238117" lon="6.556034">
        <ele>38.494717</ele>
        <time>2026-05-04T15:14:27.328Z</time>
      </trkpt>
      <trkpt lat="53.238120" lon="6.556229">
        <ele>38.505571</ele>
        <time>2026-05-04T15:14:29.327Z</time>
      </trkpt>
      <trkpt lat="53.238115" lon="6.556442">
        <ele>38.517433</ele>
        <time>2026-05-04T15:14:31.334Z</time>
      </trkpt>
      <trkpt lat="53.238113" lon="6.556657">
        <ele>38.529398</ele>
        <time>2026-05-04T15:14:33.330Z</time>
      </trkpt>
      <trkpt lat="53.238118" lon="6.556862">
        <ele>38.540814</ele>
        <time>2026-05-04T15:14:35.332Z</time>
      </trkpt>
      <trkpt lat="53.238123" lon="6.557049">
        <ele>38.551230</ele>
        <time>2026-05-04T15:14:37.339Z</time>
      </trkpt>
      <trkpt lat="53.238116" lon="6.557241">
        <ele>38.561934</ele>
        <time>2026-05-04T15:14:39.338Z</time>
      </trkpt>
      <trkpt lat="53.238118" lon="6.557455">
        <ele>38.573843</ele>
        <time>2026-05-04T15:14:41.327Z</time>
      </trkpt>
      <trkpt lat="53.238119" lon="6.557648">
        <ele>38.518733</ele>
        <time>2026-05-04T15:14:43.326Z</time>
      </trkpt>
      <trkpt lat="53.238133" lon="6.557826">
        <ele>38.433225</ele>
        <time>2026-05-04T15:14:45.334Z</time>
      </trkpt>
      <trkpt lat="53.238174" lon="6.558008">
        <ele>38.340604</ele>
        <time>2026-05-04T15:14:47.329Z</time>
      </trkpt>
      <trkpt lat="53.238179" lon="6.558201">
        <ele>38.248595</ele>
        <time>2026-05-04T15:14:49.337Z</time>
      </trkpt>
      <trkpt lat="53.238185" lon="6.558399">
        <ele>38.154170</ele>
        <time>2026-05-04T15:14:51.330Z</time>
      </trkpt>
      <trkpt lat="53.238187" lon="6.558595">
        <ele>38.060804</ele>
        <time>2026-05-04T15:14:53.327Z</time>
      </trkpt>
      <trkpt lat="53.238181" lon="6.558790">
        <ele>37.967806</ele>
        <time>2026-05-04T15:14:55.328Z</time>
      </trkpt>
      <trkpt lat="53.238178" lon="6.559008">
        <ele>37.863949</ele>
        <time>2026-05-04T15:14:57.330Z</time>
      </trkpt>
      <trkpt lat="53.238173" lon="6.559205">
        <ele>37.770036</ele>
        <time>2026-05-04T15:14:59.326Z</time>
      </trkpt>
      <trkpt lat="53.238164" lon="6.559403">
        <ele>37.675460</ele>
        <time>2026-05-04T15:15:01.334Z</time>
      </trkpt>
      <trkpt lat="53.238160" lon="6.559584">
        <ele>37.589194</ele>
        <time>2026-05-04T15:15:03.326Z</time>
      </trkpt>
      <trkpt lat="53.238144" lon="6.559751">
        <ele>37.508641</ele>
        <time>2026-05-04T15:15:05.337Z</time>
      </trkpt>
      <trkpt lat="53.238108" lon="6.559935">
        <ele>37.416441</ele>
        <time>2026-05-04T15:15:07.328Z</time>
      </trkpt>
      <trkpt lat="53.238065" lon="6.560110">
        <ele>37.326340</ele>
        <time>2026-05-04T15:15:09.336Z</time>
      </trkpt>
      <trkpt lat="53.238019" lon="6.560282">
        <ele>37.236611</ele>
        <time>2026-05-04T15:15:11.333Z</time>
      </trkpt>
      <trkpt lat="53.237981" lon="6.560461">
        <ele>37.146453</ele>
        <time>2026-05-04T15:15:13.328Z</time>
      </trkpt>
      <trkpt lat="53.237942" lon="6.560642">
        <ele>37.224572</ele>
        <time>2026-05-04T15:15:15.327Z</time>
      </trkpt>
      <trkpt lat="53.237906" lon="6.560825">
        <ele>37.302796</ele>
        <time>2026-05-04T15:15:17.332Z</time>
      </trkpt>
      <trkpt lat="53.237864" lon="6.561008">
        <ele>37.382385</ele>
        <time>2026-05-04T15:15:19.333Z</time>
      </trkpt>
      <trkpt lat="53.237833" lon="6.561190">
        <ele>37.459227</ele>
        <time>2026-05-04T15:15:21.331Z</time>
      </trkpt>
      <trkpt lat="53.237807" lon="6.561363">
        <ele>37.531660</ele>
        <time>2026-05-04T15:15:23.336Z</time>
      </trkpt>
      <trkpt lat="53.237765" lon="6.561545">
        <ele>37.610871</ele>
        <time>2026-05-04T15:15:25.330Z</time>
      </trkpt>
      <trkpt lat="53.237735" lon="6.561731">
        <ele>37.689097</ele>
        <time>2026-05-04T15:15:27.337Z</time>
      </trkpt>
      <trkpt lat="53.237701" lon="6.561915">
        <ele>37.767297</ele>
        <time>2026-05-04T15:15:29.330Z</time>
      </trkpt>
      <trkpt lat="53.237661" lon="6.562096">
        <ele>37.845649</ele>
        <time>2026-05-04T15:15:31.324Z</time>
      </trkpt>
      <trkpt lat="53.237626" lon="6.562284">
        <ele>37.925601</ele>
        <time>2026-05-04T15:15:33.333Z</time>
      </trkpt>
      <trkpt lat="53.237589" lon="6.562469">
        <ele>38.004810</ele>
        <time>2026-05-04T15:15:35.330Z</time>
      </trkpt>
      <trkpt lat="53.237548" lon="6.562667">
        <ele>38.089891</ele>
        <time>2026-05-04T15:15:37.329Z</time>
      </trkpt>
      <trkpt lat="53.237508" lon="6.562859">
        <ele>38.172448</ele>
        <time>2026-05-04T15:15:39.330Z</time>
      </trkpt>
      <trkpt lat="53.237474" lon="6.563038">
        <ele>38.248710</ele>
        <time>2026-05-04T15:15:41.333Z</time>
      </trkpt>
      <trkpt lat="53.237433" lon="6.563214">
        <ele>38.325404</ele>
        <time>2026-05-04T15:15:43.336Z</time>
      </trkpt>
      <trkpt lat="53.237397" lon="6.563386">
        <ele>38.306710</ele>
        <time>2026-05-04T15:15:45.330Z</time>
      </trkpt>
      <trkpt lat="53.237364" lon="6.563561">
        <ele>38.169991</ele>
        <time>2026-05-04T15:15:47.332Z</time>
      </trkpt>
      <trkpt lat="53.237329" lon="6.563762">
        <ele>38.014008</ele>
        <time>2026-05-04T15:15:49.344Z</time>
      </trkpt>
      <trkpt lat="53.237293" lon="6.563949">
        <ele>37.867635</ele>
        <time>2026-05-04T15:15:51.329Z</time>
      </trkpt>
      <trkpt lat="53.237262" lon="6.564135">
        <ele>37.723765</ele>
        <time>2026-05-04T15:15:53.330Z</time>
      </trkpt>
      <trkpt lat="53.237229" lon="6.564311">
        <ele>37.586335</ele>
        <time>2026-05-04T15:15:55.328Z</time>
      </trkpt>
      <trkpt lat="53.237195" lon="6.564481">
        <ele>37.452776</ele>
        <time>2026-05-04T15:15:57.333Z</time>
      </trkpt>
      <trkpt lat="53.237162" lon="6.564662">
        <ele>37.311786</ele>
        <time>2026-05-04T15:15:59.335Z</time>
      </trkpt>
      <trkpt lat="53.237129" lon="6.564838">
        <ele>37.174355</ele>
        <time>2026-05-04T15:16:01.331Z</time>
      </trkpt>
      <trkpt lat="53.237087" lon="6.565026">
        <ele>37.024827</ele>
        <time>2026-05-04T15:16:03.333Z</time>
      </trkpt>
      <trkpt lat="53.237043" lon="6.565201">
        <ele>36.883388</ele>
        <time>2026-05-04T15:16:05.330Z</time>
      </trkpt>
      <trkpt lat="53.237006" lon="6.565378">
        <ele>36.743684</ele>
        <time>2026-05-04T15:16:07.334Z</time>
      </trkpt>
      <trkpt lat="53.236967" lon="6.565557">
        <ele>36.601739</ele>
        <time>2026-05-04T15:16:09.330Z</time>
      </trkpt>
      <trkpt lat="53.236932" lon="6.565744">
        <ele>36.455742</ele>
        <time>2026-05-04T15:16:11.329Z</time>
      </trkpt>
      <trkpt lat="53.236910" lon="6.565922">
        <ele>36.320308</ele>
        <time>2026-05-04T15:16:13.333Z</time>
      </trkpt>
      <trkpt lat="53.236913" lon="6.566115">
        <ele>36.176446</ele>
        <time>2026-05-04T15:16:15.333Z</time>
      </trkpt>
      <trkpt lat="53.236931" lon="6.566445">
        <ele>36.313035</ele>
        <time>2026-05-04T15:16:20.330Z</time>
      </trkpt>
      <trkpt lat="53.236945" lon="6.566612">
        <ele>36.430949</ele>
        <time>2026-05-04T15:16:21.330Z</time>
      </trkpt>
      <trkpt lat="53.236949" lon="6.566763">
        <ele>36.536638</ele>
        <time>2026-05-04T15:16:22.334Z</time>
      </trkpt>
      <trkpt lat="53.236957" lon="6.566984">
        <ele>36.691453</ele>
        <time>2026-05-04T15:16:24.330Z</time>
      </trkpt>
      <trkpt lat="53.236957" lon="6.567175">
        <ele>36.825009</ele>
        <time>2026-05-04T15:16:26.330Z</time>
      </trkpt>
      <trkpt lat="53.236923" lon="6.567361">
        <ele>36.960999</ele>
        <time>2026-05-04T15:16:28.338Z</time>
      </trkpt>
      <trkpt lat="53.236871" lon="6.567541">
        <ele>37.100758</ele>
        <time>2026-05-04T15:16:30.329Z</time>
      </trkpt>
      <trkpt lat="53.236833" lon="6.567706">
        <ele>37.224380</ele>
        <time>2026-05-04T15:16:32.329Z</time>
      </trkpt>
      <trkpt lat="53.236780" lon="6.567890">
        <ele>37.367166</ele>
        <time>2026-05-04T15:16:34.356Z</time>
      </trkpt>
      <trkpt lat="53.236717" lon="6.568057">
        <ele>37.505202</ele>
        <time>2026-05-04T15:16:36.331Z</time>
      </trkpt>
      <trkpt lat="53.236669" lon="6.568219">
        <ele>37.631601</ele>
        <time>2026-05-04T15:16:38.329Z</time>
      </trkpt>
      <trkpt lat="53.236629" lon="6.568398">
        <ele>37.765206</ele>
        <time>2026-05-04T15:16:40.330Z</time>
      </trkpt>
      <trkpt lat="53.236571" lon="6.568578">
        <ele>37.908153</ele>
        <time>2026-05-04T15:16:42.324Z</time>
      </trkpt>
      <trkpt lat="53.236522" lon="6.568748">
        <ele>38.040092</ele>
        <time>2026-05-04T15:16:44.329Z</time>
      </trkpt>
      <trkpt lat="53.236461" lon="6.568917">
        <ele>38.178092</ele>
        <time>2026-05-04T15:16:46.329Z</time>
      </trkpt>
      <trkpt lat="53.236408" lon="6.569082">
        <ele>38.229413</ele>
        <time>2026-05-04T15:16:48.329Z</time>
      </trkpt>
      <trkpt lat="53.236358" lon="6.569263">
        <ele>38.230556</ele>
        <time>2026-05-04T15:16:50.328Z</time>
      </trkpt>
      <trkpt lat="53.236301" lon="6.569438">
        <ele>38.231699</ele>
        <time>2026-05-04T15:16:52.330Z</time>
      </trkpt>
      <trkpt lat="53.236249" lon="6.569605">
        <ele>38.232779</ele>
        <time>2026-05-04T15:16:54.325Z</time>
      </trkpt>
      <trkpt lat="53.236199" lon="6.569765">
        <ele>38.233815</ele>
        <time>2026-05-04T15:16:56.328Z</time>
      </trkpt>
      <trkpt lat="53.236146" lon="6.569925">
        <ele>38.234864</ele>
        <time>2026-05-04T15:16:58.328Z</time>
      </trkpt>
      <trkpt lat="53.236100" lon="6.570095">
        <ele>38.235934</ele>
        <time>2026-05-04T15:17:00.334Z</time>
      </trkpt>
      <trkpt lat="53.236048" lon="6.570265">
        <ele>38.237030</ele>
        <time>2026-05-04T15:17:02.336Z</time>
      </trkpt>
      <trkpt lat="53.235994" lon="6.570464">
        <ele>38.238283</ele>
        <time>2026-05-04T15:17:04.335Z</time>
      </trkpt>
      <trkpt lat="53.235944" lon="6.570632">
        <ele>38.239360</ele>
        <time>2026-05-04T15:17:06.325Z</time>
      </trkpt>
      <trkpt lat="53.235902" lon="6.570794">
        <ele>38.240373</ele>
        <time>2026-05-04T15:17:08.327Z</time>
      </trkpt>
      <trkpt lat="53.235858" lon="6.570970">
        <ele>38.241467</ele>
        <time>2026-05-04T15:17:10.328Z</time>
      </trkpt>
      <trkpt lat="53.235809" lon="6.571148">
        <ele>38.242591</ele>
        <time>2026-05-04T15:17:12.325Z</time>
      </trkpt>
      <trkpt lat="53.235756" lon="6.571314">
        <ele>38.243671</ele>
        <time>2026-05-04T15:17:14.328Z</time>
      </trkpt>
      <trkpt lat="53.235696" lon="6.571469">
        <ele>38.244730</ele>
        <time>2026-05-04T15:17:16.336Z</time>
      </trkpt>
      <trkpt lat="53.235647" lon="6.571633">
        <ele>38.245781</ele>
        <time>2026-05-04T15:17:18.331Z</time>
      </trkpt>
      <trkpt lat="53.235599" lon="6.571808">
        <ele>38.200250</ele>
        <time>2026-05-04T15:17:20.331Z</time>
      </trkpt>
      <trkpt lat="53.235545" lon="6.571975">
        <ele>38.144300</ele>
        <time>2026-05-04T15:17:22.331Z</time>
      </trkpt>
      <trkpt lat="53.235497" lon="6.572144">
        <ele>38.089162</ele>
        <time>2026-05-04T15:17:24.339Z</time>
      </trkpt>
      <trkpt lat="53.235441" lon="6.572314">
        <ele>38.031965</ele>
        <time>2026-05-04T15:17:26.331Z</time>
      </trkpt>
      <trkpt lat="53.235395" lon="6.572476">
        <ele>37.979112</ele>
        <time>2026-05-04T15:17:28.338Z</time>
      </trkpt>
      <trkpt lat="53.235344" lon="6.572651">
        <ele>37.921739</ele>
        <time>2026-05-04T15:17:30.326Z</time>
      </trkpt>
      <trkpt lat="53.235294" lon="6.572826">
        <ele>37.864580</ele>
        <time>2026-05-04T15:17:32.331Z</time>
      </trkpt>
      <trkpt lat="53.235247" lon="6.572991">
        <ele>37.810718</ele>
        <time>2026-05-04T15:17:34.338Z</time>
      </trkpt>
      <trkpt lat="53.235197" lon="6.573141">
        <ele>37.760109</ele>
        <time>2026-05-04T15:17:36.330Z</time>
      </trkpt>
      <trkpt lat="53.235144" lon="6.573301">
        <ele>37.706206</ele>
        <time>2026-05-04T15:17:38.329Z</time>
      </trkpt>
      <trkpt lat="53.235079" lon="6.573466">
        <ele>37.647981</ele>
        <time>2026-05-04T15:17:40.339Z</time>
      </trkpt>
      <trkpt lat="53.235027" lon="6.573643">
        <ele>37.589862</ele>
        <time>2026-05-04T15:17:42.327Z</time>
      </trkpt>
      <trkpt lat="53.234979" lon="6.573813">
        <ele>37.534457</ele>
        <time>2026-05-04T15:17:44.332Z</time>
      </trkpt>
      <trkpt lat="53.234924" lon="6.573983">
        <ele>37.477495</ele>
        <time>2026-05-04T15:17:46.328Z</time>
      </trkpt>
      <trkpt lat="53.234875" lon="6.574152">
        <ele>37.422143</ele>
        <time>2026-05-04T15:17:48.336Z</time>
      </trkpt>
      <trkpt lat="53.234833" lon="6.574330">
        <ele>37.365745</ele>
        <time>2026-05-04T15:17:50.337Z</time>
      </trkpt>
      <trkpt lat="53.234781" lon="6.574491">
        <ele>37.407942</ele>
        <time>2026-05-04T15:17:52.338Z</time>
      </trkpt>
      <trkpt lat="53.234723" lon="6.574658">
        <ele>37.464085</ele>
        <time>2026-05-04T15:17:54.330Z</time>
      </trkpt>
      <trkpt lat="53.234673" lon="6.574827">
        <ele>37.518902</ele>
        <time>2026-05-04T15:17:56.334Z</time>
      </trkpt>
      <trkpt lat="53.234627" lon="6.575006">
        <ele>37.575545</ele>
        <time>2026-05-04T15:17:58.335Z</time>
      </trkpt>
      <trkpt lat="53.234577" lon="6.575154">
        <ele>37.624962</ele>
        <time>2026-05-04T15:18:00.330Z</time>
      </trkpt>
      <trkpt lat="53.234533" lon="6.575302">
        <ele>37.673014</ele>
        <time>2026-05-04T15:18:02.328Z</time>
      </trkpt>
      <trkpt lat="53.234483" lon="6.575452">
        <ele>37.722938</ele>
        <time>2026-05-04T15:18:04.334Z</time>
      </trkpt>
      <trkpt lat="53.234437" lon="6.575598">
        <ele>37.770914</ele>
        <time>2026-05-04T15:18:06.330Z</time>
      </trkpt>
      <trkpt lat="53.234398" lon="6.575759">
        <ele>37.821418</ele>
        <time>2026-05-04T15:18:08.333Z</time>
      </trkpt>
      <trkpt lat="53.234353" lon="6.575919">
        <ele>37.872823</ele>
        <time>2026-05-04T15:18:10.333Z</time>
      </trkpt>
      <trkpt lat="53.234304" lon="6.576074">
        <ele>37.923794</ele>
        <time>2026-05-04T15:18:12.333Z</time>
      </trkpt>
      <trkpt lat="53.234253" lon="6.576236">
        <ele>37.977018</ele>
        <time>2026-05-04T15:18:14.332Z</time>
      </trkpt>
      <trkpt lat="53.234208" lon="6.576375">
        <ele>38.022970</ele>
        <time>2026-05-04T15:18:16.328Z</time>
      </trkpt>
      <trkpt lat="53.234155" lon="6.576539">
        <ele>38.077165</ele>
        <time>2026-05-04T15:18:19.329Z</time>
      </trkpt>
      <trkpt lat="53.234115" lon="6.576692">
        <ele>38.125713</ele>
        <time>2026-05-04T15:18:24.331Z</time>
      </trkpt>
      <trkpt lat="53.234104" lon="6.576849">
        <ele>38.171677</ele>
        <time>2026-05-04T15:18:27.328Z</time>
      </trkpt>
      <trkpt lat="53.234076" lon="6.577009">
        <ele>38.220150</ele>
        <time>2026-05-04T15:18:30.337Z</time>
      </trkpt>
      <trkpt lat="53.234046" lon="6.577217">
        <ele>38.241615</ele>
        <time>2026-05-04T15:18:33.332Z</time>
      </trkpt>
      <trkpt lat="53.234016" lon="6.577402">
        <ele>38.250384</ele>
        <time>2026-05-04T15:18:36.333Z</time>
      </trkpt>
      <trkpt lat="53.233956" lon="6.577591">
        <ele>38.260171</ele>
        <time>2026-05-04T15:18:39.330Z</time>
      </trkpt>
      <trkpt lat="53.233906" lon="6.577724">
        <ele>38.267356</ele>
        <time>2026-05-04T15:18:41.328Z</time>
      </trkpt>
      <trkpt lat="53.233851" lon="6.577919">
        <ele>38.277218</ele>
        <time>2026-05-04T15:18:44.337Z</time>
      </trkpt>
      <trkpt lat="53.233812" lon="6.578061">
        <ele>38.284365</ele>
        <time>2026-05-04T15:18:46.329Z</time>
      </trkpt>
      <trkpt lat="53.233758" lon="6.578224">
        <ele>38.292888</ele>
        <time>2026-05-04T15:18:48.329Z</time>
      </trkpt>
      <trkpt lat="53.233699" lon="6.578387">
        <ele>38.301603</ele>
        <time>2026-05-04T15:18:50.328Z</time>
      </trkpt>
      <trkpt lat="53.233648" lon="6.578516">
        <ele>38.308676</ele>
        <time>2026-05-04T15:18:52.328Z</time>
      </trkpt>
      <trkpt lat="53.233601" lon="6.578652">
        <ele>38.315860</ele>
        <time>2026-05-04T15:18:54.331Z</time>
      </trkpt>
      <trkpt lat="53.233549" lon="6.578863">
        <ele>38.326299</ele>
        <time>2026-05-04T15:18:57.337Z</time>
      </trkpt>
      <trkpt lat="53.233519" lon="6.579028">
        <ele>38.334188</ele>
        <time>2026-05-04T15:18:59.326Z</time>
      </trkpt>
      <trkpt lat="53.233459" lon="6.579188">
        <ele>38.342826</ele>
        <time>2026-05-04T15:19:01.326Z</time>
      </trkpt>
      <trkpt lat="53.233401" lon="6.579355">
        <ele>38.351659</ele>
        <time>2026-05-04T15:19:03.335Z</time>
      </trkpt>
      <trkpt lat="53.233343" lon="6.579521">
        <ele>38.360452</ele>
        <time>2026-05-04T15:19:05.336Z</time>
      </trkpt>
      <trkpt lat="53.233293" lon="6.579680">
        <ele>38.368669</ele>
        <time>2026-05-04T15:19:07.330Z</time>
      </trkpt>
      <trkpt lat="53.233229" lon="6.579849">
        <ele>38.421599</ele>
        <time>2026-05-04T15:19:09.343Z</time>
      </trkpt>
      <trkpt lat="53.233151" lon="6.579992">
        <ele>38.491598</ele>
        <time>2026-05-04T15:19:11.328Z</time>
      </trkpt>
      <trkpt lat="53.233073" lon="6.580120">
        <ele>38.557687</ele>
        <time>2026-05-04T15:19:13.333Z</time>
      </trkpt>
      <trkpt lat="53.233002" lon="6.580242">
        <ele>38.619252</ele>
        <time>2026-05-04T15:19:15.334Z</time>
      </trkpt>
      <trkpt lat="53.232900" lon="6.580375">
        <ele>38.697464</ele>
        <time>2026-05-04T15:19:18.332Z</time>
      </trkpt>
      <trkpt lat="53.232817" lon="6.580299">
        <ele>38.754676</ele>
        <time>2026-05-04T15:19:21.332Z</time>
      </trkpt>
      <trkpt lat="53.232748" lon="6.580185">
        <ele>38.813334</ele>
        <time>2026-05-04T15:19:24.330Z</time>
      </trkpt>
      <trkpt lat="53.232631" lon="6.580177">
        <ele>38.884116</ele>
        <time>2026-05-04T15:19:27.329Z</time>
      </trkpt>
      <trkpt lat="53.232554" lon="6.580263">
        <ele>38.940103</ele>
        <time>2026-05-04T15:19:29.332Z</time>
      </trkpt>
      <trkpt lat="53.232471" lon="6.580354">
        <ele>39.000112</ele>
        <time>2026-05-04T15:19:31.332Z</time>
      </trkpt>
      <trkpt lat="53.232392" lon="6.580456">
        <ele>39.060464</ele>
        <time>2026-05-04T15:19:33.331Z</time>
      </trkpt>
      <trkpt lat="53.232313" lon="6.580552">
        <ele>39.119513</ele>
        <time>2026-05-04T15:19:35.330Z</time>
      </trkpt>
      <trkpt lat="53.232238" lon="6.580655">
        <ele>39.178199</ele>
        <time>2026-05-04T15:19:37.329Z</time>
      </trkpt>
      <trkpt lat="53.232124" lon="6.580764">
        <ele>39.257596</ele>
        <time>2026-05-04T15:19:40.328Z</time>
      </trkpt>
      <trkpt lat="53.232035" lon="6.580695">
        <ele>39.316904</ele>
        <time>2026-05-04T15:19:43.332Z</time>
      </trkpt>
      <trkpt lat="53.231964" lon="6.580601">
        <ele>39.371664</ele>
        <time>2026-05-04T15:19:46.332Z</time>
      </trkpt>
      <trkpt lat="53.231868" lon="6.580610">
        <ele>39.429784</ele>
        <time>2026-05-04T15:19:51.333Z</time>
      </trkpt>
      <trkpt lat="53.231783" lon="6.580742">
        <ele>39.370410</ele>
        <time>2026-05-04T15:19:55.330Z</time>
      </trkpt>
      <trkpt lat="53.231700" lon="6.580859">
        <ele>39.229856</ele>
        <time>2026-05-04T15:19:58.338Z</time>
      </trkpt>
      <trkpt lat="53.231609" lon="6.580971">
        <ele>39.083569</ele>
        <time>2026-05-04T15:20:01.329Z</time>
      </trkpt>
      <trkpt lat="53.231582" lon="6.581150">
        <ele>38.940561</ele>
        <time>2026-05-04T15:20:05.327Z</time>
      </trkpt>
      <trkpt lat="53.231626" lon="6.581282">
        <ele>38.823513</ele>
        <time>2026-05-04T15:20:07.330Z</time>
      </trkpt>
      <trkpt lat="53.231678" lon="6.581427">
        <ele>38.692562</ele>
        <time>2026-05-04T15:20:09.330Z</time>
      </trkpt>
      <trkpt lat="53.231674" lon="6.581634">
        <ele>38.532114</ele>
        <time>2026-05-04T15:20:12.337Z</time>
      </trkpt>
      <trkpt lat="53.231601" lon="6.581752">
        <ele>38.400648</ele>
        <time>2026-05-04T15:20:14.331Z</time>
      </trkpt>
      <trkpt lat="53.231520" lon="6.581835">
        <ele>38.277665</ele>
        <time>2026-05-04T15:20:16.329Z</time>
      </trkpt>
      <trkpt lat="53.231438" lon="6.581922">
        <ele>38.151944</ele>
        <time>2026-05-04T15:20:18.327Z</time>
      </trkpt>
      <trkpt lat="53.231365" lon="6.582014">
        <ele>38.033595</ele>
        <time>2026-05-04T15:20:20.327Z</time>
      </trkpt>
      <trkpt lat="53.231288" lon="6.582108">
        <ele>37.910167</ele>
        <time>2026-05-04T15:20:22.328Z</time>
      </trkpt>
      <trkpt lat="53.231219" lon="6.582230">
        <ele>37.780135</ele>
        <time>2026-05-04T15:20:24.326Z</time>
      </trkpt>
      <trkpt lat="53.231201" lon="6.582385">
        <ele>37.657815</ele>
        <time>2026-05-04T15:20:26.326Z</time>
      </trkpt>
      <trkpt lat="53.231253" lon="6.582527">
        <ele>37.528852</ele>
        <time>2026-05-04T15:20:28.336Z</time>
      </trkpt>
      <trkpt lat="53.231317" lon="6.582662">
        <ele>37.395437</ele>
        <time>2026-05-04T15:20:30.337Z</time>
      </trkpt>
      <trkpt lat="53.231362" lon="6.582807">
        <ele>37.268903</ele>
        <time>2026-05-04T15:20:32.330Z</time>
      </trkpt>
      <trkpt lat="53.231302" lon="6.582994">
        <ele>37.170841</ele>
        <time>2026-05-04T15:20:35.331Z</time>
      </trkpt>
      <trkpt lat="53.231227" lon="6.583086">
        <ele>37.354205</ele>
        <time>2026-05-04T15:20:37.328Z</time>
      </trkpt>
      <trkpt lat="53.231130" lon="6.583221">
        <ele>37.603001</ele>
        <time>2026-05-04T15:20:40.328Z</time>
      </trkpt>
      <trkpt lat="53.231056" lon="6.583327">
        <ele>37.795097</ele>
        <time>2026-05-04T15:20:42.329Z</time>
      </trkpt>
      <trkpt lat="53.230960" lon="6.583438">
        <ele>38.025173</ele>
        <time>2026-05-04T15:20:44.332Z</time>
      </trkpt>
      <trkpt lat="53.230868" lon="6.583565">
        <ele>38.260362</ele>
        <time>2026-05-04T15:20:46.329Z</time>
      </trkpt>
      <trkpt lat="53.230773" lon="6.583675">
        <ele>38.488146</ele>
        <time>2026-05-04T15:20:48.331Z</time>
      </trkpt>
      <trkpt lat="53.230691" lon="6.583775">
        <ele>38.688216</ele>
        <time>2026-05-04T15:20:50.328Z</time>
      </trkpt>
      <trkpt lat="53.230602" lon="6.583880">
        <ele>38.902931</ele>
        <time>2026-05-04T15:20:52.331Z</time>
      </trkpt>
      <trkpt lat="53.230518" lon="6.583986">
        <ele>39.110386</ele>
        <time>2026-05-04T15:20:54.331Z</time>
      </trkpt>
      <trkpt lat="53.230602" lon="6.584077">
        <ele>39.307680</ele>
        <time>2026-05-04T15:21:03.329Z</time>
      </trkpt>
      <trkpt lat="53.230654" lon="6.584205">
        <ele>39.490162</ele>
        <time>2026-05-04T15:21:08.336Z</time>
      </trkpt>
      <trkpt lat="53.230771" lon="6.584453">
        <ele>39.862648</ele>
        <time>2026-05-04T15:22:32.344Z</time>
      </trkpt>
      <trkpt lat="53.230836" lon="6.584605">
        <ele>40.083005</ele>
        <time>2026-05-04T15:22:37.333Z</time>
      </trkpt>
      <trkpt lat="53.230899" lon="6.584752">
        <ele>40.296271</ele>
        <time>2026-05-04T15:22:42.330Z</time>
      </trkpt>
      <trkpt lat="53.230963" lon="6.584891">
        <ele>40.503134</ele>
        <time>2026-05-04T15:22:48.329Z</time>
      </trkpt>
      <trkpt lat="53.231021" lon="6.585038">
        <ele>40.680513</ele>
        <time>2026-05-04T15:22:55.338Z</time>
      </trkpt>
      <trkpt lat="53.230947" lon="6.585174">
        <ele>40.712162</ele>
        <time>2026-05-04T15:23:01.338Z</time>
      </trkpt>
      <trkpt lat="53.230863" lon="6.585248">
        <ele>40.739480</ele>
        <time>2026-05-04T15:23:04.329Z</time>
      </trkpt>
      <trkpt lat="53.230773" lon="6.585346">
        <ele>40.770386</ele>
        <time>2026-05-04T15:23:08.334Z</time>
      </trkpt>
      <trkpt lat="53.230691" lon="6.585446">
        <ele>40.799592</ele>
        <time>2026-05-04T15:23:13.324Z</time>
      </trkpt>
      <trkpt lat="53.230608" lon="6.585589">
        <ele>40.833892</ele>
        <time>2026-05-04T15:23:18.324Z</time>
      </trkpt>
      <trkpt lat="53.230516" lon="6.585710">
        <ele>40.867576</ele>
        <time>2026-05-04T15:23:21.331Z</time>
      </trkpt>
      <trkpt lat="53.230423" lon="6.585817">
        <ele>40.900061</ele>
        <time>2026-05-04T15:23:24.328Z</time>
      </trkpt>
      <trkpt lat="53.230342" lon="6.585926">
        <ele>40.929983</ele>
        <time>2026-05-04T15:23:27.325Z</time>
      </trkpt>
      <trkpt lat="53.230277" lon="6.586051">
        <ele>40.958496</ele>
        <time>2026-05-04T15:23:30.329Z</time>
      </trkpt>
      <trkpt lat="53.230199" lon="6.586185">
        <ele>40.990682</ele>
        <time>2026-05-04T15:23:34.334Z</time>
      </trkpt>
      <trkpt lat="53.230096" lon="6.586248">
        <ele>41.022237</ele>
        <time>2026-05-04T15:25:00.336Z</time>
      </trkpt>
      <trkpt lat="53.230031" lon="6.586401">
        <ele>41.054545</ele>
        <time>2026-05-04T15:25:04.344Z</time>
      </trkpt>
      <trkpt lat="53.230078" lon="6.586607">
        <ele>41.092508</ele>
        <time>2026-05-04T15:25:07.344Z</time>
      </trkpt>
      <trkpt lat="53.230152" lon="6.586793">
        <ele>41.130967</ele>
        <time>2026-05-04T15:25:10.330Z</time>
      </trkpt>
      <trkpt lat="53.230224" lon="6.586951">
        <ele>41.165163</ele>
        <time>2026-05-04T15:25:13.333Z</time>
      </trkpt>
      <trkpt lat="53.230310" lon="6.587083">
        <ele>41.187164</ele>
        <time>2026-05-04T15:25:16.333Z</time>
      </trkpt>
      <trkpt lat="53.230373" lon="6.587244">
        <ele>41.156267</ele>
        <time>2026-05-04T15:25:19.332Z</time>
      </trkpt>
      <trkpt lat="53.230418" lon="6.587402">
        <ele>41.128161</ele>
        <time>2026-05-04T15:25:22.328Z</time>
      </trkpt>
      <trkpt lat="53.230486" lon="6.587505">
        <ele>41.103529</ele>
        <time>2026-05-04T15:25:26.328Z</time>
      </trkpt>
      <trkpt lat="53.230579" lon="6.587550">
        <ele>41.077547</ele>
        <time>2026-05-04T15:25:31.332Z</time>
      </trkpt>
      <trkpt lat="53.230477" lon="6.587487">
        <ele>41.048364</ele>
        <time>2026-05-04T15:26:26.330Z</time>
      </trkpt>
      <trkpt lat="53.230382" lon="6.587501">
        <ele>41.022772</ele>
        <time>2026-05-04T15:26:29.331Z</time>
      </trkpt>
      <trkpt lat="53.230270" lon="6.587609">
        <ele>40.988069</ele>
        <time>2026-05-04T15:26:32.340Z</time>
      </trkpt>
      <trkpt lat="53.230187" lon="6.587698">
        <ele>40.961603</ele>
        <time>2026-05-04T15:26:34.340Z</time>
      </trkpt>
      <trkpt lat="53.230100" lon="6.587769">
        <ele>40.935620</ele>
        <time>2026-05-04T15:26:36.330Z</time>
      </trkpt>
      <trkpt lat="53.229999" lon="6.587857">
        <ele>40.905052</ele>
        <time>2026-05-04T15:26:39.328Z</time>
      </trkpt>
      <trkpt lat="53.229880" lon="6.587973">
        <ele>40.868079</ele>
        <time>2026-05-04T15:26:42.329Z</time>
      </trkpt>
      <trkpt lat="53.229806" lon="6.588071">
        <ele>40.842738</ele>
        <time>2026-05-04T15:26:44.331Z</time>
      </trkpt>
      <trkpt lat="53.229685" lon="6.588191">
        <ele>40.804977</ele>
        <time>2026-05-04T15:26:47.336Z</time>
      </trkpt>
      <trkpt lat="53.229572" lon="6.588310">
        <ele>40.769132</ele>
        <time>2026-05-04T15:26:50.335Z</time>
      </trkpt>
      <trkpt lat="53.229489" lon="6.588389">
        <ele>40.743497</ele>
        <time>2026-05-04T15:26:52.329Z</time>
      </trkpt>
      <trkpt lat="53.229414" lon="6.588477">
        <ele>40.718903</ele>
        <time>2026-05-04T15:26:54.328Z</time>
      </trkpt>
      <trkpt lat="53.229306" lon="6.588596">
        <ele>40.723018</ele>
        <time>2026-05-04T15:26:57.330Z</time>
      </trkpt>
      <trkpt lat="53.229188" lon="6.588719">
        <ele>40.741631</ele>
        <time>2026-05-04T15:27:00.329Z</time>
      </trkpt>
      <trkpt lat="53.229107" lon="6.588801">
        <ele>40.754305</ele>
        <time>2026-05-04T15:27:02.331Z</time>
      </trkpt>
      <trkpt lat="53.229022" lon="6.588878">
        <ele>40.767244</ele>
        <time>2026-05-04T15:27:04.332Z</time>
      </trkpt>
      <trkpt lat="53.228931" lon="6.588958">
        <ele>40.781005</ele>
        <time>2026-05-04T15:27:06.341Z</time>
      </trkpt>
      <trkpt lat="53.228850" lon="6.589041">
        <ele>40.793721</ele>
        <time>2026-05-04T15:27:08.333Z</time>
      </trkpt>
      <trkpt lat="53.228772" lon="6.589144">
        <ele>40.807026</ele>
        <time>2026-05-04T15:27:10.330Z</time>
      </trkpt>
      <trkpt lat="53.228698" lon="6.589236">
        <ele>40.819370</ele>
        <time>2026-05-04T15:27:12.330Z</time>
      </trkpt>
      <trkpt lat="53.228620" lon="6.589313">
        <ele>40.831494</ele>
        <time>2026-05-04T15:27:14.333Z</time>
      </trkpt>
      <trkpt lat="53.228532" lon="6.589398">
        <ele>40.845097</ele>
        <time>2026-05-04T15:27:16.341Z</time>
      </trkpt>
      <trkpt lat="53.228438" lon="6.589478">
        <ele>40.859215</ele>
        <time>2026-05-04T15:27:18.325Z</time>
      </trkpt>
      <trkpt lat="53.228349" lon="6.589540">
        <ele>40.872119</ele>
        <time>2026-05-04T15:27:20.327Z</time>
      </trkpt>
      <trkpt lat="53.228252" lon="6.589611">
        <ele>40.886290</ele>
        <time>2026-05-04T15:27:22.330Z</time>
      </trkpt>
      <trkpt lat="53.228162" lon="6.589703">
        <ele>40.900410</ele>
        <time>2026-05-04T15:27:24.330Z</time>
      </trkpt>
      <trkpt lat="53.228074" lon="6.589782">
        <ele>40.913779</ele>
        <time>2026-05-04T15:27:26.326Z</time>
      </trkpt>
      <trkpt lat="53.227983" lon="6.589859">
        <ele>40.927429</ele>
        <time>2026-05-04T15:27:28.328Z</time>
      </trkpt>
      <trkpt lat="53.227897" lon="6.589942">
        <ele>40.940720</ele>
        <time>2026-05-04T15:27:30.326Z</time>
      </trkpt>
      <trkpt lat="53.227806" lon="6.590021">
        <ele>40.931510</ele>
        <time>2026-05-04T15:27:32.327Z</time>
      </trkpt>
      <trkpt lat="53.227721" lon="6.590107">
        <ele>40.861395</ele>
        <time>2026-05-04T15:27:34.327Z</time>
      </trkpt>
      <trkpt lat="53.227639" lon="6.590181">
        <ele>40.795637</ele>
        <time>2026-05-04T15:27:36.328Z</time>
      </trkpt>
      <trkpt lat="53.227561" lon="6.590281">
        <ele>40.726264</ele>
        <time>2026-05-04T15:27:38.335Z</time>
      </trkpt>
      <trkpt lat="53.227501" lon="6.590407">
        <ele>40.658261</ele>
        <time>2026-05-04T15:27:40.327Z</time>
      </trkpt>
      <trkpt lat="53.227455" lon="6.590550">
        <ele>40.589694</ele>
        <time>2026-05-04T15:27:42.327Z</time>
      </trkpt>
      <trkpt lat="53.227422" lon="6.590695">
        <ele>40.524173</ele>
        <time>2026-05-04T15:27:44.328Z</time>
      </trkpt>
      <trkpt lat="53.227413" lon="6.590851">
        <ele>40.457977</ele>
        <time>2026-05-04T15:27:46.336Z</time>
      </trkpt>
      <trkpt lat="53.227440" lon="6.591001">
        <ele>40.391819</ele>
        <time>2026-05-04T15:27:48.327Z</time>
      </trkpt>
      <trkpt lat="53.227494" lon="6.591126">
        <ele>40.326711</ele>
        <time>2026-05-04T15:27:50.330Z</time>
      </trkpt>
      <trkpt lat="53.227532" lon="6.591276">
        <ele>40.257915</ele>
        <time>2026-05-04T15:27:52.325Z</time>
      </trkpt>
      <trkpt lat="53.227568" lon="6.591429">
        <ele>40.188480</ele>
        <time>2026-05-04T15:27:54.334Z</time>
      </trkpt>
      <trkpt lat="53.227610" lon="6.591581">
        <ele>40.117770</ele>
        <time>2026-05-04T15:27:56.330Z</time>
      </trkpt>
      <trkpt lat="53.227662" lon="6.591728">
        <ele>40.045652</ele>
        <time>2026-05-04T15:27:58.333Z</time>
      </trkpt>
      <trkpt lat="53.227724" lon="6.591864">
        <ele>39.973449</ele>
        <time>2026-05-04T15:28:00.332Z</time>
      </trkpt>
      <trkpt lat="53.227786" lon="6.591976">
        <ele>39.909018</ele>
        <time>2026-05-04T15:28:02.324Z</time>
      </trkpt>
      <trkpt lat="53.227847" lon="6.592088">
        <ele>39.845063</ele>
        <time>2026-05-04T15:28:04.327Z</time>
      </trkpt>
      <trkpt lat="53.227906" lon="6.592209">
        <ele>39.779148</ele>
        <time>2026-05-04T15:28:06.338Z</time>
      </trkpt>
      <trkpt lat="53.227956" lon="6.592359">
        <ele>39.706633</ele>
        <time>2026-05-04T15:28:08.328Z</time>
      </trkpt>
      <trkpt lat="53.227966" lon="6.592518">
        <ele>39.711248</ele>
        <time>2026-05-04T15:28:10.331Z</time>
      </trkpt>
      <trkpt lat="53.227940" lon="6.592682">
        <ele>39.760831</ele>
        <time>2026-05-04T15:28:12.332Z</time>
      </trkpt>
      <trkpt lat="53.227896" lon="6.592838">
        <ele>39.811232</ele>
        <time>2026-05-04T15:28:14.328Z</time>
      </trkpt>
      <trkpt lat="53.227832" lon="6.592971">
        <ele>39.861104</ele>
        <time>2026-05-04T15:28:16.327Z</time>
      </trkpt>
      <trkpt lat="53.227747" lon="6.593079">
        <ele>39.913243</ele>
        <time>2026-05-04T15:28:18.340Z</time>
      </trkpt>
      <trkpt lat="53.227659" lon="6.593183">
        <ele>39.965871</ele>
        <time>2026-05-04T15:28:20.339Z</time>
      </trkpt>
      <trkpt lat="53.227568" lon="6.593282">
        <ele>40.018890</ele>
        <time>2026-05-04T15:28:22.323Z</time>
      </trkpt>
      <trkpt lat="53.227485" lon="6.593386">
        <ele>40.069545</ele>
        <time>2026-05-04T15:28:24.329Z</time>
      </trkpt>
      <trkpt lat="53.227399" lon="6.593474">
        <ele>40.118783</ele>
        <time>2026-05-04T15:28:26.328Z</time>
      </trkpt>
      <trkpt lat="53.227314" lon="6.593567">
        <ele>40.168391</ele>
        <time>2026-05-04T15:28:28.329Z</time>
      </trkpt>
      <trkpt lat="53.227228" lon="6.593671">
        <ele>40.220225</ele>
        <time>2026-05-04T15:28:30.336Z</time>
      </trkpt>
      <trkpt lat="53.227143" lon="6.593780">
        <ele>40.272542</ele>
        <time>2026-05-04T15:28:32.329Z</time>
      </trkpt>
      <trkpt lat="53.227057" lon="6.593888">
        <ele>40.325070</ele>
        <time>2026-05-04T15:28:34.329Z</time>
      </trkpt>
      <trkpt lat="53.226972" lon="6.593995">
        <ele>40.377033</ele>
        <time>2026-05-04T15:28:36.330Z</time>
      </trkpt>
      <trkpt lat="53.226880" lon="6.594097">
        <ele>40.430942</ele>
        <time>2026-05-04T15:28:38.330Z</time>
      </trkpt>
      <trkpt lat="53.226802" lon="6.594192">
        <ele>40.478070</ele>
        <time>2026-05-04T15:28:40.327Z</time>
      </trkpt>
      <trkpt lat="53.226715" lon="6.594288">
        <ele>40.528976</ele>
        <time>2026-05-04T15:28:42.335Z</time>
      </trkpt>
      <trkpt lat="53.226629" lon="6.594380">
        <ele>40.547193</ele>
        <time>2026-05-04T15:28:44.334Z</time>
      </trkpt>
      <trkpt lat="53.226538" lon="6.594448">
        <ele>40.514644</ele>
        <time>2026-05-04T15:28:46.335Z</time>
      </trkpt>
      <trkpt lat="53.226455" lon="6.594513">
        <ele>40.484713</ele>
        <time>2026-05-04T15:28:48.328Z</time>
      </trkpt>
      <trkpt lat="53.226376" lon="6.594587">
        <ele>40.455140</ele>
        <time>2026-05-04T15:28:50.338Z</time>
      </trkpt>
      <trkpt lat="53.226299" lon="6.594677">
        <ele>40.424455</ele>
        <time>2026-05-04T15:28:52.332Z</time>
      </trkpt>
      <trkpt lat="53.226271" lon="6.594848">
        <ele>40.389803</ele>
        <time>2026-05-04T15:28:54.332Z</time>
      </trkpt>
      <trkpt lat="53.226262" lon="6.595036">
        <ele>40.352938</ele>
        <time>2026-05-04T15:28:56.327Z</time>
      </trkpt>
      <trkpt lat="53.226243" lon="6.595218">
        <ele>40.316826</ele>
        <time>2026-05-04T15:28:58.331Z</time>
      </trkpt>
      <trkpt lat="53.226218" lon="6.595389">
        <ele>40.282419</ele>
        <time>2026-05-04T15:29:00.333Z</time>
      </trkpt>
      <trkpt lat="53.226186" lon="6.595564">
        <ele>40.246652</ele>
        <time>2026-05-04T15:29:02.331Z</time>
      </trkpt>
      <trkpt lat="53.226142" lon="6.595732">
        <ele>40.210809</ele>
        <time>2026-05-04T15:29:04.331Z</time>
      </trkpt>
      <trkpt lat="53.226099" lon="6.595898">
        <ele>40.175454</ele>
        <time>2026-05-04T15:29:06.327Z</time>
      </trkpt>
      <trkpt lat="53.226036" lon="6.596051">
        <ele>40.139156</ele>
        <time>2026-05-04T15:29:08.328Z</time>
      </trkpt>
      <trkpt lat="53.225993" lon="6.596213">
        <ele>40.104518</ele>
        <time>2026-05-04T15:29:10.332Z</time>
      </trkpt>
      <trkpt lat="53.225985" lon="6.596398">
        <ele>40.068262</ele>
        <time>2026-05-04T15:29:12.330Z</time>
      </trkpt>
      <trkpt lat="53.225999" lon="6.596575">
        <ele>40.033363</ele>
        <time>2026-05-04T15:29:14.333Z</time>
      </trkpt>
      <trkpt lat="53.226028" lon="6.596788">
        <ele>39.990666</ele>
        <time>2026-05-04T15:29:17.340Z</time>
      </trkpt>
      <trkpt lat="53.226052" lon="6.597148">
        <ele>39.988087</ele>
        <time>2026-05-04T15:30:19.330Z</time>
      </trkpt>
      <trkpt lat="53.226027" lon="6.597352">
        <ele>40.000037</ele>
        <time>2026-05-04T15:30:22.331Z</time>
      </trkpt>
      <trkpt lat="53.225962" lon="6.597470">
        <ele>40.009240</ele>
        <time>2026-05-04T15:30:24.330Z</time>
      </trkpt>
      <trkpt lat="53.225876" lon="6.597623">
        <ele>40.021285</ele>
        <time>2026-05-04T15:30:27.330Z</time>
      </trkpt>
      <trkpt lat="53.225814" lon="6.597775">
        <ele>40.031841</ele>
        <time>2026-05-04T15:30:30.328Z</time>
      </trkpt>
      <trkpt lat="53.225781" lon="6.597933">
        <ele>40.041445</ele>
        <time>2026-05-04T15:30:33.330Z</time>
      </trkpt>
      <trkpt lat="53.225705" lon="6.598097">
        <ele>40.053348</ele>
        <time>2026-05-04T15:30:36.331Z</time>
      </trkpt>
      <trkpt lat="53.225655" lon="6.598241">
        <ele>40.062902</ele>
        <time>2026-05-04T15:30:38.331Z</time>
      </trkpt>
      <trkpt lat="53.225587" lon="6.598363">
        <ele>40.072469</ele>
        <time>2026-05-04T15:30:40.328Z</time>
      </trkpt>
      <trkpt lat="53.225515" lon="6.598497">
        <ele>40.082803</ele>
        <time>2026-05-04T15:30:42.329Z</time>
      </trkpt>
      <trkpt lat="53.225456" lon="6.598617">
        <ele>40.091715</ele>
        <time>2026-05-04T15:30:44.323Z</time>
      </trkpt>
      <trkpt lat="53.225399" lon="6.598735">
        <ele>40.100417</ele>
        <time>2026-05-04T15:30:46.327Z</time>
      </trkpt>
      <trkpt lat="53.225319" lon="6.598886">
        <ele>40.111990</ele>
        <time>2026-05-04T15:30:49.330Z</time>
      </trkpt>
      <trkpt lat="53.225252" lon="6.599054">
        <ele>40.123575</ele>
        <time>2026-05-04T15:30:52.328Z</time>
      </trkpt>
      <trkpt lat="53.225188" lon="6.599202">
        <ele>40.134054</ele>
        <time>2026-05-04T15:30:55.328Z</time>
      </trkpt>
      <trkpt lat="53.225113" lon="6.599366">
        <ele>40.144684</ele>
        <time>2026-05-04T15:30:58.333Z</time>
      </trkpt>
      <trkpt lat="53.225058" lon="6.599486">
        <ele>40.141178</ele>
        <time>2026-05-04T15:31:00.334Z</time>
      </trkpt>
      <trkpt lat="53.224992" lon="6.599673">
        <ele>40.136143</ele>
        <time>2026-05-04T15:31:03.330Z</time>
      </trkpt>
      <trkpt lat="53.224977" lon="6.599886">
        <ele>40.131169</ele>
        <time>2026-05-04T15:31:06.332Z</time>
      </trkpt>
      <trkpt lat="53.225061" lon="6.600075">
        <ele>40.125709</ele>
        <time>2026-05-04T15:31:09.329Z</time>
      </trkpt>
      <trkpt lat="53.225109" lon="6.600214">
        <ele>40.121987</ele>
        <time>2026-05-04T15:31:11.332Z</time>
      </trkpt>
      <trkpt lat="53.225147" lon="6.600363">
        <ele>40.118230</ele>
        <time>2026-05-04T15:31:13.332Z</time>
      </trkpt>
      <trkpt lat="53.225194" lon="6.600556">
        <ele>40.113397</ele>
        <time>2026-05-04T15:31:16.331Z</time>
      </trkpt>
      <trkpt lat="53.225246" lon="6.600755">
        <ele>40.108361</ele>
        <time>2026-05-04T15:31:19.328Z</time>
      </trkpt>
      <trkpt lat="53.225275" lon="6.600902">
        <ele>40.104771</ele>
        <time>2026-05-04T15:31:21.330Z</time>
      </trkpt>
      <trkpt lat="53.225310" lon="6.601063">
        <ele>40.100798</ele>
        <time>2026-05-04T15:31:23.328Z</time>
      </trkpt>
      <trkpt lat="53.225356" lon="6.601220">
        <ele>40.096743</ele>
        <time>2026-05-04T15:31:25.330Z</time>
      </trkpt>
      <trkpt lat="53.225393" lon="6.601369">
        <ele>40.093002</ele>
        <time>2026-05-04T15:31:27.330Z</time>
      </trkpt>
      <trkpt lat="53.225439" lon="6.601573">
        <ele>40.087946</ele>
        <time>2026-05-04T15:31:30.330Z</time>
      </trkpt>
      <trkpt lat="53.225480" lon="6.601788">
        <ele>40.082712</ele>
        <time>2026-05-04T15:31:33.330Z</time>
      </trkpt>
      <trkpt lat="53.225509" lon="6.601934">
        <ele>40.079144</ele>
        <time>2026-05-04T15:31:35.328Z</time>
      </trkpt>
      <trkpt lat="53.225539" lon="6.602077">
        <ele>40.075629</ele>
        <time>2026-05-04T15:31:37.328Z</time>
      </trkpt>
      <trkpt lat="53.225576" lon="6.602218">
        <ele>40.056649</ele>
        <time>2026-05-04T15:31:39.329Z</time>
      </trkpt>
      <trkpt lat="53.225616" lon="6.602369">
        <ele>40.034869</ele>
        <time>2026-05-04T15:31:41.329Z</time>
      </trkpt>
      <trkpt lat="53.225649" lon="6.602524">
        <ele>40.013170</ele>
        <time>2026-05-04T15:31:43.327Z</time>
      </trkpt>
      <trkpt lat="53.225687" lon="6.602674">
        <ele>39.991686</ele>
        <time>2026-05-04T15:31:45.328Z</time>
      </trkpt>
      <trkpt lat="53.225723" lon="6.602812">
        <ele>39.971831</ele>
        <time>2026-05-04T15:31:47.344Z</time>
      </trkpt>
      <trkpt lat="53.225769" lon="6.603015">
        <ele>39.943201</ele>
        <time>2026-05-04T15:31:50.327Z</time>
      </trkpt>
      <trkpt lat="53.225801" lon="6.603159">
        <ele>39.922940</ele>
        <time>2026-05-04T15:31:52.334Z</time>
      </trkpt>
      <trkpt lat="53.225842" lon="6.603299">
        <ele>39.902383</ele>
        <time>2026-05-04T15:31:54.330Z</time>
      </trkpt>
      <trkpt lat="53.225874" lon="6.603450">
        <ele>39.881255</ele>
        <time>2026-05-04T15:31:56.348Z</time>
      </trkpt>
      <trkpt lat="53.225920" lon="6.603667">
        <ele>39.850891</ele>
        <time>2026-05-04T15:31:59.331Z</time>
      </trkpt>
      <trkpt lat="53.225954" lon="6.603814">
        <ele>39.830105</ele>
        <time>2026-05-04T15:32:01.325Z</time>
      </trkpt>
      <trkpt lat="53.225992" lon="6.603965">
        <ele>39.808500</ele>
        <time>2026-05-04T15:32:03.331Z</time>
      </trkpt>
      <trkpt lat="53.226031" lon="6.604121">
        <ele>39.786201</ele>
        <time>2026-05-04T15:32:05.331Z</time>
      </trkpt>
      <trkpt lat="53.226067" lon="6.604318">
        <ele>39.759033</ele>
        <time>2026-05-04T15:32:08.333Z</time>
      </trkpt>
      <trkpt lat="53.226115" lon="6.604522">
        <ele>39.730121</ele>
        <time>2026-05-04T15:32:11.331Z</time>
      </trkpt>
      <trkpt lat="53.226149" lon="6.604663">
        <ele>39.710071</ele>
        <time>2026-05-04T15:32:13.330Z</time>
      </trkpt>
      <trkpt lat="53.226187" lon="6.604813">
        <ele>39.688588</ele>
        <time>2026-05-04T15:32:15.331Z</time>
      </trkpt>
      <trkpt lat="53.226211" lon="6.604962">
        <ele>39.668034</ele>
        <time>2026-05-04T15:32:17.329Z</time>
      </trkpt>
      <trkpt lat="53.226248" lon="6.605099">
        <ele>39.647842</ele>
        <time>2026-05-04T15:32:19.329Z</time>
      </trkpt>
      <trkpt lat="53.226294" lon="6.605285">
        <ele>39.620804</ele>
        <time>2026-05-04T15:32:22.336Z</time>
      </trkpt>
      <trkpt lat="53.226341" lon="6.605487">
        <ele>39.591687</ele>
        <time>2026-05-04T15:32:25.328Z</time>
      </trkpt>
      <trkpt lat="53.226377" lon="6.605631">
        <ele>39.570721</ele>
        <time>2026-05-04T15:32:27.334Z</time>
      </trkpt>
      <trkpt lat="53.226418" lon="6.605829">
        <ele>39.542573</ele>
        <time>2026-05-04T15:32:30.329Z</time>
      </trkpt>
      <trkpt lat="53.226460" lon="6.606019">
        <ele>39.515361</ele>
        <time>2026-05-04T15:32:33.335Z</time>
      </trkpt>
      <trkpt lat="53.226432" lon="6.606194">
        <ele>39.491025</ele>
        <time>2026-05-04T15:32:36.330Z</time>
      </trkpt>
      <trkpt lat="53.226391" lon="6.606379">
        <ele>39.464521</ele>
        <time>2026-05-04T15:32:39.334Z</time>
      </trkpt>
      <trkpt lat="53.226432" lon="6.606573">
        <ele>39.436880</ele>
        <time>2026-05-04T15:32:42.327Z</time>
      </trkpt>
      <trkpt lat="53.226527" lon="6.606640">
        <ele>39.413738</ele>
        <time>2026-05-04T15:32:44.334Z</time>
      </trkpt>
      <trkpt lat="53.226633" lon="6.606730">
        <ele>39.387052</ele>
        <time>2026-05-04T15:32:47.330Z</time>
      </trkpt>
      <trkpt lat="53.226690" lon="6.606848">
        <ele>39.366681</ele>
        <time>2026-05-04T15:32:49.332Z</time>
      </trkpt>
      <trkpt lat="53.226732" lon="6.607061">
        <ele>39.336552</ele>
        <time>2026-05-04T15:32:52.329Z</time>
      </trkpt>
      <trkpt lat="53.226790" lon="6.607251">
        <ele>39.307898</ele>
        <time>2026-05-04T15:32:55.332Z</time>
      </trkpt>
      <trkpt lat="53.226819" lon="6.607470">
        <ele>39.277764</ele>
        <time>2026-05-04T15:32:58.333Z</time>
      </trkpt>
      <trkpt lat="53.226849" lon="6.607621">
        <ele>39.297755</ele>
        <time>2026-05-04T15:33:00.332Z</time>
      </trkpt>
      <trkpt lat="53.226883" lon="6.607763">
        <ele>39.321919</ele>
        <time>2026-05-04T15:33:02.331Z</time>
      </trkpt>
      <trkpt lat="53.226922" lon="6.607951">
        <ele>39.353356</ele>
        <time>2026-05-04T15:33:05.330Z</time>
      </trkpt>
      <trkpt lat="53.226962" lon="6.608098">
        <ele>39.378868</ele>
        <time>2026-05-04T15:33:07.333Z</time>
      </trkpt>
      <trkpt lat="53.226992" lon="6.608253">
        <ele>39.404606</ele>
        <time>2026-05-04T15:33:09.339Z</time>
      </trkpt>
      <trkpt lat="53.227047" lon="6.608456">
        <ele>39.439812</ele>
        <time>2026-05-04T15:33:12.334Z</time>
      </trkpt>
      <trkpt lat="53.227078" lon="6.608601">
        <ele>39.464138</ele>
        <time>2026-05-04T15:33:14.329Z</time>
      </trkpt>
      <trkpt lat="53.227110" lon="6.608746">
        <ele>39.488555</ele>
        <time>2026-05-04T15:33:16.328Z</time>
      </trkpt>
      <trkpt lat="53.227154" lon="6.608955">
        <ele>39.523559</ele>
        <time>2026-05-04T15:33:19.328Z</time>
      </trkpt>
      <trkpt lat="53.227206" lon="6.609162">
        <ele>39.559028</ele>
        <time>2026-05-04T15:33:22.327Z</time>
      </trkpt>
      <trkpt lat="53.227260" lon="6.609362">
        <ele>39.593692</ele>
        <time>2026-05-04T15:33:25.330Z</time>
      </trkpt>
      <trkpt lat="53.227240" lon="6.609561">
        <ele>39.625574</ele>
        <time>2026-05-04T15:33:28.330Z</time>
      </trkpt>
      <trkpt lat="53.227134" lon="6.609676">
        <ele>39.658932</ele>
        <time>2026-05-04T15:33:31.327Z</time>
      </trkpt>
      <trkpt lat="53.227041" lon="6.609733">
        <ele>39.685078</ele>
        <time>2026-05-04T15:33:33.328Z</time>
      </trkpt>
      <trkpt lat="53.226950" lon="6.609789">
        <ele>39.710673</ele>
        <time>2026-05-04T15:33:35.327Z</time>
      </trkpt>
      <trkpt lat="53.226862" lon="6.609858">
        <ele>39.736330</ele>
        <time>2026-05-04T15:33:37.328Z</time>
      </trkpt>
      <trkpt lat="53.226775" lon="6.609919">
        <ele>39.709957</ele>
        <time>2026-05-04T15:33:39.335Z</time>
      </trkpt>
      <trkpt lat="53.226682" lon="6.609968">
        <ele>39.617065</ele>
        <time>2026-05-04T15:33:41.337Z</time>
      </trkpt>
      <trkpt lat="53.226593" lon="6.610015">
        <ele>39.528149</ele>
        <time>2026-05-04T15:33:43.333Z</time>
      </trkpt>
      <trkpt lat="53.226465" lon="6.610097">
        <ele>39.397559</ele>
        <time>2026-05-04T15:33:46.328Z</time>
      </trkpt>
      <trkpt lat="53.226347" lon="6.610220">
        <ele>39.265064</ele>
        <time>2026-05-04T15:33:49.330Z</time>
      </trkpt>
      <trkpt lat="53.226280" lon="6.610325">
        <ele>39.177550</ele>
        <time>2026-05-04T15:33:51.333Z</time>
      </trkpt>
      <trkpt lat="53.226231" lon="6.610529">
        <ele>39.052200</ele>
        <time>2026-05-04T15:33:54.328Z</time>
      </trkpt>
      <trkpt lat="53.226217" lon="6.610732">
        <ele>38.935670</ele>
        <time>2026-05-04T15:33:57.333Z</time>
      </trkpt>
      <trkpt lat="53.226247" lon="6.610945">
        <ele>38.810886</ele>
        <time>2026-05-04T15:34:00.330Z</time>
      </trkpt>
      <trkpt lat="53.226282" lon="6.611091">
        <ele>38.721199</ele>
        <time>2026-05-04T15:34:02.331Z</time>
      </trkpt>
      <trkpt lat="53.226342" lon="6.611280">
        <ele>38.599202</ele>
        <time>2026-05-04T15:34:05.328Z</time>
      </trkpt>
      <trkpt lat="53.226399" lon="6.611482">
        <ele>38.471852</ele>
        <time>2026-05-04T15:34:08.337Z</time>
      </trkpt>
      <trkpt lat="53.226440" lon="6.611641">
        <ele>38.373126</ele>
        <time>2026-05-04T15:34:10.328Z</time>
      </trkpt>
      <trkpt lat="53.226479" lon="6.611812">
        <ele>38.268773</ele>
        <time>2026-05-04T15:34:12.328Z</time>
      </trkpt>
      <trkpt lat="53.226520" lon="6.611964">
        <ele>38.173700</ele>
        <time>2026-05-04T15:34:14.330Z</time>
      </trkpt>
      <trkpt lat="53.226557" lon="6.612120">
        <ele>38.078011</ele>
        <time>2026-05-04T15:34:16.330Z</time>
      </trkpt>
      <trkpt lat="53.226606" lon="6.612295">
        <ele>38.075840</ele>
        <time>2026-05-04T15:34:19.335Z</time>
      </trkpt>
      <trkpt lat="53.226652" lon="6.612437">
        <ele>38.128064</ele>
        <time>2026-05-04T15:34:21.335Z</time>
      </trkpt>
      <trkpt lat="53.226693" lon="6.612588">
        <ele>38.181694</ele>
        <time>2026-05-04T15:34:23.328Z</time>
      </trkpt>
      <trkpt lat="53.226739" lon="6.612748">
        <ele>38.239105</ele>
        <time>2026-05-04T15:34:25.327Z</time>
      </trkpt>
      <trkpt lat="53.226781" lon="6.612898">
        <ele>38.292668</ele>
        <time>2026-05-04T15:34:27.334Z</time>
      </trkpt>
      <trkpt lat="53.226825" lon="6.613051">
        <ele>38.347570</ele>
        <time>2026-05-04T15:34:29.328Z</time>
      </trkpt>
      <trkpt lat="53.226863" lon="6.613211">
        <ele>38.403247</ele>
        <time>2026-05-04T15:34:31.331Z</time>
      </trkpt>
      <trkpt lat="53.226907" lon="6.613361">
        <ele>38.457276</ele>
        <time>2026-05-04T15:34:33.326Z</time>
      </trkpt>
      <trkpt lat="53.226949" lon="6.613511">
        <ele>38.510839</ele>
        <time>2026-05-04T15:34:35.332Z</time>
      </trkpt>
      <trkpt lat="53.226994" lon="6.613672">
        <ele>38.568311</ele>
        <time>2026-05-04T15:34:37.329Z</time>
      </trkpt>
      <trkpt lat="53.227036" lon="6.613830">
        <ele>38.624228</ele>
        <time>2026-05-04T15:34:39.326Z</time>
      </trkpt>
      <trkpt lat="53.227079" lon="6.614000">
        <ele>38.683921</ele>
        <time>2026-05-04T15:34:41.325Z</time>
      </trkpt>
      <trkpt lat="53.227123" lon="6.614151">
        <ele>38.738241</ele>
        <time>2026-05-04T15:34:43.333Z</time>
      </trkpt>
      <trkpt lat="53.227161" lon="6.614297">
        <ele>38.789735</ele>
        <time>2026-05-04T15:34:45.327Z</time>
      </trkpt>
      <trkpt lat="53.227197" lon="6.614452">
        <ele>38.843511</ele>
        <time>2026-05-04T15:34:47.326Z</time>
      </trkpt>
      <trkpt lat="53.227231" lon="6.614613">
        <ele>38.898731</ele>
        <time>2026-05-04T15:34:49.328Z</time>
      </trkpt>
      <trkpt lat="53.227270" lon="6.614763">
        <ele>38.951627</ele>
        <time>2026-05-04T15:34:51.326Z</time>
      </trkpt>
      <trkpt lat="53.227306" lon="6.614932">
        <ele>39.010232</ele>
        <time>2026-05-04T15:34:53.327Z</time>
      </trkpt>
      <trkpt lat="53.227350" lon="6.615070">
        <ele>39.088179</ele>
        <time>2026-05-04T15:34:55.327Z</time>
      </trkpt>
      <trkpt lat="53.227394" lon="6.615226">
        <ele>39.174149</ele>
        <time>2026-05-04T15:34:57.330Z</time>
      </trkpt>
      <trkpt lat="53.227435" lon="6.615371">
        <ele>39.254094</ele>
        <time>2026-05-04T15:34:59.331Z</time>
      </trkpt>
      <trkpt lat="53.227471" lon="6.615517">
        <ele>39.332811</ele>
        <time>2026-05-04T15:35:01.326Z</time>
      </trkpt>
      <trkpt lat="53.227513" lon="6.615658">
        <ele>39.411325</ele>
        <time>2026-05-04T15:35:03.330Z</time>
      </trkpt>
      <trkpt lat="53.227551" lon="6.615805">
        <ele>39.491149</ele>
        <time>2026-05-04T15:35:05.330Z</time>
      </trkpt>
      <trkpt lat="53.227592" lon="6.615961">
        <ele>39.576084</ele>
        <time>2026-05-04T15:35:07.329Z</time>
      </trkpt>
      <trkpt lat="53.227632" lon="6.616101">
        <ele>39.653419</ele>
        <time>2026-05-04T15:35:09.326Z</time>
      </trkpt>
      <trkpt lat="53.227675" lon="6.616252">
        <ele>39.736780</ele>
        <time>2026-05-04T15:35:11.330Z</time>
      </trkpt>
      <trkpt lat="53.227714" lon="6.616403">
        <ele>39.818765</ele>
        <time>2026-05-04T15:35:13.329Z</time>
      </trkpt>
      <trkpt lat="53.227752" lon="6.616550">
        <ele>39.898588</ele>
        <time>2026-05-04T15:35:15.329Z</time>
      </trkpt>
      <trkpt lat="53.227788" lon="6.616690">
        <ele>39.974548</ele>
        <time>2026-05-04T15:35:17.338Z</time>
      </trkpt>
      <trkpt lat="53.227831" lon="6.616843">
        <ele>40.058810</ele>
        <time>2026-05-04T15:35:19.328Z</time>
      </trkpt>
      <trkpt lat="53.227869" lon="6.616995">
        <ele>40.140928</ele>
        <time>2026-05-04T15:35:21.329Z</time>
      </trkpt>
      <trkpt lat="53.227912" lon="6.617147">
        <ele>40.224739</ele>
        <time>2026-05-04T15:35:23.331Z</time>
      </trkpt>
      <trkpt lat="53.227958" lon="6.617304">
        <ele>40.311878</ele>
        <time>2026-05-04T15:35:25.328Z</time>
      </trkpt>
      <trkpt lat="53.227998" lon="6.617449">
        <ele>40.391470</ele>
        <time>2026-05-04T15:35:27.330Z</time>
      </trkpt>
      <trkpt lat="53.228042" lon="6.617607">
        <ele>40.478342</ele>
        <time>2026-05-04T15:35:29.330Z</time>
      </trkpt>
      <trkpt lat="53.228085" lon="6.617752">
        <ele>40.494804</ele>
        <time>2026-05-04T15:35:31.328Z</time>
      </trkpt>
      <trkpt lat="53.228121" lon="6.617900">
        <ele>40.477212</ele>
        <time>2026-05-04T15:35:33.326Z</time>
      </trkpt>
      <trkpt lat="53.228165" lon="6.618051">
        <ele>40.458719</ele>
        <time>2026-05-04T15:35:35.329Z</time>
      </trkpt>
      <trkpt lat="53.228202" lon="6.618208">
        <ele>40.440138</ele>
        <time>2026-05-04T15:35:37.328Z</time>
      </trkpt>
      <trkpt lat="53.228240" lon="6.618351">
        <ele>40.422909</ele>
        <time>2026-05-04T15:35:39.328Z</time>
      </trkpt>
      <trkpt lat="53.228285" lon="6.618490">
        <ele>40.405508</ele>
        <time>2026-05-04T15:35:41.329Z</time>
      </trkpt>
      <trkpt lat="53.228324" lon="6.618642">
        <ele>40.387297</ele>
        <time>2026-05-04T15:35:43.328Z</time>
      </trkpt>
      <trkpt lat="53.228364" lon="6.618789">
        <ele>40.369515</ele>
        <time>2026-05-04T15:35:45.333Z</time>
      </trkpt>
      <trkpt lat="53.228404" lon="6.618944">
        <ele>40.350928</ele>
        <time>2026-05-04T15:35:47.329Z</time>
      </trkpt>
      <trkpt lat="53.228454" lon="6.619098">
        <ele>40.331636</ele>
        <time>2026-05-04T15:35:49.333Z</time>
      </trkpt>
      <trkpt lat="53.228493" lon="6.619260">
        <ele>40.312408</ele>
        <time>2026-05-04T15:35:51.332Z</time>
      </trkpt>
      <trkpt lat="53.228538" lon="6.619417">
        <ele>40.293240</ele>
        <time>2026-05-04T15:35:53.329Z</time>
      </trkpt>
      <trkpt lat="53.228574" lon="6.619573">
        <ele>40.274829</ele>
        <time>2026-05-04T15:35:55.332Z</time>
      </trkpt>
      <trkpt lat="53.228617" lon="6.619723">
        <ele>40.256515</ele>
        <time>2026-05-04T15:35:57.331Z</time>
      </trkpt>
      <trkpt lat="53.228656" lon="6.619866">
        <ele>40.239210</ele>
        <time>2026-05-04T15:35:59.328Z</time>
      </trkpt>
      <trkpt lat="53.228690" lon="6.620011">
        <ele>40.222062</ele>
        <time>2026-05-04T15:36:01.334Z</time>
      </trkpt>
      <trkpt lat="53.228730" lon="6.620161">
        <ele>40.203979</ele>
        <time>2026-05-04T15:36:03.328Z</time>
      </trkpt>
      <trkpt lat="53.228772" lon="6.620307">
        <ele>40.186142</ele>
        <time>2026-05-04T15:36:05.334Z</time>
      </trkpt>
      <trkpt lat="53.228817" lon="6.620457">
        <ele>40.173711</ele>
        <time>2026-05-04T15:36:07.331Z</time>
      </trkpt>
      <trkpt lat="53.228858" lon="6.620601">
        <ele>40.169610</ele>
        <time>2026-05-04T15:36:09.331Z</time>
      </trkpt>
      <trkpt lat="53.228893" lon="6.620741">
        <ele>40.165708</ele>
        <time>2026-05-04T15:36:11.331Z</time>
      </trkpt>
      <trkpt lat="53.228932" lon="6.620883">
        <ele>40.161690</ele>
        <time>2026-05-04T15:36:13.330Z</time>
      </trkpt>
      <trkpt lat="53.228967" lon="6.621028">
        <ele>40.157670</ele>
        <time>2026-05-04T15:36:15.333Z</time>
      </trkpt>
      <trkpt lat="53.229009" lon="6.621170">
        <ele>40.153596</ele>
        <time>2026-05-04T15:36:17.330Z</time>
      </trkpt>
      <trkpt lat="53.229046" lon="6.621317">
        <ele>40.149495</ele>
        <time>2026-05-04T15:36:19.331Z</time>
      </trkpt>
      <trkpt lat="53.229089" lon="6.621468">
        <ele>40.145195</ele>
        <time>2026-05-04T15:36:21.329Z</time>
      </trkpt>
      <trkpt lat="53.229127" lon="6.621617">
        <ele>40.141030</ele>
        <time>2026-05-04T15:36:23.335Z</time>
      </trkpt>
      <trkpt lat="53.229181" lon="6.621824">
        <ele>40.135223</ele>
        <time>2026-05-04T15:36:26.342Z</time>
      </trkpt>
      <trkpt lat="53.229217" lon="6.621966">
        <ele>40.131257</ele>
        <time>2026-05-04T15:36:28.335Z</time>
      </trkpt>
      <trkpt lat="53.229264" lon="6.622097">
        <ele>40.127329</ele>
        <time>2026-05-04T15:36:30.331Z</time>
      </trkpt>
      <trkpt lat="53.229303" lon="6.622252">
        <ele>40.123005</ele>
        <time>2026-05-04T15:36:32.329Z</time>
      </trkpt>
      <trkpt lat="53.229340" lon="6.622397">
        <ele>40.118952</ele>
        <time>2026-05-04T15:36:34.335Z</time>
      </trkpt>
      <trkpt lat="53.229381" lon="6.622541">
        <ele>40.114851</ele>
        <time>2026-05-04T15:36:36.338Z</time>
      </trkpt>
      <trkpt lat="53.229419" lon="6.622705">
        <ele>40.110328</ele>
        <time>2026-05-04T15:36:38.329Z</time>
      </trkpt>
      <trkpt lat="53.229461" lon="6.622852">
        <ele>40.106140</ele>
        <time>2026-05-04T15:36:40.334Z</time>
      </trkpt>
      <trkpt lat="53.229500" lon="6.623001">
        <ele>40.101957</ele>
        <time>2026-05-04T15:36:42.329Z</time>
      </trkpt>
      <trkpt lat="53.229541" lon="6.623153">
        <ele>40.105053</ele>
        <time>2026-05-04T15:36:44.325Z</time>
      </trkpt>
      <trkpt lat="53.229589" lon="6.623293">
        <ele>40.151004</ele>
        <time>2026-05-04T15:36:46.326Z</time>
      </trkpt>
      <trkpt lat="53.229630" lon="6.623443">
        <ele>40.197968</ele>
        <time>2026-05-04T15:36:48.335Z</time>
      </trkpt>
      <trkpt lat="53.229671" lon="6.623610">
        <ele>40.249376</ele>
        <time>2026-05-04T15:36:50.326Z</time>
      </trkpt>
      <trkpt lat="53.229710" lon="6.623764">
        <ele>40.297000</ele>
        <time>2026-05-04T15:36:52.334Z</time>
      </trkpt>
      <trkpt lat="53.229754" lon="6.623901">
        <ele>40.341279</ele>
        <time>2026-05-04T15:36:54.333Z</time>
      </trkpt>
      <trkpt lat="53.229790" lon="6.624043">
        <ele>40.385200</ele>
        <time>2026-05-04T15:36:56.339Z</time>
      </trkpt>
      <trkpt lat="53.229821" lon="6.624190">
        <ele>40.429588</ele>
        <time>2026-05-04T15:36:58.341Z</time>
      </trkpt>
      <trkpt lat="53.229865" lon="6.624344">
        <ele>40.478188</ele>
        <time>2026-05-04T15:37:00.332Z</time>
      </trkpt>
      <trkpt lat="53.229904" lon="6.624493">
        <ele>40.524504</ele>
        <time>2026-05-04T15:37:02.333Z</time>
      </trkpt>
      <trkpt lat="53.229945" lon="6.624640">
        <ele>40.570692</ele>
        <time>2026-05-04T15:37:04.330Z</time>
      </trkpt>
      <trkpt lat="53.229982" lon="6.624785">
        <ele>40.615585</ele>
        <time>2026-05-04T15:37:06.339Z</time>
      </trkpt>
      <trkpt lat="53.230022" lon="6.624939">
        <ele>40.663396</ele>
        <time>2026-05-04T15:37:08.337Z</time>
      </trkpt>
      <trkpt lat="53.230064" lon="6.625079">
        <ele>40.707996</ele>
        <time>2026-05-04T15:37:10.330Z</time>
      </trkpt>
      <trkpt lat="53.230107" lon="6.625223">
        <ele>40.753827</ele>
        <time>2026-05-04T15:37:12.338Z</time>
      </trkpt>
      <trkpt lat="53.230148" lon="6.625372">
        <ele>40.800532</ele>
        <time>2026-05-04T15:37:14.329Z</time>
      </trkpt>
      <trkpt lat="53.230187" lon="6.625525">
        <ele>40.847893</ele>
        <time>2026-05-04T15:37:16.326Z</time>
      </trkpt>
      <trkpt lat="53.230230" lon="6.625679">
        <ele>40.896290</ele>
        <time>2026-05-04T15:37:18.334Z</time>
      </trkpt>
      <trkpt lat="53.230274" lon="6.625831">
        <ele>40.944376</ele>
        <time>2026-05-04T15:37:20.330Z</time>
      </trkpt>
      <trkpt lat="53.230315" lon="6.625985">
        <ele>40.926515</ele>
        <time>2026-05-04T15:37:22.336Z</time>
      </trkpt>
      <trkpt lat="53.230356" lon="6.626137">
        <ele>40.892414</ele>
        <time>2026-05-04T15:37:24.330Z</time>
      </trkpt>
      <trkpt lat="53.230396" lon="6.626281">
        <ele>40.859943</ele>
        <time>2026-05-04T15:37:26.336Z</time>
      </trkpt>
      <trkpt lat="53.230436" lon="6.626426">
        <ele>40.827286</ele>
        <time>2026-05-04T15:37:28.333Z</time>
      </trkpt>
      <trkpt lat="53.230477" lon="6.626579">
        <ele>40.792999</ele>
        <time>2026-05-04T15:37:30.335Z</time>
      </trkpt>
      <trkpt lat="53.230516" lon="6.626732">
        <ele>40.758984</ele>
        <time>2026-05-04T15:37:32.336Z</time>
      </trkpt>
      <trkpt lat="53.230563" lon="6.626864">
        <ele>40.727570</ele>
        <time>2026-05-04T15:37:34.335Z</time>
      </trkpt>
      <trkpt lat="53.230607" lon="6.627026">
        <ele>40.691183</ele>
        <time>2026-05-04T15:37:36.334Z</time>
      </trkpt>
      <trkpt lat="53.230655" lon="6.627176">
        <ele>40.656392</ele>
        <time>2026-05-04T15:37:38.333Z</time>
      </trkpt>
      <trkpt lat="53.230688" lon="6.627330">
        <ele>40.622936</ele>
        <time>2026-05-04T15:37:40.333Z</time>
      </trkpt>
      <trkpt lat="53.230732" lon="6.627485">
        <ele>40.587848</ele>
        <time>2026-05-04T15:37:42.342Z</time>
      </trkpt>
      <trkpt lat="53.230768" lon="6.627627">
        <ele>40.556305</ele>
        <time>2026-05-04T15:37:44.334Z</time>
      </trkpt>
      <trkpt lat="53.230808" lon="6.627776">
        <ele>40.522904</ele>
        <time>2026-05-04T15:37:46.332Z</time>
      </trkpt>
      <trkpt lat="53.230848" lon="6.627937">
        <ele>40.487249</ele>
        <time>2026-05-04T15:37:48.326Z</time>
      </trkpt>
      <trkpt lat="53.230893" lon="6.628079">
        <ele>40.454386</ele>
        <time>2026-05-04T15:37:50.338Z</time>
      </trkpt>
      <trkpt lat="53.230931" lon="6.628227">
        <ele>40.421446</ele>
        <time>2026-05-04T15:37:52.331Z</time>
      </trkpt>
      <trkpt lat="53.230970" lon="6.628379">
        <ele>40.387621</ele>
        <time>2026-05-04T15:37:54.331Z</time>
      </trkpt>
      <trkpt lat="53.231011" lon="6.628530">
        <ele>40.353706</ele>
        <time>2026-05-04T15:37:56.341Z</time>
      </trkpt>
      <trkpt lat="53.231054" lon="6.628672">
        <ele>40.334945</ele>
        <time>2026-05-04T15:37:58.335Z</time>
      </trkpt>
      <trkpt lat="53.231094" lon="6.628822">
        <ele>40.326679</ele>
        <time>2026-05-04T15:38:00.329Z</time>
      </trkpt>
      <trkpt lat="53.231132" lon="6.628976">
        <ele>40.318294</ele>
        <time>2026-05-04T15:38:02.333Z</time>
      </trkpt>
      <trkpt lat="53.231171" lon="6.629125">
        <ele>40.310108</ele>
        <time>2026-05-04T15:38:04.331Z</time>
      </trkpt>
      <trkpt lat="53.231210" lon="6.629267">
        <ele>40.302244</ele>
        <time>2026-05-04T15:38:06.327Z</time>
      </trkpt>
      <trkpt lat="53.231243" lon="6.629414">
        <ele>40.294341</ele>
        <time>2026-05-04T15:38:08.336Z</time>
      </trkpt>
      <trkpt lat="53.231286" lon="6.629560">
        <ele>40.286150</ele>
        <time>2026-05-04T15:38:10.332Z</time>
      </trkpt>
      <trkpt lat="53.231328" lon="6.629707">
        <ele>40.277951</ele>
        <time>2026-05-04T15:38:12.336Z</time>
      </trkpt>
      <trkpt lat="53.231365" lon="6.629852">
        <ele>40.270016</ele>
        <time>2026-05-04T15:38:14.340Z</time>
      </trkpt>
      <trkpt lat="53.231409" lon="6.629994">
        <ele>40.261968</ele>
        <time>2026-05-04T15:38:16.329Z</time>
      </trkpt>
      <trkpt lat="53.231447" lon="6.630136">
        <ele>40.254138</ele>
        <time>2026-05-04T15:38:18.331Z</time>
      </trkpt>
      <trkpt lat="53.231504" lon="6.630343">
        <ele>40.242669</ele>
        <time>2026-05-04T15:38:21.331Z</time>
      </trkpt>
      <trkpt lat="53.231546" lon="6.630481">
        <ele>40.234876</ele>
        <time>2026-05-04T15:38:23.335Z</time>
      </trkpt>
      <trkpt lat="53.231597" lon="6.630663">
        <ele>40.224760</ele>
        <time>2026-05-04T15:38:26.334Z</time>
      </trkpt>
      <trkpt lat="53.231647" lon="6.630846">
        <ele>40.214634</ele>
        <time>2026-05-04T15:38:29.333Z</time>
      </trkpt>
      <trkpt lat="53.231686" lon="6.630996">
        <ele>40.206402</ele>
        <time>2026-05-04T15:38:31.326Z</time>
      </trkpt>
      <trkpt lat="53.231723" lon="6.631146">
        <ele>40.198236</ele>
        <time>2026-05-04T15:38:33.333Z</time>
      </trkpt>
      <trkpt lat="53.231760" lon="6.631292">
        <ele>40.190255</ele>
        <time>2026-05-04T15:38:35.333Z</time>
      </trkpt>
      <trkpt lat="53.231804" lon="6.631435">
        <ele>40.196686</ele>
        <time>2026-05-04T15:38:37.332Z</time>
      </trkpt>
      <trkpt lat="53.231852" lon="6.631630">
        <ele>40.211638</ele>
        <time>2026-05-04T15:38:40.327Z</time>
      </trkpt>
      <trkpt lat="53.231907" lon="6.631836">
        <ele>40.227633</ele>
        <time>2026-05-04T15:38:43.326Z</time>
      </trkpt>
      <trkpt lat="53.231952" lon="6.631973">
        <ele>40.238714</ele>
        <time>2026-05-04T15:38:45.331Z</time>
      </trkpt>
      <trkpt lat="53.231990" lon="6.632117">
        <ele>40.249874</ele>
        <time>2026-05-04T15:38:47.332Z</time>
      </trkpt>
      <trkpt lat="53.232038" lon="6.632313">
        <ele>40.264891</ele>
        <time>2026-05-04T15:38:50.330Z</time>
      </trkpt>
      <trkpt lat="53.232091" lon="6.632488">
        <ele>40.278799</ele>
        <time>2026-05-04T15:38:53.332Z</time>
      </trkpt>
      <trkpt lat="53.232136" lon="6.632660">
        <ele>40.292110</ele>
        <time>2026-05-04T15:38:56.330Z</time>
      </trkpt>
      <trkpt lat="53.232182" lon="6.632836">
        <ele>40.305728</ele>
        <time>2026-05-04T15:38:59.329Z</time>
      </trkpt>
      <trkpt lat="53.232236" lon="6.633037">
        <ele>40.321351</ele>
        <time>2026-05-04T15:39:02.329Z</time>
      </trkpt>
      <trkpt lat="53.232271" lon="6.633175">
        <ele>40.331979</ele>
        <time>2026-05-04T15:39:04.330Z</time>
      </trkpt>
      <trkpt lat="53.232320" lon="6.633366">
        <ele>40.346715</ele>
        <time>2026-05-04T15:39:07.329Z</time>
      </trkpt>
      <trkpt lat="53.232374" lon="6.633556">
        <ele>40.361630</ele>
        <time>2026-05-04T15:39:10.328Z</time>
      </trkpt>
      <trkpt lat="53.232418" lon="6.633735">
        <ele>40.375352</ele>
        <time>2026-05-04T15:39:13.330Z</time>
      </trkpt>
      <trkpt lat="53.232464" lon="6.633890">
        <ele>40.387620</ele>
        <time>2026-05-04T15:39:16.336Z</time>
      </trkpt>
      <trkpt lat="53.232505" lon="6.634034">
        <ele>40.398927</ele>
        <time>2026-05-04T15:39:19.336Z</time>
      </trkpt>
      <trkpt lat="53.232544" lon="6.634176">
        <ele>40.361297</ele>
        <time>2026-05-04T15:39:22.349Z</time>
      </trkpt>
      <trkpt lat="53.232587" lon="6.634311">
        <ele>40.311657</ele>
        <time>2026-05-04T15:39:25.335Z</time>
      </trkpt>
      <trkpt lat="53.232632" lon="6.634456">
        <ele>40.258639</ele>
        <time>2026-05-04T15:39:29.333Z</time>
      </trkpt>
      <trkpt lat="53.232700" lon="6.634580">
        <ele>40.204049</ele>
        <time>2026-05-04T15:39:36.333Z</time>
      </trkpt>
      <trkpt lat="53.232815" lon="6.634512">
        <ele>40.137893</ele>
        <time>2026-05-04T15:39:40.326Z</time>
      </trkpt>
      <trkpt lat="53.232931" lon="6.634424">
        <ele>40.068803</ele>
        <time>2026-05-04T15:39:43.330Z</time>
      </trkpt>
      <trkpt lat="53.233044" lon="6.634342">
        <ele>40.001992</ele>
        <time>2026-05-04T15:39:46.332Z</time>
      </trkpt>
      <trkpt lat="53.233138" lon="6.634287">
        <ele>39.947979</ele>
        <time>2026-05-04T15:39:48.329Z</time>
      </trkpt>
      <trkpt lat="53.233269" lon="6.634247">
        <ele>39.875760</ele>
        <time>2026-05-04T15:39:51.337Z</time>
      </trkpt>
      <trkpt lat="53.233346" lon="6.634337">
        <ele>39.824798</ele>
        <time>2026-05-04T15:39:53.344Z</time>
      </trkpt>
      <trkpt lat="53.233390" lon="6.634491">
        <ele>39.769406</ele>
        <time>2026-05-04T15:39:55.330Z</time>
      </trkpt>
      <trkpt lat="53.233424" lon="6.634645">
        <ele>39.716126</ele>
        <time>2026-05-04T15:39:57.333Z</time>
      </trkpt>
      <trkpt lat="53.233455" lon="6.634790">
        <ele>39.666146</ele>
        <time>2026-05-04T15:39:59.330Z</time>
      </trkpt>
      <trkpt lat="53.233491" lon="6.634931">
        <ele>39.616388</ele>
        <time>2026-05-04T15:40:01.331Z</time>
      </trkpt>
      <trkpt lat="53.233533" lon="6.635126">
        <ele>39.549117</ele>
        <time>2026-05-04T15:40:04.332Z</time>
      </trkpt>
      <trkpt lat="53.233562" lon="6.635293">
        <ele>39.492674</ele>
        <time>2026-05-04T15:40:07.327Z</time>
      </trkpt>
      <trkpt lat="53.233579" lon="6.635453">
        <ele>39.439926</ele>
        <time>2026-05-04T15:40:10.330Z</time>
      </trkpt>
      <trkpt lat="53.233543" lon="6.635627">
        <ele>39.568553</ele>
        <time>2026-05-04T15:40:13.334Z</time>
      </trkpt>
      <trkpt lat="53.233478" lon="6.635775">
        <ele>39.754641</ele>
        <time>2026-05-04T15:40:16.329Z</time>
      </trkpt>
      <trkpt lat="53.233392" lon="6.635914">
        <ele>39.957298</ele>
        <time>2026-05-04T15:40:19.333Z</time>
      </trkpt>
      <trkpt lat="53.233328" lon="6.636051">
        <ele>40.133471</ele>
        <time>2026-05-04T15:40:22.333Z</time>
      </trkpt>
      <trkpt lat="53.233271" lon="6.636202">
        <ele>40.314444</ele>
        <time>2026-05-04T15:40:25.327Z</time>
      </trkpt>
      <trkpt lat="53.233230" lon="6.636382">
        <ele>40.509682</ele>
        <time>2026-05-04T15:40:28.330Z</time>
      </trkpt>
      <trkpt lat="53.233212" lon="6.636537">
        <ele>40.669742</ele>
        <time>2026-05-04T15:40:31.333Z</time>
      </trkpt>
      <trkpt lat="53.233146" lon="6.636433">
        <ele>40.823397</ele>
        <time>2026-05-04T15:40:36.329Z</time>
      </trkpt>
      <trkpt lat="53.233115" lon="6.636272">
        <ele>40.994846</ele>
        <time>2026-05-04T15:40:40.331Z</time>
      </trkpt>
      <trkpt lat="53.233079" lon="6.636123">
        <ele>41.157735</ele>
        <time>2026-05-04T15:40:44.331Z</time>
      </trkpt>
      <trkpt lat="53.233049" lon="6.635960">
        <ele>41.330610</ele>
        <time>2026-05-04T15:40:49.331Z</time>
      </trkpt>
      <trkpt lat="53.232992" lon="6.635817">
        <ele>41.504777</ele>
        <time>2026-05-04T15:40:54.328Z</time>
      </trkpt>
      <trkpt lat="53.232946" lon="6.635637">
        <ele>41.703187</ele>
        <time>2026-05-04T15:40:58.330Z</time>
      </trkpt>
      <trkpt lat="53.232906" lon="6.635486">
        <ele>41.870583</ele>
        <time>2026-05-04T15:41:01.329Z</time>
      </trkpt>
      <trkpt lat="53.232860" lon="6.635333">
        <ele>42.044153</ele>
        <time>2026-05-04T15:41:04.331Z</time>
      </trkpt>
      <trkpt lat="53.232818" lon="6.635197">
        <ele>42.199291</ele>
        <time>2026-05-04T15:41:07.329Z</time>
      </trkpt>
      <trkpt lat="53.232773" lon="6.635027">
        <ele>42.387728</ele>
        <time>2026-05-04T15:41:11.329Z</time>
      </trkpt>
      <trkpt lat="53.232732" lon="6.634874">
        <ele>42.470721</ele>
        <time>2026-05-04T15:41:15.333Z</time>
      </trkpt>
      <trkpt lat="53.232694" lon="6.634730">
        <ele>42.468158</ele>
        <time>2026-05-04T15:41:19.334Z</time>
      </trkpt>
      <trkpt lat="53.232646" lon="6.634599">
        <ele>42.465656</ele>
        <time>2026-05-04T15:41:24.332Z</time>
      </trkpt>
      <trkpt lat="53.232557" lon="6.634621">
        <ele>42.463208</ele>
        <time>2026-05-04T15:41:32.332Z</time>
      </trkpt>
      <trkpt lat="53.232412" lon="6.634752">
        <ele>42.458722</ele>
        <time>2026-05-04T15:44:29.331Z</time>
      </trkpt>
      <trkpt lat="53.232325" lon="6.634836">
        <ele>42.455988</ele>
        <time>2026-05-04T15:44:32.332Z</time>
      </trkpt>
      <trkpt lat="53.232235" lon="6.634912">
        <ele>42.453244</ele>
        <time>2026-05-04T15:44:35.331Z</time>
      </trkpt>
      <trkpt lat="53.232125" lon="6.634984">
        <ele>42.450029</ele>
        <time>2026-05-04T15:44:38.339Z</time>
      </trkpt>
      <trkpt lat="53.232006" lon="6.635086">
        <ele>42.446389</ele>
        <time>2026-05-04T15:44:41.331Z</time>
      </trkpt>
      <trkpt lat="53.231890" lon="6.635202">
        <ele>42.442710</ele>
        <time>2026-05-04T15:44:44.337Z</time>
      </trkpt>
      <trkpt lat="53.231774" lon="6.635309">
        <ele>42.439105</ele>
        <time>2026-05-04T15:44:47.329Z</time>
      </trkpt>
      <trkpt lat="53.231687" lon="6.635366">
        <ele>42.436562</ele>
        <time>2026-05-04T15:44:49.329Z</time>
      </trkpt>
      <trkpt lat="53.231603" lon="6.635431">
        <ele>42.434043</ele>
        <time>2026-05-04T15:44:51.335Z</time>
      </trkpt>
      <trkpt lat="53.231517" lon="6.635490">
        <ele>42.431513</ele>
        <time>2026-05-04T15:44:53.326Z</time>
      </trkpt>
      <trkpt lat="53.231434" lon="6.635553">
        <ele>42.429032</ele>
        <time>2026-05-04T15:44:55.330Z</time>
      </trkpt>
      <trkpt lat="53.231323" lon="6.635643">
        <ele>42.425675</ele>
        <time>2026-05-04T15:44:58.327Z</time>
      </trkpt>
      <trkpt lat="53.231214" lon="6.635730">
        <ele>42.393038</ele>
        <time>2026-05-04T15:45:01.326Z</time>
      </trkpt>
      <trkpt lat="53.231108" lon="6.635823">
        <ele>42.264691</ele>
        <time>2026-05-04T15:45:04.329Z</time>
      </trkpt>
      <trkpt lat="53.231018" lon="6.635853">
        <ele>42.166311</ele>
        <time>2026-05-04T15:45:07.327Z</time>
      </trkpt>
      <trkpt lat="53.230897" lon="6.635428">
        <ele>41.864322</ele>
        <time>2026-05-04T15:45:38.331Z</time>
      </trkpt>
      <trkpt lat="53.230852" lon="6.635291">
        <ele>41.764047</ele>
        <time>2026-05-04T15:45:40.331Z</time>
      </trkpt>
      <trkpt lat="53.230801" lon="6.635160">
        <ele>41.663772</ele>
        <time>2026-05-04T15:45:42.331Z</time>
      </trkpt>
      <trkpt lat="53.230736" lon="6.634966">
        <ele>41.521112</ele>
        <time>2026-05-04T15:45:45.337Z</time>
      </trkpt>
      <trkpt lat="53.230684" lon="6.634822">
        <ele>41.413197</ele>
        <time>2026-05-04T15:45:47.331Z</time>
      </trkpt>
      <trkpt lat="53.230636" lon="6.634659">
        <ele>41.296632</ele>
        <time>2026-05-04T15:45:49.326Z</time>
      </trkpt>
      <trkpt lat="53.230575" lon="6.634506">
        <ele>41.178670</ele>
        <time>2026-05-04T15:45:51.334Z</time>
      </trkpt>
      <trkpt lat="53.230532" lon="6.634347">
        <ele>41.066713</ele>
        <time>2026-05-04T15:45:53.329Z</time>
      </trkpt>
      <trkpt lat="53.230483" lon="6.634186">
        <ele>40.950815</ele>
        <time>2026-05-04T15:45:55.334Z</time>
      </trkpt>
      <trkpt lat="53.230432" lon="6.634018">
        <ele>40.829941</ele>
        <time>2026-05-04T15:45:57.329Z</time>
      </trkpt>
      <trkpt lat="53.230387" lon="6.633860">
        <ele>40.717664</ele>
        <time>2026-05-04T15:45:59.327Z</time>
      </trkpt>
      <trkpt lat="53.230342" lon="6.633700">
        <ele>40.604226</ele>
        <time>2026-05-04T15:46:01.334Z</time>
      </trkpt>
      <trkpt lat="53.230298" lon="6.633538">
        <ele>40.490106</ele>
        <time>2026-05-04T15:46:03.334Z</time>
      </trkpt>
      <trkpt lat="53.230253" lon="6.633386">
        <ele>40.382040</ele>
        <time>2026-05-04T15:46:05.333Z</time>
      </trkpt>
      <trkpt lat="53.230203" lon="6.633221">
        <ele>40.264182</ele>
        <time>2026-05-04T15:46:07.327Z</time>
      </trkpt>
      <trkpt lat="53.230164" lon="6.633070">
        <ele>40.159377</ele>
        <time>2026-05-04T15:46:09.331Z</time>
      </trkpt>
      <trkpt lat="53.230127" lon="6.632928">
        <ele>40.060681</ele>
        <time>2026-05-04T15:46:11.335Z</time>
      </trkpt>
      <trkpt lat="53.230089" lon="6.632774">
        <ele>39.954528</ele>
        <time>2026-05-04T15:46:13.326Z</time>
      </trkpt>
      <trkpt lat="53.230050" lon="6.632629">
        <ele>39.853222</ele>
        <time>2026-05-04T15:46:15.332Z</time>
      </trkpt>
      <trkpt lat="53.229993" lon="6.632428">
        <ele>39.711481</ele>
        <time>2026-05-04T15:46:18.331Z</time>
      </trkpt>
      <trkpt lat="53.229954" lon="6.632288">
        <ele>39.613073</ele>
        <time>2026-05-04T15:46:20.331Z</time>
      </trkpt>
      <trkpt lat="53.229903" lon="6.632101">
        <ele>39.482114</ele>
        <time>2026-05-04T15:46:23.339Z</time>
      </trkpt>
      <trkpt lat="53.229812" lon="6.632030">
        <ele>39.375188</ele>
        <time>2026-05-04T15:46:26.330Z</time>
      </trkpt>
      <trkpt lat="53.229706" lon="6.632125">
        <ele>39.247124</ele>
        <time>2026-05-04T15:46:29.334Z</time>
      </trkpt>
      <trkpt lat="53.229619" lon="6.632209">
        <ele>39.140144</ele>
        <time>2026-05-04T15:46:31.332Z</time>
      </trkpt>
      <trkpt lat="53.229531" lon="6.632290">
        <ele>39.033178</ele>
        <time>2026-05-04T15:46:33.333Z</time>
      </trkpt>
      <trkpt lat="53.229439" lon="6.632367">
        <ele>38.923627</ele>
        <time>2026-05-04T15:46:35.330Z</time>
      </trkpt>
      <trkpt lat="53.229343" lon="6.632423">
        <ele>38.815372</ele>
        <time>2026-05-04T15:46:37.332Z</time>
      </trkpt>
      <trkpt lat="53.229233" lon="6.632473">
        <ele>38.694006</ele>
        <time>2026-05-04T15:46:39.337Z</time>
      </trkpt>
      <trkpt lat="53.229115" lon="6.632514">
        <ele>38.574795</ele>
        <time>2026-05-04T15:46:41.334Z</time>
      </trkpt>
      <trkpt lat="53.229005" lon="6.632544">
        <ele>38.530760</ele>
        <time>2026-05-04T15:46:43.336Z</time>
      </trkpt>
      <trkpt lat="53.228904" lon="6.632581">
        <ele>38.489909</ele>
        <time>2026-05-04T15:46:45.330Z</time>
      </trkpt>
      <trkpt lat="53.228801" lon="6.632618">
        <ele>38.448285</ele>
        <time>2026-05-04T15:46:47.333Z</time>
      </trkpt>
      <trkpt lat="53.228699" lon="6.632655">
        <ele>38.407047</ele>
        <time>2026-05-04T15:46:49.328Z</time>
      </trkpt>
      <trkpt lat="53.228591" lon="6.632690">
        <ele>38.363583</ele>
        <time>2026-05-04T15:46:51.333Z</time>
      </trkpt>
      <trkpt lat="53.228485" lon="6.632732">
        <ele>38.320542</ele>
        <time>2026-05-04T15:46:53.330Z</time>
      </trkpt>
      <trkpt lat="53.228384" lon="6.632767">
        <ele>38.279789</ele>
        <time>2026-05-04T15:46:55.330Z</time>
      </trkpt>
      <trkpt lat="53.228291" lon="6.632811">
        <ele>38.241601</ele>
        <time>2026-05-04T15:46:57.330Z</time>
      </trkpt>
      <trkpt lat="53.228199" lon="6.632842">
        <ele>38.204521</ele>
        <time>2026-05-04T15:46:59.328Z</time>
      </trkpt>
      <trkpt lat="53.228105" lon="6.632861">
        <ele>38.167113</ele>
        <time>2026-05-04T15:47:01.333Z</time>
      </trkpt>
      <trkpt lat="53.228007" lon="6.632901">
        <ele>38.127256</ele>
        <time>2026-05-04T15:47:03.332Z</time>
      </trkpt>
      <trkpt lat="53.227908" lon="6.632934">
        <ele>38.087371</ele>
        <time>2026-05-04T15:47:05.332Z</time>
      </trkpt>
      <trkpt lat="53.227802" lon="6.632954">
        <ele>38.045226</ele>
        <time>2026-05-04T15:47:07.331Z</time>
      </trkpt>
      <trkpt lat="53.227699" lon="6.632981">
        <ele>38.004035</ele>
        <time>2026-05-04T15:47:09.328Z</time>
      </trkpt>
      <trkpt lat="53.227595" lon="6.633012">
        <ele>37.962297</ele>
        <time>2026-05-04T15:47:11.331Z</time>
      </trkpt>
      <trkpt lat="53.227488" lon="6.633042">
        <ele>37.919432</ele>
        <time>2026-05-04T15:47:13.331Z</time>
      </trkpt>
      <trkpt lat="53.227379" lon="6.633070">
        <ele>37.875862</ele>
        <time>2026-05-04T15:47:15.327Z</time>
      </trkpt>
      <trkpt lat="53.227271" lon="6.633086">
        <ele>37.870516</ele>
        <time>2026-05-04T15:47:17.328Z</time>
      </trkpt>
      <trkpt lat="53.227173" lon="6.633114">
        <ele>37.871552</ele>
        <time>2026-05-04T15:47:19.331Z</time>
      </trkpt>
      <trkpt lat="53.227076" lon="6.633156">
        <ele>37.872596</ele>
        <time>2026-05-04T15:47:21.334Z</time>
      </trkpt>
      <trkpt lat="53.226986" lon="6.633188">
        <ele>37.873554</ele>
        <time>2026-05-04T15:47:23.333Z</time>
      </trkpt>
      <trkpt lat="53.226895" lon="6.633224">
        <ele>37.874528</ele>
        <time>2026-05-04T15:47:25.329Z</time>
      </trkpt>
      <trkpt lat="53.226758" lon="6.633250">
        <ele>37.875965</ele>
        <time>2026-05-04T15:47:28.324Z</time>
      </trkpt>
      <trkpt lat="53.226665" lon="6.633259">
        <ele>37.876935</ele>
        <time>2026-05-04T15:47:30.337Z</time>
      </trkpt>
      <trkpt lat="53.226567" lon="6.633289">
        <ele>37.877973</ele>
        <time>2026-05-04T15:47:32.337Z</time>
      </trkpt>
      <trkpt lat="53.226467" lon="6.633332">
        <ele>37.879049</ele>
        <time>2026-05-04T15:47:34.329Z</time>
      </trkpt>
      <trkpt lat="53.226370" lon="6.633379">
        <ele>37.880101</ele>
        <time>2026-05-04T15:47:36.333Z</time>
      </trkpt>
      <trkpt lat="53.226268" lon="6.633428">
        <ele>37.881207</ele>
        <time>2026-05-04T15:47:38.330Z</time>
      </trkpt>
      <trkpt lat="53.226168" lon="6.633495">
        <ele>37.882329</ele>
        <time>2026-05-04T15:47:40.332Z</time>
      </trkpt>
      <trkpt lat="53.226064" lon="6.633568">
        <ele>37.883504</ele>
        <time>2026-05-04T15:47:42.332Z</time>
      </trkpt>
      <trkpt lat="53.225967" lon="6.633648">
        <ele>37.884631</ele>
        <time>2026-05-04T15:47:44.335Z</time>
      </trkpt>
      <trkpt lat="53.225872" lon="6.633752">
        <ele>37.885815</ele>
        <time>2026-05-04T15:47:46.328Z</time>
      </trkpt>
      <trkpt lat="53.225778" lon="6.633846">
        <ele>37.886956</ele>
        <time>2026-05-04T15:47:48.328Z</time>
      </trkpt>
      <trkpt lat="53.225685" lon="6.633947">
        <ele>37.888112</ele>
        <time>2026-05-04T15:47:50.335Z</time>
      </trkpt>
      <trkpt lat="53.225591" lon="6.634030">
        <ele>37.902520</ele>
        <time>2026-05-04T15:47:52.326Z</time>
      </trkpt>
      <trkpt lat="53.225498" lon="6.634117">
        <ele>37.919532</ele>
        <time>2026-05-04T15:47:54.326Z</time>
      </trkpt>
      <trkpt lat="53.225402" lon="6.634221">
        <ele>37.937793</ele>
        <time>2026-05-04T15:47:56.326Z</time>
      </trkpt>
      <trkpt lat="53.225303" lon="6.634324">
        <ele>37.956407</ele>
        <time>2026-05-04T15:47:58.326Z</time>
      </trkpt>
      <trkpt lat="53.225211" lon="6.634421">
        <ele>37.973770</ele>
        <time>2026-05-04T15:48:00.329Z</time>
      </trkpt>
      <trkpt lat="53.225107" lon="6.634495">
        <ele>37.991810</ele>
        <time>2026-05-04T15:48:02.328Z</time>
      </trkpt>
      <trkpt lat="53.224993" lon="6.634534">
        <ele>38.010382</ele>
        <time>2026-05-04T15:48:04.335Z</time>
      </trkpt>
      <trkpt lat="53.224887" lon="6.634585">
        <ele>38.027986</ele>
        <time>2026-05-04T15:48:06.329Z</time>
      </trkpt>
      <trkpt lat="53.224784" lon="6.634634">
        <ele>38.045078</ele>
        <time>2026-05-04T15:48:08.328Z</time>
      </trkpt>
      <trkpt lat="53.224672" lon="6.634683">
        <ele>38.063556</ele>
        <time>2026-05-04T15:48:10.333Z</time>
      </trkpt>
      <trkpt lat="53.224558" lon="6.634726">
        <ele>38.082207</ele>
        <time>2026-05-04T15:48:12.332Z</time>
      </trkpt>
      <trkpt lat="53.224445" lon="6.634775">
        <ele>38.100839</ele>
        <time>2026-05-04T15:48:14.331Z</time>
      </trkpt>
      <trkpt lat="53.224334" lon="6.634818">
        <ele>38.119024</ele>
        <time>2026-05-04T15:48:16.332Z</time>
      </trkpt>
      <trkpt lat="53.224226" lon="6.634867">
        <ele>38.136885</ele>
        <time>2026-05-04T15:48:18.327Z</time>
      </trkpt>
      <trkpt lat="53.224112" lon="6.634930">
        <ele>38.156049</ele>
        <time>2026-05-04T15:48:20.326Z</time>
      </trkpt>
      <trkpt lat="53.224006" lon="6.634997">
        <ele>38.174136</ele>
        <time>2026-05-04T15:48:22.330Z</time>
      </trkpt>
      <trkpt lat="53.223905" lon="6.635071">
        <ele>38.190554</ele>
        <time>2026-05-04T15:48:24.338Z</time>
      </trkpt>
      <trkpt lat="53.223805" lon="6.635144">
        <ele>38.206714</ele>
        <time>2026-05-04T15:48:26.337Z</time>
      </trkpt>
      <trkpt lat="53.223708" lon="6.635216">
        <ele>38.222431</ele>
        <time>2026-05-04T15:48:28.329Z</time>
      </trkpt>
      <trkpt lat="53.223607" lon="6.635292">
        <ele>38.238834</ele>
        <time>2026-05-04T15:48:30.328Z</time>
      </trkpt>
      <trkpt lat="53.223511" lon="6.635377">
        <ele>38.254923</ele>
        <time>2026-05-04T15:48:32.336Z</time>
      </trkpt>
      <trkpt lat="53.223421" lon="6.635459">
        <ele>38.270103</ele>
        <time>2026-05-04T15:48:34.339Z</time>
      </trkpt>
      <trkpt lat="53.223322" lon="6.635525">
        <ele>38.285887</ele>
        <time>2026-05-04T15:48:36.335Z</time>
      </trkpt>
      <trkpt lat="53.223223" lon="6.635602">
        <ele>38.302058</ele>
        <time>2026-05-04T15:48:38.328Z</time>
      </trkpt>
      <trkpt lat="53.223117" lon="6.635663">
        <ele>38.318659</ele>
        <time>2026-05-04T15:48:40.328Z</time>
      </trkpt>
      <trkpt lat="53.223020" lon="6.635740">
        <ele>38.334562</ele>
        <time>2026-05-04T15:48:42.335Z</time>
      </trkpt>
      <trkpt lat="53.222932" lon="6.635821">
        <ele>38.349440</ele>
        <time>2026-05-04T15:48:44.334Z</time>
      </trkpt>
      <trkpt lat="53.222839" lon="6.635917">
        <ele>38.365628</ele>
        <time>2026-05-04T15:48:46.334Z</time>
      </trkpt>
      <trkpt lat="53.222745" lon="6.635985">
        <ele>38.380797</ele>
        <time>2026-05-04T15:48:48.334Z</time>
      </trkpt>
      <trkpt lat="53.222654" lon="6.636042">
        <ele>38.395188</ele>
        <time>2026-05-04T15:48:50.341Z</time>
      </trkpt>
      <trkpt lat="53.222565" lon="6.636095">
        <ele>38.409179</ele>
        <time>2026-05-04T15:48:52.329Z</time>
      </trkpt>
      <trkpt lat="53.222469" lon="6.636139">
        <ele>38.423919</ele>
        <time>2026-05-04T15:48:54.330Z</time>
      </trkpt>
      <trkpt lat="53.222372" lon="6.636195">
        <ele>38.439116</ele>
        <time>2026-05-04T15:48:56.340Z</time>
      </trkpt>
      <trkpt lat="53.222275" lon="6.636256">
        <ele>38.433332</ele>
        <time>2026-05-04T15:48:58.327Z</time>
      </trkpt>
      <trkpt lat="53.222175" lon="6.636332">
        <ele>38.422723</ele>
        <time>2026-05-04T15:49:00.332Z</time>
      </trkpt>
      <trkpt lat="53.222083" lon="6.636430">
        <ele>38.412187</ele>
        <time>2026-05-04T15:49:02.331Z</time>
      </trkpt>
      <trkpt lat="53.221989" lon="6.636510">
        <ele>38.401999</ele>
        <time>2026-05-04T15:49:04.332Z</time>
      </trkpt>
      <trkpt lat="53.221894" lon="6.636608">
        <ele>38.391217</ele>
        <time>2026-05-04T15:49:06.339Z</time>
      </trkpt>
      <trkpt lat="53.221806" lon="6.636697">
        <ele>38.381283</ele>
        <time>2026-05-04T15:49:08.331Z</time>
      </trkpt>
      <trkpt lat="53.221714" lon="6.636787">
        <ele>38.370988</ele>
        <time>2026-05-04T15:49:10.331Z</time>
      </trkpt>
      <trkpt lat="53.221632" lon="6.636870">
        <ele>38.361729</ele>
        <time>2026-05-04T15:49:12.334Z</time>
      </trkpt>
      <trkpt lat="53.221537" lon="6.636971">
        <ele>38.350855</ele>
        <time>2026-05-04T15:49:14.332Z</time>
      </trkpt>
      <trkpt lat="53.221442" lon="6.637066">
        <ele>38.340163</ele>
        <time>2026-05-04T15:49:16.331Z</time>
      </trkpt>
      <trkpt lat="53.221348" lon="6.637151">
        <ele>38.329841</ele>
        <time>2026-05-04T15:49:18.331Z</time>
      </trkpt>
      <trkpt lat="53.221251" lon="6.637237">
        <ele>38.319237</ele>
        <time>2026-05-04T15:49:20.332Z</time>
      </trkpt>
      <trkpt lat="53.221159" lon="6.637318">
        <ele>38.309194</ele>
        <time>2026-05-04T15:49:22.332Z</time>
      </trkpt>
      <trkpt lat="53.221066" lon="6.637402">
        <ele>38.298985</ele>
        <time>2026-05-04T15:49:24.331Z</time>
      </trkpt>
      <trkpt lat="53.220965" lon="6.637473">
        <ele>38.288403</ele>
        <time>2026-05-04T15:49:26.340Z</time>
      </trkpt>
      <trkpt lat="53.220867" lon="6.637553">
        <ele>38.277870</ele>
        <time>2026-05-04T15:49:28.331Z</time>
      </trkpt>
      <trkpt lat="53.220763" lon="6.637646">
        <ele>38.274671</ele>
        <time>2026-05-04T15:49:30.330Z</time>
      </trkpt>
      <trkpt lat="53.220665" lon="6.637728">
        <ele>38.321422</ele>
        <time>2026-05-04T15:49:32.331Z</time>
      </trkpt>
      <trkpt lat="53.220565" lon="6.637807">
        <ele>38.368606</ele>
        <time>2026-05-04T15:49:34.327Z</time>
      </trkpt>
      <trkpt lat="53.220473" lon="6.637874">
        <ele>38.411414</ele>
        <time>2026-05-04T15:49:36.335Z</time>
      </trkpt>
      <trkpt lat="53.220380" lon="6.637964">
        <ele>38.457259</ele>
        <time>2026-05-04T15:49:38.336Z</time>
      </trkpt>
      <trkpt lat="53.220278" lon="6.638034">
        <ele>38.504294</ele>
        <time>2026-05-04T15:49:40.328Z</time>
      </trkpt>
      <trkpt lat="53.220184" lon="6.638107">
        <ele>38.548510</ele>
        <time>2026-05-04T15:49:42.338Z</time>
      </trkpt>
      <trkpt lat="53.220077" lon="6.638186">
        <ele>38.598408</ele>
        <time>2026-05-04T15:49:44.335Z</time>
      </trkpt>
      <trkpt lat="53.219973" lon="6.638273">
        <ele>38.648020</ele>
        <time>2026-05-04T15:49:46.341Z</time>
      </trkpt>
      <trkpt lat="53.219872" lon="6.638355">
        <ele>38.695919</ele>
        <time>2026-05-04T15:49:48.335Z</time>
      </trkpt>
      <trkpt lat="53.219774" lon="6.638431">
        <ele>38.742005</ele>
        <time>2026-05-04T15:49:50.334Z</time>
      </trkpt>
      <trkpt lat="53.219678" lon="6.638513">
        <ele>38.787996</ele>
        <time>2026-05-04T15:49:52.333Z</time>
      </trkpt>
      <trkpt lat="53.219577" lon="6.638607">
        <ele>38.837312</ele>
        <time>2026-05-04T15:49:54.333Z</time>
      </trkpt>
      <trkpt lat="53.219480" lon="6.638688">
        <ele>38.883568</ele>
        <time>2026-05-04T15:49:56.333Z</time>
      </trkpt>
      <trkpt lat="53.219384" lon="6.638769">
        <ele>38.929444</ele>
        <time>2026-05-04T15:49:58.327Z</time>
      </trkpt>
      <trkpt lat="53.219283" lon="6.638863">
        <ele>38.978760</ele>
        <time>2026-05-04T15:50:00.330Z</time>
      </trkpt>
      <trkpt lat="53.219189" lon="6.638946">
        <ele>39.024112</ele>
        <time>2026-05-04T15:50:02.340Z</time>
      </trkpt>
      <trkpt lat="53.219094" lon="6.639033">
        <ele>39.037613</ele>
        <time>2026-05-04T15:50:04.340Z</time>
      </trkpt>
      <trkpt lat="53.218987" lon="6.639109">
        <ele>39.041075</ele>
        <time>2026-05-04T15:50:06.332Z</time>
      </trkpt>
      <trkpt lat="53.218885" lon="6.639187">
        <ele>39.044415</ele>
        <time>2026-05-04T15:50:08.332Z</time>
      </trkpt>
      <trkpt lat="53.218792" lon="6.639261">
        <ele>39.047482</ele>
        <time>2026-05-04T15:50:10.331Z</time>
      </trkpt>
      <trkpt lat="53.218693" lon="6.639326">
        <ele>39.050649</ele>
        <time>2026-05-04T15:50:12.339Z</time>
      </trkpt>
      <trkpt lat="53.218601" lon="6.639407">
        <ele>39.053745</ele>
        <time>2026-05-04T15:50:14.333Z</time>
      </trkpt>
      <trkpt lat="53.218509" lon="6.639485">
        <ele>39.056817</ele>
        <time>2026-05-04T15:50:16.331Z</time>
      </trkpt>
      <trkpt lat="53.218422" lon="6.639580">
        <ele>39.059912</ele>
        <time>2026-05-04T15:50:18.334Z</time>
      </trkpt>
      <trkpt lat="53.218332" lon="6.639672">
        <ele>39.063053</ele>
        <time>2026-05-04T15:50:20.330Z</time>
      </trkpt>
      <trkpt lat="53.218244" lon="6.639754">
        <ele>39.066053</ele>
        <time>2026-05-04T15:50:22.331Z</time>
      </trkpt>
      <trkpt lat="53.218159" lon="6.639848">
        <ele>39.069088</ele>
        <time>2026-05-04T15:50:24.338Z</time>
      </trkpt>
      <trkpt lat="53.218064" lon="6.639940">
        <ele>39.072358</ele>
        <time>2026-05-04T15:50:26.331Z</time>
      </trkpt>
      <trkpt lat="53.217971" lon="6.640025">
        <ele>39.075514</ele>
        <time>2026-05-04T15:50:28.330Z</time>
      </trkpt>
      <trkpt lat="53.217879" lon="6.640109">
        <ele>39.078636</ele>
        <time>2026-05-04T15:50:30.326Z</time>
      </trkpt>
      <trkpt lat="53.217790" lon="6.640197">
        <ele>39.081715</ele>
        <time>2026-05-04T15:50:32.328Z</time>
      </trkpt>
      <trkpt lat="53.217697" lon="6.640278">
        <ele>39.084838</ele>
        <time>2026-05-04T15:50:34.344Z</time>
      </trkpt>
      <trkpt lat="53.217601" lon="6.640360">
        <ele>39.088048</ele>
        <time>2026-05-04T15:50:36.329Z</time>
      </trkpt>
      <trkpt lat="53.217504" lon="6.640443">
        <ele>39.061879</ele>
        <time>2026-05-04T15:50:38.327Z</time>
      </trkpt>
      <trkpt lat="53.217407" lon="6.640539">
        <ele>39.027040</ele>
        <time>2026-05-04T15:50:40.334Z</time>
      </trkpt>
      <trkpt lat="53.217307" lon="6.640607">
        <ele>38.993678</ele>
        <time>2026-05-04T15:50:42.328Z</time>
      </trkpt>
      <trkpt lat="53.217214" lon="6.640686">
        <ele>38.961438</ele>
        <time>2026-05-04T15:50:44.349Z</time>
      </trkpt>
      <trkpt lat="53.217119" lon="6.640775">
        <ele>38.927781</ele>
        <time>2026-05-04T15:50:46.329Z</time>
      </trkpt>
      <trkpt lat="53.217026" lon="6.640877">
        <ele>38.893402</ele>
        <time>2026-05-04T15:50:48.335Z</time>
      </trkpt>
      <trkpt lat="53.216935" lon="6.640964">
        <ele>38.861002</ele>
        <time>2026-05-04T15:50:50.325Z</time>
      </trkpt>
      <trkpt lat="53.216845" lon="6.641055">
        <ele>38.828493</ele>
        <time>2026-05-04T15:50:52.330Z</time>
      </trkpt>
      <trkpt lat="53.216753" lon="6.641152">
        <ele>38.794875</ele>
        <time>2026-05-04T15:50:54.330Z</time>
      </trkpt>
      <trkpt lat="53.216661" lon="6.641235">
        <ele>38.762565</ele>
        <time>2026-05-04T15:50:56.332Z</time>
      </trkpt>
      <trkpt lat="53.216566" lon="6.641310">
        <ele>38.730096</ele>
        <time>2026-05-04T15:50:58.329Z</time>
      </trkpt>
      <trkpt lat="53.216469" lon="6.641374">
        <ele>38.697870</ele>
        <time>2026-05-04T15:51:00.328Z</time>
      </trkpt>
      <trkpt lat="53.216373" lon="6.641435">
        <ele>38.666132</ele>
        <time>2026-05-04T15:51:02.332Z</time>
      </trkpt>
      <trkpt lat="53.216277" lon="6.641501">
        <ele>38.634054</ele>
        <time>2026-05-04T15:51:04.340Z</time>
      </trkpt>
      <trkpt lat="53.216186" lon="6.641569">
        <ele>38.603250</ele>
        <time>2026-05-04T15:51:06.331Z</time>
      </trkpt>
      <trkpt lat="53.216088" lon="6.641630">
        <ele>38.570934</ele>
        <time>2026-05-04T15:51:08.345Z</time>
      </trkpt>
      <trkpt lat="53.215997" lon="6.641704">
        <ele>38.539659</ele>
        <time>2026-05-04T15:51:10.338Z</time>
      </trkpt>
      <trkpt lat="53.215904" lon="6.641774">
        <ele>38.523537</ele>
        <time>2026-05-04T15:51:12.328Z</time>
      </trkpt>
      <trkpt lat="53.215810" lon="6.641839">
        <ele>38.511613</ele>
        <time>2026-05-04T15:51:14.330Z</time>
      </trkpt>
      <trkpt lat="53.215692" lon="6.641901">
        <ele>38.497116</ele>
        <time>2026-05-04T15:51:17.339Z</time>
      </trkpt>
      <trkpt lat="53.215784" lon="6.641870">
        <ele>38.486117</ele>
        <time>2026-05-04T15:51:28.329Z</time>
      </trkpt>
      <trkpt lat="53.215873" lon="6.641824">
        <ele>38.475199</ele>
        <time>2026-05-04T15:51:31.338Z</time>
      </trkpt>
      <trkpt lat="53.215961" lon="6.641865">
        <ele>38.464492</ele>
        <time>2026-05-04T15:51:34.332Z</time>
      </trkpt>
      <trkpt lat="53.216013" lon="6.642002">
        <ele>38.453109</ele>
        <time>2026-05-04T15:51:38.331Z</time>
      </trkpt>
      <trkpt lat="53.216051" lon="6.642161">
        <ele>38.441095</ele>
        <time>2026-05-04T15:51:43.333Z</time>
      </trkpt>
      <trkpt lat="53.216126" lon="6.642260">
        <ele>38.429892</ele>
        <time>2026-05-04T15:52:42.357Z</time>
      </trkpt>
      <trkpt lat="53.216053" lon="6.642160">
        <ele>38.418827</ele>
        <time>2026-05-04T15:52:46.327Z</time>
      </trkpt>
      <trkpt lat="53.216006" lon="6.642011">
        <ele>38.407008</ele>
        <time>2026-05-04T15:52:51.330Z</time>
      </trkpt>
      <trkpt lat="53.215950" lon="6.641866">
        <ele>38.394900</ele>
        <time>2026-05-04T15:52:57.333Z</time>
      </trkpt>
      <trkpt lat="53.215857" lon="6.641805">
        <ele>38.383191</ele>
        <time>2026-05-04T15:53:00.337Z</time>
      </trkpt>
      <trkpt lat="53.215753" lon="6.641872">
        <ele>38.370127</ele>
        <time>2026-05-04T15:53:03.340Z</time>
      </trkpt>
      <trkpt lat="53.215647" lon="6.641955">
        <ele>38.356407</ele>
        <time>2026-05-04T15:53:06.332Z</time>
      </trkpt>
      <trkpt lat="53.215547" lon="6.641996">
        <ele>38.344339</ele>
        <time>2026-05-04T15:53:08.333Z</time>
      </trkpt>
      <trkpt lat="53.215413" lon="6.642043">
        <ele>38.328293</ele>
        <time>2026-05-04T15:53:11.337Z</time>
      </trkpt>
      <trkpt lat="53.215296" lon="6.642025">
        <ele>38.318469</ele>
        <time>2026-05-04T15:53:14.344Z</time>
      </trkpt>
      <trkpt lat="53.215200" lon="6.641974">
        <ele>38.312767</ele>
        <time>2026-05-04T15:53:16.334Z</time>
      </trkpt>
      <trkpt lat="53.215114" lon="6.641895">
        <ele>38.307212</ele>
        <time>2026-05-04T15:53:18.330Z</time>
      </trkpt>
      <trkpt lat="53.215010" lon="6.641774">
        <ele>38.300037</ele>
        <time>2026-05-04T15:53:21.328Z</time>
      </trkpt>
      <trkpt lat="53.214903" lon="6.641657">
        <ele>38.292798</ele>
        <time>2026-05-04T15:53:24.330Z</time>
      </trkpt>
      <trkpt lat="53.214826" lon="6.641565">
        <ele>38.287439</ele>
        <time>2026-05-04T15:53:26.330Z</time>
      </trkpt>
      <trkpt lat="53.214711" lon="6.641462">
        <ele>38.280053</ele>
        <time>2026-05-04T15:53:29.328Z</time>
      </trkpt>
      <trkpt lat="53.214611" lon="6.641340">
        <ele>38.273043</ele>
        <time>2026-05-04T15:53:32.330Z</time>
      </trkpt>
      <trkpt lat="53.214518" lon="6.641228">
        <ele>38.266553</ele>
        <time>2026-05-04T15:53:35.324Z</time>
      </trkpt>
      <trkpt lat="53.214429" lon="6.641153">
        <ele>38.260911</ele>
        <time>2026-05-04T15:53:38.325Z</time>
      </trkpt>
      <trkpt lat="53.214337" lon="6.641088">
        <ele>38.255256</ele>
        <time>2026-05-04T15:53:41.324Z</time>
      </trkpt>
      <trkpt lat="53.214224" lon="6.641078">
        <ele>38.248852</ele>
        <time>2026-05-04T15:53:44.336Z</time>
      </trkpt>
      <trkpt lat="53.214112" lon="6.641128">
        <ele>38.242290</ele>
        <time>2026-05-04T15:53:47.330Z</time>
      </trkpt>
      <trkpt lat="53.214023" lon="6.641167">
        <ele>38.237081</ele>
        <time>2026-05-04T15:53:49.338Z</time>
      </trkpt>
      <trkpt lat="53.213933" lon="6.641208">
        <ele>38.231801</ele>
        <time>2026-05-04T15:53:51.333Z</time>
      </trkpt>
      <trkpt lat="53.213803" lon="6.641257">
        <ele>38.224258</ele>
        <time>2026-05-04T15:53:54.332Z</time>
      </trkpt>
      <trkpt lat="53.213704" lon="6.641288">
        <ele>38.245036</ele>
        <time>2026-05-04T15:53:56.331Z</time>
      </trkpt>
      <trkpt lat="53.213581" lon="6.641338">
        <ele>38.343692</ele>
        <time>2026-05-04T15:53:59.332Z</time>
      </trkpt>
      <trkpt lat="53.213494" lon="6.641383">
        <ele>38.414671</ele>
        <time>2026-05-04T15:54:01.330Z</time>
      </trkpt>
      <trkpt lat="53.213396" lon="6.641423">
        <ele>38.493292</ele>
        <time>2026-05-04T15:54:03.336Z</time>
      </trkpt>
      <trkpt lat="53.213307" lon="6.641462">
        <ele>38.565000</ele>
        <time>2026-05-04T15:54:05.327Z</time>
      </trkpt>
      <trkpt lat="53.213222" lon="6.641520">
        <ele>38.636559</ele>
        <time>2026-05-04T15:54:07.344Z</time>
      </trkpt>
      <trkpt lat="53.213131" lon="6.641572">
        <ele>38.711515</ele>
        <time>2026-05-04T15:54:09.334Z</time>
      </trkpt>
      <trkpt lat="53.213040" lon="6.641636">
        <ele>38.788466</ele>
        <time>2026-05-04T15:54:11.336Z</time>
      </trkpt>
      <trkpt lat="53.212956" lon="6.641694">
        <ele>38.859304</ele>
        <time>2026-05-04T15:54:13.330Z</time>
      </trkpt>
      <trkpt lat="53.212873" lon="6.641769">
        <ele>38.932851</ele>
        <time>2026-05-04T15:54:15.330Z</time>
      </trkpt>
      <trkpt lat="53.212785" lon="6.641856">
        <ele>39.012549</ele>
        <time>2026-05-04T15:54:17.329Z</time>
      </trkpt>
      <trkpt lat="53.212703" lon="6.641956">
        <ele>39.091680</ele>
        <time>2026-05-04T15:54:19.334Z</time>
      </trkpt>
      <trkpt lat="53.212624" lon="6.642060">
        <ele>39.170078</ele>
        <time>2026-05-04T15:54:21.335Z</time>
      </trkpt>
      <trkpt lat="53.212547" lon="6.642160">
        <ele>39.246097</ele>
        <time>2026-05-04T15:54:23.329Z</time>
      </trkpt>
      <trkpt lat="53.212474" lon="6.642250">
        <ele>39.316813</ele>
        <time>2026-05-04T15:54:25.329Z</time>
      </trkpt>
      <trkpt lat="53.212391" lon="6.642349">
        <ele>39.396303</ele>
        <time>2026-05-04T15:54:27.332Z</time>
      </trkpt>
      <trkpt lat="53.212313" lon="6.642445">
        <ele>39.471817</ele>
        <time>2026-05-04T15:54:29.327Z</time>
      </trkpt>
      <trkpt lat="53.212232" lon="6.642558">
        <ele>39.554073</ele>
        <time>2026-05-04T15:54:31.331Z</time>
      </trkpt>
      <trkpt lat="53.212132" lon="6.642704">
        <ele>39.609318</ele>
        <time>2026-05-04T15:54:34.334Z</time>
      </trkpt>
      <trkpt lat="53.212050" lon="6.642802">
        <ele>39.581108</ele>
        <time>2026-05-04T15:54:36.332Z</time>
      </trkpt>
      <trkpt lat="53.211973" lon="6.642902">
        <ele>39.553819</ele>
        <time>2026-05-04T15:54:38.332Z</time>
      </trkpt>
      <trkpt lat="53.211892" lon="6.643014">
        <ele>39.524398</ele>
        <time>2026-05-04T15:54:40.339Z</time>
      </trkpt>
      <trkpt lat="53.211815" lon="6.643122">
        <ele>39.496267</ele>
        <time>2026-05-04T15:54:42.329Z</time>
      </trkpt>
      <trkpt lat="53.211738" lon="6.643220">
        <ele>39.469182</ele>
        <time>2026-05-04T15:54:44.329Z</time>
      </trkpt>
      <trkpt lat="53.211662" lon="6.643313">
        <ele>39.442822</ele>
        <time>2026-05-04T15:54:46.332Z</time>
      </trkpt>
      <trkpt lat="53.211584" lon="6.643427">
        <ele>39.413824</ele>
        <time>2026-05-04T15:54:48.345Z</time>
      </trkpt>
      <trkpt lat="53.211499" lon="6.643533">
        <ele>39.384145</ele>
        <time>2026-05-04T15:54:50.333Z</time>
      </trkpt>
      <trkpt lat="53.211421" lon="6.643628">
        <ele>39.357136</ele>
        <time>2026-05-04T15:54:52.337Z</time>
      </trkpt>
      <trkpt lat="53.211341" lon="6.643725">
        <ele>39.329478</ele>
        <time>2026-05-04T15:54:54.328Z</time>
      </trkpt>
      <trkpt lat="53.211257" lon="6.643829">
        <ele>39.300224</ele>
        <time>2026-05-04T15:54:56.329Z</time>
      </trkpt>
      <trkpt lat="53.211153" lon="6.643969">
        <ele>39.262852</ele>
        <time>2026-05-04T15:54:59.344Z</time>
      </trkpt>
      <trkpt lat="53.211076" lon="6.644083">
        <ele>39.234063</ele>
        <time>2026-05-04T15:55:01.330Z</time>
      </trkpt>
      <trkpt lat="53.210992" lon="6.644186">
        <ele>39.204908</ele>
        <time>2026-05-04T15:55:03.328Z</time>
      </trkpt>
      <trkpt lat="53.210913" lon="6.644289">
        <ele>39.176868</ele>
        <time>2026-05-04T15:55:05.328Z</time>
      </trkpt>
      <trkpt lat="53.210843" lon="6.644390">
        <ele>39.150987</ele>
        <time>2026-05-04T15:55:07.335Z</time>
      </trkpt>
      <trkpt lat="53.210764" lon="6.644487">
        <ele>39.123555</ele>
        <time>2026-05-04T15:55:09.338Z</time>
      </trkpt>
      <trkpt lat="53.210687" lon="6.644591">
        <ele>39.133468</ele>
        <time>2026-05-04T15:55:11.334Z</time>
      </trkpt>
      <trkpt lat="53.210604" lon="6.644704">
        <ele>39.152426</ele>
        <time>2026-05-04T15:55:13.341Z</time>
      </trkpt>
      <trkpt lat="53.210523" lon="6.644820">
        <ele>39.171317</ele>
        <time>2026-05-04T15:55:15.336Z</time>
      </trkpt>
      <trkpt lat="53.210438" lon="6.644925">
        <ele>39.190035</ele>
        <time>2026-05-04T15:55:17.333Z</time>
      </trkpt>
      <trkpt lat="53.210363" lon="6.645028">
        <ele>39.207226</ele>
        <time>2026-05-04T15:55:19.332Z</time>
      </trkpt>
      <trkpt lat="53.210292" lon="6.645126">
        <ele>39.223534</ele>
        <time>2026-05-04T15:55:21.332Z</time>
      </trkpt>
      <trkpt lat="53.210175" lon="6.645254">
        <ele>39.248297</ele>
        <time>2026-05-04T15:55:24.332Z</time>
      </trkpt>
      <trkpt lat="53.210096" lon="6.645369">
        <ele>39.266851</ele>
        <time>2026-05-04T15:55:26.340Z</time>
      </trkpt>
      <trkpt lat="53.210009" lon="6.645494">
        <ele>39.287169</ele>
        <time>2026-05-04T15:55:29.331Z</time>
      </trkpt>
      <trkpt lat="53.209922" lon="6.645587">
        <ele>39.305457</ele>
        <time>2026-05-04T15:55:31.321Z</time>
      </trkpt>
      <trkpt lat="53.209842" lon="6.645699">
        <ele>39.323939</ele>
        <time>2026-05-04T15:55:33.327Z</time>
      </trkpt>
      <trkpt lat="53.209776" lon="6.645817">
        <ele>39.341057</ele>
        <time>2026-05-04T15:55:35.339Z</time>
      </trkpt>
      <trkpt lat="53.209692" lon="6.645923">
        <ele>39.359697</ele>
        <time>2026-05-04T15:55:37.331Z</time>
      </trkpt>
      <trkpt lat="53.209614" lon="6.646029">
        <ele>39.377500</ele>
        <time>2026-05-04T15:55:39.333Z</time>
      </trkpt>
      <trkpt lat="53.209539" lon="6.646148">
        <ele>39.395816</ele>
        <time>2026-05-04T15:55:41.332Z</time>
      </trkpt>
      <trkpt lat="53.209468" lon="6.646254">
        <ele>39.412677</ele>
        <time>2026-05-04T15:55:43.332Z</time>
      </trkpt>
      <trkpt lat="53.209402" lon="6.646378">
        <ele>39.430266</ele>
        <time>2026-05-04T15:55:45.346Z</time>
      </trkpt>
      <trkpt lat="53.209337" lon="6.646492">
        <ele>39.414486</ele>
        <time>2026-05-04T15:55:47.330Z</time>
      </trkpt>
      <trkpt lat="53.209268" lon="6.646611">
        <ele>39.372951</ele>
        <time>2026-05-04T15:55:49.332Z</time>
      </trkpt>
      <trkpt lat="53.209199" lon="6.646730">
        <ele>39.331417</ele>
        <time>2026-05-04T15:55:51.336Z</time>
      </trkpt>
      <trkpt lat="53.209097" lon="6.646872">
        <ele>39.275812</ele>
        <time>2026-05-04T15:55:54.328Z</time>
      </trkpt>
      <trkpt lat="53.209001" lon="6.646998">
        <ele>39.224685</ele>
        <time>2026-05-04T15:55:57.330Z</time>
      </trkpt>
      <trkpt lat="53.208897" lon="6.647104">
        <ele>39.173669</ele>
        <time>2026-05-04T15:56:00.324Z</time>
      </trkpt>
      <trkpt lat="53.208785" lon="6.647194">
        <ele>39.121626</ele>
        <time>2026-05-04T15:56:03.328Z</time>
      </trkpt>
      <trkpt lat="53.208675" lon="6.647274">
        <ele>39.071389</ele>
        <time>2026-05-04T15:56:06.328Z</time>
      </trkpt>
      <trkpt lat="53.208555" lon="6.647352">
        <ele>39.017472</ele>
        <time>2026-05-04T15:56:09.345Z</time>
      </trkpt>
      <trkpt lat="53.208445" lon="6.647406">
        <ele>38.969465</ele>
        <time>2026-05-04T15:56:12.333Z</time>
      </trkpt>
      <trkpt lat="53.208324" lon="6.647459">
        <ele>38.917088</ele>
        <time>2026-05-04T15:56:15.332Z</time>
      </trkpt>
      <trkpt lat="53.208235" lon="6.647500">
        <ele>38.878431</ele>
        <time>2026-05-04T15:56:17.334Z</time>
      </trkpt>
      <trkpt lat="53.208116" lon="6.647564">
        <ele>38.826084</ele>
        <time>2026-05-04T15:56:20.331Z</time>
      </trkpt>
      <trkpt lat="53.208018" lon="6.647584">
        <ele>38.784746</ele>
        <time>2026-05-04T15:56:23.333Z</time>
      </trkpt>
      <trkpt lat="53.207946" lon="6.647494">
        <ele>38.747087</ele>
        <time>2026-05-04T15:56:26.331Z</time>
      </trkpt>
      <trkpt lat="53.207856" lon="6.647389">
        <ele>38.701116</ele>
        <time>2026-05-04T15:56:29.330Z</time>
      </trkpt>
      <trkpt lat="53.207755" lon="6.647271">
        <ele>38.688272</ele>
        <time>2026-05-04T15:56:32.329Z</time>
      </trkpt>
      <trkpt lat="53.207660" lon="6.647141">
        <ele>38.694295</ele>
        <time>2026-05-04T15:56:35.338Z</time>
      </trkpt>
      <trkpt lat="53.207584" lon="6.646992">
        <ele>38.700042</ele>
        <time>2026-05-04T15:56:38.346Z</time>
      </trkpt>
      <trkpt lat="53.207489" lon="6.646864">
        <ele>38.706028</ele>
        <time>2026-05-04T15:56:41.333Z</time>
      </trkpt>
      <trkpt lat="53.207399" lon="6.646742">
        <ele>38.711712</ele>
        <time>2026-05-04T15:56:44.329Z</time>
      </trkpt>
      <trkpt lat="53.207310" lon="6.646630">
        <ele>38.717176</ele>
        <time>2026-05-04T15:56:47.334Z</time>
      </trkpt>
      <trkpt lat="53.207225" lon="6.646528">
        <ele>38.722309</ele>
        <time>2026-05-04T15:56:50.333Z</time>
      </trkpt>
      <trkpt lat="53.207146" lon="6.646404">
        <ele>38.727625</ele>
        <time>2026-05-04T15:56:53.326Z</time>
      </trkpt>
      <trkpt lat="53.207157" lon="6.646247">
        <ele>38.732267</ele>
        <time>2026-05-04T15:56:56.333Z</time>
      </trkpt>
      <trkpt lat="53.207237" lon="6.646113">
        <ele>38.737824</ele>
        <time>2026-05-04T15:56:59.334Z</time>
      </trkpt>
      <trkpt lat="53.207307" lon="6.645965">
        <ele>38.743362</ele>
        <time>2026-05-04T15:57:02.334Z</time>
      </trkpt>
      <trkpt lat="53.207370" lon="6.645809">
        <ele>38.748887</ele>
        <time>2026-05-04T15:57:05.331Z</time>
      </trkpt>
      <trkpt lat="53.207378" lon="6.645628">
        <ele>38.754217</ele>
        <time>2026-05-04T15:57:08.338Z</time>
      </trkpt>
      <trkpt lat="53.207353" lon="6.645433">
        <ele>38.760073</ele>
        <time>2026-05-04T15:57:11.328Z</time>
      </trkpt>
      <trkpt lat="53.207321" lon="6.645234">
        <ele>38.766124</ele>
        <time>2026-05-04T15:57:14.327Z</time>
      </trkpt>
      <trkpt lat="53.207293" lon="6.645056">
        <ele>38.771528</ele>
        <time>2026-05-04T15:57:17.330Z</time>
      </trkpt>
      <trkpt lat="53.207200" lon="6.644913">
        <ele>38.777495</ele>
        <time>2026-05-04T15:57:20.334Z</time>
      </trkpt>
      <trkpt lat="53.207098" lon="6.644812">
        <ele>38.783056</ele>
        <time>2026-05-04T15:57:23.332Z</time>
      </trkpt>
      <trkpt lat="53.207015" lon="6.644723">
        <ele>38.787682</ele>
        <time>2026-05-04T15:57:26.331Z</time>
      </trkpt>
      <trkpt lat="53.207021" lon="6.644548">
        <ele>38.792605</ele>
        <time>2026-05-04T15:57:29.332Z</time>
      </trkpt>
      <trkpt lat="53.207078" lon="6.644384">
        <ele>38.797930</ele>
        <time>2026-05-04T15:57:32.337Z</time>
      </trkpt>
      <trkpt lat="53.207143" lon="6.644224">
        <ele>38.803360</ele>
        <time>2026-05-04T15:57:35.331Z</time>
      </trkpt>
      <trkpt lat="53.207212" lon="6.644056">
        <ele>38.809081</ele>
        <time>2026-05-04T15:57:38.328Z</time>
      </trkpt>
      <trkpt lat="53.207277" lon="6.643895">
        <ele>38.814535</ele>
        <time>2026-05-04T15:57:41.331Z</time>
      </trkpt>
      <trkpt lat="53.207279" lon="6.643713">
        <ele>38.819647</ele>
        <time>2026-05-04T15:57:44.326Z</time>
      </trkpt>
      <trkpt lat="53.207248" lon="6.643556">
        <ele>38.824290</ele>
        <time>2026-05-04T15:57:53.332Z</time>
      </trkpt>
      <trkpt lat="53.207150" lon="6.643729">
        <ele>38.830978</ele>
        <time>2026-05-04T15:59:41.341Z</time>
      </trkpt>
      <trkpt lat="53.207037" lon="6.643759">
        <ele>38.836343</ele>
        <time>2026-05-04T15:59:44.340Z</time>
      </trkpt>
      <trkpt lat="53.206925" lon="6.643780">
        <ele>38.841628</ele>
        <time>2026-05-04T15:59:47.333Z</time>
      </trkpt>
      <trkpt lat="53.206825" lon="6.643792">
        <ele>38.846330</ele>
        <time>2026-05-04T15:59:50.333Z</time>
      </trkpt>
      <trkpt lat="53.206742" lon="6.643727">
        <ele>38.850629</ele>
        <time>2026-05-04T15:59:53.330Z</time>
      </trkpt>
      <trkpt lat="53.206718" lon="6.643535">
        <ele>38.856137</ele>
        <time>2026-05-04T15:59:56.328Z</time>
      </trkpt>
      <trkpt lat="53.206706" lon="6.643360">
        <ele>38.821600</ele>
        <time>2026-05-04T15:59:59.333Z</time>
      </trkpt>
      <trkpt lat="53.206693" lon="6.643206">
        <ele>38.786233</ele>
        <time>2026-05-04T16:00:02.330Z</time>
      </trkpt>
      <trkpt lat="53.206664" lon="6.643037">
        <ele>38.746254</ele>
        <time>2026-05-04T16:00:05.334Z</time>
      </trkpt>
      <trkpt lat="53.206588" lon="6.642885">
        <ele>38.701226</ele>
        <time>2026-05-04T16:00:08.339Z</time>
      </trkpt>
      <trkpt lat="53.206491" lon="6.642776">
        <ele>38.656831</ele>
        <time>2026-05-04T16:00:11.332Z</time>
      </trkpt>
      <trkpt lat="53.206404" lon="6.642677">
        <ele>38.616855</ele>
        <time>2026-05-04T16:00:14.334Z</time>
      </trkpt>
      <trkpt lat="53.206312" lon="6.642579">
        <ele>38.575419</ele>
        <time>2026-05-04T16:00:17.330Z</time>
      </trkpt>
      <trkpt lat="53.206211" lon="6.642469">
        <ele>38.529632</ele>
        <time>2026-05-04T16:00:20.327Z</time>
      </trkpt>
      <trkpt lat="53.206111" lon="6.642347">
        <ele>38.482606</ele>
        <time>2026-05-04T16:00:23.332Z</time>
      </trkpt>
      <trkpt lat="53.206005" lon="6.642221">
        <ele>38.433201</ele>
        <time>2026-05-04T16:00:26.331Z</time>
      </trkpt>
      <trkpt lat="53.205902" lon="6.642110">
        <ele>38.386653</ele>
        <time>2026-05-04T16:00:29.330Z</time>
      </trkpt>
      <trkpt lat="53.205803" lon="6.641980">
        <ele>38.338830</ele>
        <time>2026-05-04T16:00:32.331Z</time>
      </trkpt>
      <trkpt lat="53.205712" lon="6.641864">
        <ele>38.295359</ele>
        <time>2026-05-04T16:00:35.333Z</time>
      </trkpt>
      <trkpt lat="53.205618" lon="6.641776">
        <ele>38.254439</ele>
        <time>2026-05-04T16:00:38.333Z</time>
      </trkpt>
      <trkpt lat="53.205522" lon="6.641662">
        <ele>38.209709</ele>
        <time>2026-05-04T16:00:41.334Z</time>
      </trkpt>
      <trkpt lat="53.205425" lon="6.641548">
        <ele>38.171667</ele>
        <time>2026-05-04T16:00:44.340Z</time>
      </trkpt>
      <trkpt lat="53.205340" lon="6.641441">
        <ele>38.162198</ele>
        <time>2026-05-04T16:00:47.333Z</time>
      </trkpt>
      <trkpt lat="53.205294" lon="6.641293">
        <ele>38.153314</ele>
        <time>2026-05-04T16:00:50.333Z</time>
      </trkpt>
      <trkpt lat="53.205289" lon="6.641100">
        <ele>38.143021</ele>
        <time>2026-05-04T16:00:53.332Z</time>
      </trkpt>
      <trkpt lat="53.205267" lon="6.640900">
        <ele>38.132187</ele>
        <time>2026-05-04T16:00:56.334Z</time>
      </trkpt>
      <trkpt lat="53.205227" lon="6.640712">
        <ele>38.121557</ele>
        <time>2026-05-04T16:00:59.336Z</time>
      </trkpt>
      <trkpt lat="53.205140" lon="6.640597">
        <ele>38.111685</ele>
        <time>2026-05-04T16:01:02.330Z</time>
      </trkpt>
      <trkpt lat="53.205014" lon="6.640630">
        <ele>38.100340</ele>
        <time>2026-05-04T16:01:05.331Z</time>
      </trkpt>
      <trkpt lat="53.204899" lon="6.640671">
        <ele>38.089879</ele>
        <time>2026-05-04T16:01:08.338Z</time>
      </trkpt>
      <trkpt lat="53.204790" lon="6.640723">
        <ele>38.079795</ele>
        <time>2026-05-04T16:01:11.331Z</time>
      </trkpt>
      <trkpt lat="53.204713" lon="6.640864">
        <ele>38.069628</ele>
        <time>2026-05-04T16:01:14.338Z</time>
      </trkpt>
      <trkpt lat="53.204737" lon="6.641078">
        <ele>38.058028</ele>
        <time>2026-05-04T16:01:17.333Z</time>
      </trkpt>
      <trkpt lat="53.204768" lon="6.641284">
        <ele>38.046711</ele>
        <time>2026-05-04T16:01:20.332Z</time>
      </trkpt>
      <trkpt lat="53.204810" lon="6.641463">
        <ele>38.036468</ele>
        <time>2026-05-04T16:01:23.328Z</time>
      </trkpt>
      <trkpt lat="53.204774" lon="6.641630">
        <ele>38.027011</ele>
        <time>2026-05-04T16:01:27.338Z</time>
      </trkpt>
      <trkpt lat="53.204665" lon="6.641608">
        <ele>38.017245</ele>
        <time>2026-05-04T16:01:30.329Z</time>
      </trkpt>
      <trkpt lat="53.204585" lon="6.641491">
        <ele>38.112285</ele>
        <time>2026-05-04T16:01:32.333Z</time>
      </trkpt>
      <trkpt lat="53.204498" lon="6.641400">
        <ele>38.261587</ele>
        <time>2026-05-04T16:01:34.331Z</time>
      </trkpt>
      <trkpt lat="53.204409" lon="6.641302">
        <ele>38.416634</ele>
        <time>2026-05-04T16:01:36.327Z</time>
      </trkpt>
      <trkpt lat="53.204321" lon="6.641208">
        <ele>38.568562</ele>
        <time>2026-05-04T16:01:38.327Z</time>
      </trkpt>
      <trkpt lat="53.204238" lon="6.641119">
        <ele>38.712019</ele>
        <time>2026-05-04T16:01:40.335Z</time>
      </trkpt>
      <trkpt lat="53.204162" lon="6.641037">
        <ele>38.843616</ele>
        <time>2026-05-04T16:01:42.340Z</time>
      </trkpt>
      <trkpt lat="53.204080" lon="6.640952">
        <ele>38.983983</ele>
        <time>2026-05-04T16:01:44.341Z</time>
      </trkpt>
      <trkpt lat="53.204001" lon="6.640848">
        <ele>39.130291</ele>
        <time>2026-05-04T16:01:46.328Z</time>
      </trkpt>
      <trkpt lat="53.203900" lon="6.640721">
        <ele>39.314173</ele>
        <time>2026-05-04T16:01:49.327Z</time>
      </trkpt>
      <trkpt lat="53.203789" lon="6.640606">
        <ele>39.504154</ele>
        <time>2026-05-04T16:01:52.330Z</time>
      </trkpt>
      <trkpt lat="53.203718" lon="6.640511">
        <ele>39.636477</ele>
        <time>2026-05-04T16:01:54.327Z</time>
      </trkpt>
      <trkpt lat="53.203641" lon="6.640430">
        <ele>39.768831</ele>
        <time>2026-05-04T16:01:56.336Z</time>
      </trkpt>
      <trkpt lat="53.203557" lon="6.640335">
        <ele>39.916381</ele>
        <time>2026-05-04T16:01:58.329Z</time>
      </trkpt>
      <trkpt lat="53.203478" lon="6.640246">
        <ele>40.054980</ele>
        <time>2026-05-04T16:02:00.332Z</time>
      </trkpt>
      <trkpt lat="53.203397" lon="6.640151">
        <ele>40.198938</ele>
        <time>2026-05-04T16:02:02.331Z</time>
      </trkpt>
      <trkpt lat="53.203318" lon="6.640061">
        <ele>40.338026</ele>
        <time>2026-05-04T16:02:04.328Z</time>
      </trkpt>
      <trkpt lat="53.203241" lon="6.639978">
        <ele>40.471318</ele>
        <time>2026-05-04T16:02:06.330Z</time>
      </trkpt>
      <trkpt lat="53.203136" lon="6.639852">
        <ele>40.614962</ele>
        <time>2026-05-04T16:02:09.329Z</time>
      </trkpt>
      <trkpt lat="53.203058" lon="6.639765">
        <ele>40.548277</ele>
        <time>2026-05-04T16:02:11.332Z</time>
      </trkpt>
      <trkpt lat="53.202975" lon="6.639687">
        <ele>40.480568</ele>
        <time>2026-05-04T16:02:13.331Z</time>
      </trkpt>
      <trkpt lat="53.202895" lon="6.639577">
        <ele>40.406893</ele>
        <time>2026-05-04T16:02:15.325Z</time>
      </trkpt>
      <trkpt lat="53.202811" lon="6.639490">
        <ele>40.336621</ele>
        <time>2026-05-04T16:02:17.338Z</time>
      </trkpt>
      <trkpt lat="53.202728" lon="6.639393">
        <ele>40.264598</ele>
        <time>2026-05-04T16:02:19.332Z</time>
      </trkpt>
      <trkpt lat="53.202618" lon="6.639277">
        <ele>40.172107</ele>
        <time>2026-05-04T16:02:22.328Z</time>
      </trkpt>
      <trkpt lat="53.202535" lon="6.639201">
        <ele>40.104812</ele>
        <time>2026-05-04T16:02:24.327Z</time>
      </trkpt>
      <trkpt lat="53.202457" lon="6.639106">
        <ele>40.036176</ele>
        <time>2026-05-04T16:02:26.332Z</time>
      </trkpt>
      <trkpt lat="53.202374" lon="6.639015">
        <ele>39.965587</ele>
        <time>2026-05-04T16:02:28.330Z</time>
      </trkpt>
      <trkpt lat="53.202292" lon="6.638936">
        <ele>39.898285</ele>
        <time>2026-05-04T16:02:30.335Z</time>
      </trkpt>
      <trkpt lat="53.202217" lon="6.638851">
        <ele>39.833844</ele>
        <time>2026-05-04T16:02:32.331Z</time>
      </trkpt>
      <trkpt lat="53.202122" lon="6.638729">
        <ele>39.748641</ele>
        <time>2026-05-04T16:02:35.340Z</time>
      </trkpt>
      <trkpt lat="53.202020" lon="6.638618">
        <ele>39.662086</ele>
        <time>2026-05-04T16:02:38.333Z</time>
      </trkpt>
      <trkpt lat="53.201921" lon="6.638505">
        <ele>39.576833</ele>
        <time>2026-05-04T16:02:41.332Z</time>
      </trkpt>
      <trkpt lat="53.201826" lon="6.638409">
        <ele>39.497891</ele>
        <time>2026-05-04T16:02:44.333Z</time>
      </trkpt>
      <trkpt lat="53.201822" lon="6.638240">
        <ele>39.425872</ele>
        <time>2026-05-04T16:02:47.325Z</time>
      </trkpt>
      <trkpt lat="53.201883" lon="6.638053">
        <ele>39.349773</ele>
        <time>2026-05-04T16:02:50.332Z</time>
      </trkpt>
      <trkpt lat="53.201933" lon="6.637919">
        <ele>39.344862</ele>
        <time>2026-05-04T16:02:52.338Z</time>
      </trkpt>
      <trkpt lat="53.201983" lon="6.637774">
        <ele>39.339658</ele>
        <time>2026-05-04T16:02:54.333Z</time>
      </trkpt>
      <trkpt lat="53.202035" lon="6.637631">
        <ele>39.334454</ele>
        <time>2026-05-04T16:02:56.337Z</time>
      </trkpt>
      <trkpt lat="53.202090" lon="6.637487">
        <ele>39.329142</ele>
        <time>2026-05-04T16:02:58.332Z</time>
      </trkpt>
      <trkpt lat="53.202149" lon="6.637354">
        <ele>39.323994</ele>
        <time>2026-05-04T16:03:00.338Z</time>
      </trkpt>
      <trkpt lat="53.202203" lon="6.637207">
        <ele>39.318630</ele>
        <time>2026-05-04T16:03:02.338Z</time>
      </trkpt>
      <trkpt lat="53.202250" lon="6.637065">
        <ele>39.313584</ele>
        <time>2026-05-04T16:03:04.338Z</time>
      </trkpt>
      <trkpt lat="53.202298" lon="6.636931">
        <ele>39.308727</ele>
        <time>2026-05-04T16:03:06.332Z</time>
      </trkpt>
      <trkpt lat="53.202350" lon="6.636799">
        <ele>39.303813</ele>
        <time>2026-05-04T16:03:08.331Z</time>
      </trkpt>
      <trkpt lat="53.202400" lon="6.636664">
        <ele>39.298876</ele>
        <time>2026-05-04T16:03:10.328Z</time>
      </trkpt>
      <trkpt lat="53.202457" lon="6.636525">
        <ele>39.293636</ele>
        <time>2026-05-04T16:03:12.327Z</time>
      </trkpt>
      <trkpt lat="53.202508" lon="6.636391">
        <ele>39.288698</ele>
        <time>2026-05-04T16:03:14.329Z</time>
      </trkpt>
      <trkpt lat="53.202575" lon="6.636207">
        <ele>39.282000</ele>
        <time>2026-05-04T16:03:17.332Z</time>
      </trkpt>
      <trkpt lat="53.202626" lon="6.636075">
        <ele>39.277114</ele>
        <time>2026-05-04T16:03:19.329Z</time>
      </trkpt>
      <trkpt lat="53.202683" lon="6.635945">
        <ele>39.272103</ele>
        <time>2026-05-04T16:03:21.334Z</time>
      </trkpt>
      <trkpt lat="53.202741" lon="6.635823">
        <ele>39.267258</ele>
        <time>2026-05-04T16:03:23.328Z</time>
      </trkpt>
      <trkpt lat="53.202816" lon="6.635633">
        <ele>39.260180</ele>
        <time>2026-05-04T16:03:26.334Z</time>
      </trkpt>
      <trkpt lat="53.202873" lon="6.635504">
        <ele>39.313304</ele>
        <time>2026-05-04T16:03:28.334Z</time>
      </trkpt>
      <trkpt lat="53.202931" lon="6.635375">
        <ele>39.433691</ele>
        <time>2026-05-04T16:03:30.330Z</time>
      </trkpt>
      <trkpt lat="53.202984" lon="6.635239">
        <ele>39.554789</ele>
        <time>2026-05-04T16:03:32.332Z</time>
      </trkpt>
      <trkpt lat="53.203058" lon="6.635064">
        <ele>39.714669</ele>
        <time>2026-05-04T16:03:35.333Z</time>
      </trkpt>
      <trkpt lat="53.203114" lon="6.634945">
        <ele>39.827618</ele>
        <time>2026-05-04T16:03:37.332Z</time>
      </trkpt>
      <trkpt lat="53.203194" lon="6.634774">
        <ele>39.989561</ele>
        <time>2026-05-04T16:03:40.332Z</time>
      </trkpt>
      <trkpt lat="53.203252" lon="6.634652">
        <ele>40.105811</ele>
        <time>2026-05-04T16:03:42.331Z</time>
      </trkpt>
      <trkpt lat="53.203311" lon="6.634532">
        <ele>40.221682</ele>
        <time>2026-05-04T16:03:44.333Z</time>
      </trkpt>
      <trkpt lat="53.203366" lon="6.634410">
        <ele>40.335646</ele>
        <time>2026-05-04T16:03:46.331Z</time>
      </trkpt>
      <trkpt lat="53.203423" lon="6.634287">
        <ele>40.451715</ele>
        <time>2026-05-04T16:03:48.330Z</time>
      </trkpt>
      <trkpt lat="53.203508" lon="6.634131">
        <ele>40.609112</ele>
        <time>2026-05-04T16:03:51.331Z</time>
      </trkpt>
      <trkpt lat="53.203570" lon="6.634007">
        <ele>40.729666</ele>
        <time>2026-05-04T16:03:53.354Z</time>
      </trkpt>
      <trkpt lat="53.203636" lon="6.633890">
        <ele>40.849618</ele>
        <time>2026-05-04T16:03:55.332Z</time>
      </trkpt>
      <trkpt lat="53.203709" lon="6.633790">
        <ele>40.967280</ele>
        <time>2026-05-04T16:03:57.329Z</time>
      </trkpt>
      <trkpt lat="53.203785" lon="6.633693">
        <ele>41.086482</ele>
        <time>2026-05-04T16:03:59.331Z</time>
      </trkpt>
      <trkpt lat="53.203865" lon="6.633608">
        <ele>41.204640</ele>
        <time>2026-05-04T16:04:01.329Z</time>
      </trkpt>
      <trkpt lat="53.203950" lon="6.633528">
        <ele>41.326225</ele>
        <time>2026-05-04T16:04:03.328Z</time>
      </trkpt>
      <trkpt lat="53.204033" lon="6.633470">
        <ele>41.438340</ele>
        <time>2026-05-04T16:04:05.337Z</time>
      </trkpt>
      <trkpt lat="53.204122" lon="6.633421">
        <ele>41.581278</ele>
        <time>2026-05-04T16:04:07.345Z</time>
      </trkpt>
      <trkpt lat="53.204220" lon="6.633383">
        <ele>41.764796</ele>
        <time>2026-05-04T16:04:09.336Z</time>
      </trkpt>
      <trkpt lat="53.204350" lon="6.633342">
        <ele>42.006122</ele>
        <time>2026-05-04T16:04:12.331Z</time>
      </trkpt>
      <trkpt lat="53.204440" lon="6.633317">
        <ele>42.172547</ele>
        <time>2026-05-04T16:04:14.336Z</time>
      </trkpt>
      <trkpt lat="53.204568" lon="6.633296">
        <ele>42.407155</ele>
        <time>2026-05-04T16:04:17.334Z</time>
      </trkpt>
      <trkpt lat="53.204694" lon="6.633274">
        <ele>42.638243</ele>
        <time>2026-05-04T16:04:20.333Z</time>
      </trkpt>
      <trkpt lat="53.204808" lon="6.633250">
        <ele>42.847836</ele>
        <time>2026-05-04T16:04:23.333Z</time>
      </trkpt>
      <trkpt lat="53.204920" lon="6.633229">
        <ele>43.053418</ele>
        <time>2026-05-04T16:04:26.332Z</time>
      </trkpt>
      <trkpt lat="53.205038" lon="6.633218">
        <ele>43.268996</ele>
        <time>2026-05-04T16:04:29.335Z</time>
      </trkpt>
      <trkpt lat="53.205157" lon="6.633191">
        <ele>43.488058</ele>
        <time>2026-05-04T16:04:32.329Z</time>
      </trkpt>
      <trkpt lat="53.205275" lon="6.633164">
        <ele>43.705313</ele>
        <time>2026-05-04T16:04:35.333Z</time>
      </trkpt>
      <trkpt lat="53.205404" lon="6.633155">
        <ele>43.940826</ele>
        <time>2026-05-04T16:04:38.339Z</time>
      </trkpt>
      <trkpt lat="53.205528" lon="6.633132">
        <ele>44.168404</ele>
        <time>2026-05-04T16:04:41.331Z</time>
      </trkpt>
      <trkpt lat="53.205655" lon="6.633097">
        <ele>44.403198</ele>
        <time>2026-05-04T16:04:44.338Z</time>
      </trkpt>
      <trkpt lat="53.205784" lon="6.633065">
        <ele>44.641089</ele>
        <time>2026-05-04T16:04:47.330Z</time>
      </trkpt>
      <trkpt lat="53.205874" lon="6.633044">
        <ele>44.787756</ele>
        <time>2026-05-04T16:04:49.325Z</time>
      </trkpt>
      <trkpt lat="53.205998" lon="6.633018">
        <ele>44.855997</ele>
        <time>2026-05-04T16:04:52.334Z</time>
      </trkpt>
      <trkpt lat="53.206127" lon="6.632993">
        <ele>44.926910</ele>
        <time>2026-05-04T16:04:55.336Z</time>
      </trkpt>
      <trkpt lat="53.206248" lon="6.632956">
        <ele>44.994081</ele>
        <time>2026-05-04T16:04:58.332Z</time>
      </trkpt>
      <trkpt lat="53.206339" lon="6.632814">
        <ele>45.062094</ele>
        <time>2026-05-04T16:05:01.330Z</time>
      </trkpt>
      <trkpt lat="53.206343" lon="6.632603">
        <ele>45.131135</ele>
        <time>2026-05-04T16:05:04.329Z</time>
      </trkpt>
      <trkpt lat="53.206320" lon="6.632383">
        <ele>45.204173</ele>
        <time>2026-05-04T16:05:07.325Z</time>
      </trkpt>
      <trkpt lat="53.206326" lon="6.632224">
        <ele>45.256277</ele>
        <time>2026-05-04T16:05:09.331Z</time>
      </trkpt>
      <trkpt lat="53.206331" lon="6.632019">
        <ele>45.323377</ele>
        <time>2026-05-04T16:05:12.330Z</time>
      </trkpt>
      <trkpt lat="53.206277" lon="6.631830">
        <ele>45.391861</ele>
        <time>2026-05-04T16:05:15.327Z</time>
      </trkpt>
      <trkpt lat="53.206183" lon="6.631685">
        <ele>45.461743</ele>
        <time>2026-05-04T16:05:18.334Z</time>
      </trkpt>
      <trkpt lat="53.206099" lon="6.631533">
        <ele>45.529382</ele>
        <time>2026-05-04T16:05:21.327Z</time>
      </trkpt>
      <trkpt lat="53.206044" lon="6.631357">
        <ele>45.594306</ele>
        <time>2026-05-04T16:05:24.343Z</time>
      </trkpt>
      <trkpt lat="53.205975" lon="6.631180">
        <ele>45.663375</ele>
        <time>2026-05-04T16:05:27.333Z</time>
      </trkpt>
      <trkpt lat="53.205914" lon="6.630992">
        <ele>45.733303</ele>
        <time>2026-05-04T16:05:30.331Z</time>
      </trkpt>
      <trkpt lat="53.205868" lon="6.630782">
        <ele>45.621095</ele>
        <time>2026-05-04T16:05:33.333Z</time>
      </trkpt>
      <trkpt lat="53.205828" lon="6.630591">
        <ele>45.412857</ele>
        <time>2026-05-04T16:05:36.340Z</time>
      </trkpt>
      <trkpt lat="53.205782" lon="6.630390">
        <ele>45.191411</ele>
        <time>2026-05-04T16:05:39.331Z</time>
      </trkpt>
      <trkpt lat="53.205737" lon="6.630187">
        <ele>44.968643</ele>
        <time>2026-05-04T16:05:42.329Z</time>
      </trkpt>
      <trkpt lat="53.205703" lon="6.630044">
        <ele>44.810302</ele>
        <time>2026-05-04T16:05:44.338Z</time>
      </trkpt>
      <trkpt lat="53.205657" lon="6.629833">
        <ele>44.579212</ele>
        <time>2026-05-04T16:05:47.341Z</time>
      </trkpt>
      <trkpt lat="53.205637" lon="6.629669">
        <ele>44.406968</ele>
        <time>2026-05-04T16:05:49.334Z</time>
      </trkpt>
      <trkpt lat="53.205656" lon="6.629504">
        <ele>44.234047</ele>
        <time>2026-05-04T16:05:51.337Z</time>
      </trkpt>
      <trkpt lat="53.205695" lon="6.629347">
        <ele>44.059124</ele>
        <time>2026-05-04T16:05:53.332Z</time>
      </trkpt>
      <trkpt lat="53.205703" lon="6.629193">
        <ele>43.900039</ele>
        <time>2026-05-04T16:05:55.328Z</time>
      </trkpt>
      <trkpt lat="53.205679" lon="6.629041">
        <ele>43.738263</ele>
        <time>2026-05-04T16:05:57.337Z</time>
      </trkpt>
      <trkpt lat="53.205624" lon="6.628894">
        <ele>43.559885</ele>
        <time>2026-05-04T16:05:59.327Z</time>
      </trkpt>
      <trkpt lat="53.205563" lon="6.628760">
        <ele>43.386666</ele>
        <time>2026-05-04T16:06:01.336Z</time>
      </trkpt>
      <trkpt lat="53.205504" lon="6.628612">
        <ele>43.203697</ele>
        <time>2026-05-04T16:06:03.329Z</time>
      </trkpt>
      <trkpt lat="53.205469" lon="6.628435">
        <ele>43.011865</ele>
        <time>2026-05-04T16:06:05.327Z</time>
      </trkpt>
      <trkpt lat="53.205450" lon="6.628251">
        <ele>42.819706</ele>
        <time>2026-05-04T16:06:07.333Z</time>
      </trkpt>
      <trkpt lat="53.205435" lon="6.628059">
        <ele>42.623322</ele>
        <time>2026-05-04T16:06:09.333Z</time>
      </trkpt>
      <trkpt lat="53.205411" lon="6.627848">
        <ele>42.414874</ele>
        <time>2026-05-04T16:06:11.332Z</time>
      </trkpt>
      <trkpt lat="53.205394" lon="6.627647">
        <ele>42.217856</ele>
        <time>2026-05-04T16:06:13.329Z</time>
      </trkpt>
      <trkpt lat="53.205389" lon="6.627440">
        <ele>42.016787</ele>
        <time>2026-05-04T16:06:15.332Z</time>
      </trkpt>
      <trkpt lat="53.205388" lon="6.627229">
        <ele>41.811993</ele>
        <time>2026-05-04T16:06:17.333Z</time>
      </trkpt>
      <trkpt lat="53.205393" lon="6.627021">
        <ele>41.609954</ele>
        <time>2026-05-04T16:06:19.327Z</time>
      </trkpt>
      <trkpt lat="53.205395" lon="6.626817">
        <ele>41.411934</ele>
        <time>2026-05-04T16:06:21.324Z</time>
      </trkpt>
      <trkpt lat="53.205395" lon="6.626622">
        <ele>41.222675</ele>
        <time>2026-05-04T16:06:23.330Z</time>
      </trkpt>
      <trkpt lat="53.205398" lon="6.626432">
        <ele>41.038205</ele>
        <time>2026-05-04T16:06:25.328Z</time>
      </trkpt>
      <trkpt lat="53.205405" lon="6.626252">
        <ele>40.863137</ele>
        <time>2026-05-04T16:06:27.332Z</time>
      </trkpt>
      <trkpt lat="53.205417" lon="6.626082">
        <ele>40.697000</ele>
        <time>2026-05-04T16:06:29.337Z</time>
      </trkpt>
      <trkpt lat="53.205424" lon="6.625921">
        <ele>40.540329</ele>
        <time>2026-05-04T16:06:31.331Z</time>
      </trkpt>
      <trkpt lat="53.205448" lon="6.625729">
        <ele>40.349967</ele>
        <time>2026-05-04T16:06:34.332Z</time>
      </trkpt>
      <trkpt lat="53.205543" lon="6.625692">
        <ele>40.191893</ele>
        <time>2026-05-04T16:06:37.331Z</time>
      </trkpt>
      <trkpt lat="53.205634" lon="6.625601">
        <ele>40.020006</ele>
        <time>2026-05-04T16:06:40.337Z</time>
      </trkpt>
      <trkpt lat="53.205684" lon="6.625411">
        <ele>39.818587</ele>
        <time>2026-05-04T16:06:43.337Z</time>
      </trkpt>
      <trkpt lat="53.205702" lon="6.625261">
        <ele>39.792110</ele>
        <time>2026-05-04T16:06:45.330Z</time>
      </trkpt>
      <trkpt lat="53.205722" lon="6.625111">
        <ele>39.853417</ele>
        <time>2026-05-04T16:06:47.330Z</time>
      </trkpt>
      <trkpt lat="53.205752" lon="6.624887">
        <ele>39.944989</ele>
        <time>2026-05-04T16:06:50.331Z</time>
      </trkpt>
      <trkpt lat="53.205774" lon="6.624729">
        <ele>40.009704</ele>
        <time>2026-05-04T16:06:52.336Z</time>
      </trkpt>
      <trkpt lat="53.205852" lon="6.624556">
        <ele>40.096092</ele>
        <time>2026-05-04T16:06:55.336Z</time>
      </trkpt>
      <trkpt lat="53.205934" lon="6.624492">
        <ele>40.156384</ele>
        <time>2026-05-04T16:06:57.330Z</time>
      </trkpt>
      <trkpt lat="53.206017" lon="6.624404">
        <ele>40.221875</ele>
        <time>2026-05-04T16:06:59.332Z</time>
      </trkpt>
      <trkpt lat="53.206111" lon="6.624320">
        <ele>40.292891</ele>
        <time>2026-05-04T16:07:01.360Z</time>
      </trkpt>
      <trkpt lat="53.206200" lon="6.624231">
        <ele>40.361993</ele>
        <time>2026-05-04T16:07:03.337Z</time>
      </trkpt>
      <trkpt lat="53.206279" lon="6.624154">
        <ele>40.422924</ele>
        <time>2026-05-04T16:07:05.334Z</time>
      </trkpt>
      <trkpt lat="53.206366" lon="6.624077">
        <ele>40.488512</ele>
        <time>2026-05-04T16:07:07.329Z</time>
      </trkpt>
      <trkpt lat="53.206449" lon="6.623995">
        <ele>40.552751</ele>
        <time>2026-05-04T16:07:09.343Z</time>
      </trkpt>
      <trkpt lat="53.206561" lon="6.623873">
        <ele>40.641826</ele>
        <time>2026-05-04T16:07:12.333Z</time>
      </trkpt>
      <trkpt lat="53.206639" lon="6.623793">
        <ele>40.702801</ele>
        <time>2026-05-04T16:07:14.335Z</time>
      </trkpt>
      <trkpt lat="53.206716" lon="6.623708">
        <ele>40.764286</ele>
        <time>2026-05-04T16:07:16.329Z</time>
      </trkpt>
      <trkpt lat="53.206809" lon="6.623656">
        <ele>40.829614</ele>
        <time>2026-05-04T16:07:18.332Z</time>
      </trkpt>
      <trkpt lat="53.206892" lon="6.623591">
        <ele>40.890678</ele>
        <time>2026-05-04T16:07:20.332Z</time>
      </trkpt>
      <trkpt lat="53.206975" lon="6.623508">
        <ele>40.954499</ele>
        <time>2026-05-04T16:07:22.331Z</time>
      </trkpt>
      <trkpt lat="53.207090" lon="6.623390">
        <ele>40.931033</ele>
        <time>2026-05-04T16:07:25.331Z</time>
      </trkpt>
      <trkpt lat="53.207171" lon="6.623308">
        <ele>40.914566</ele>
        <time>2026-05-04T16:07:27.334Z</time>
      </trkpt>
      <trkpt lat="53.207258" lon="6.623241">
        <ele>40.897910</ele>
        <time>2026-05-04T16:07:29.330Z</time>
      </trkpt>
      <trkpt lat="53.207335" lon="6.623162">
        <ele>40.882199</ele>
        <time>2026-05-04T16:07:31.329Z</time>
      </trkpt>
      <trkpt lat="53.207419" lon="6.623087">
        <ele>40.865639</ele>
        <time>2026-05-04T16:07:33.334Z</time>
      </trkpt>
      <trkpt lat="53.207504" lon="6.623006">
        <ele>40.848625</ele>
        <time>2026-05-04T16:07:35.335Z</time>
      </trkpt>
      <trkpt lat="53.207586" lon="6.622930">
        <ele>40.832321</ele>
        <time>2026-05-04T16:07:37.331Z</time>
      </trkpt>
      <trkpt lat="53.207671" lon="6.622845">
        <ele>40.815096</ele>
        <time>2026-05-04T16:07:39.331Z</time>
      </trkpt>
      <trkpt lat="53.207750" lon="6.622762">
        <ele>40.798870</ele>
        <time>2026-05-04T16:07:41.331Z</time>
      </trkpt>
      <trkpt lat="53.207835" lon="6.622689">
        <ele>40.782253</ele>
        <time>2026-05-04T16:07:43.332Z</time>
      </trkpt>
      <trkpt lat="53.207948" lon="6.622580">
        <ele>40.759566</ele>
        <time>2026-05-04T16:07:46.331Z</time>
      </trkpt>
      <trkpt lat="53.208030" lon="6.622496">
        <ele>40.742841</ele>
        <time>2026-05-04T16:07:48.330Z</time>
      </trkpt>
      <trkpt lat="53.208113" lon="6.622414">
        <ele>40.726076</ele>
        <time>2026-05-04T16:07:50.337Z</time>
      </trkpt>
      <trkpt lat="53.208227" lon="6.622302">
        <ele>40.703081</ele>
        <time>2026-05-04T16:07:53.336Z</time>
      </trkpt>
      <trkpt lat="53.208308" lon="6.622226">
        <ele>40.686929</ele>
        <time>2026-05-04T16:07:55.328Z</time>
      </trkpt>
      <trkpt lat="53.208394" lon="6.622152">
        <ele>40.670110</ele>
        <time>2026-05-04T16:07:57.331Z</time>
      </trkpt>
      <trkpt lat="53.208483" lon="6.622078">
        <ele>40.652825</ele>
        <time>2026-05-04T16:07:59.333Z</time>
      </trkpt>
      <trkpt lat="53.208561" lon="6.621994">
        <ele>40.637053</ele>
        <time>2026-05-04T16:08:01.334Z</time>
      </trkpt>
      <trkpt lat="53.208642" lon="6.621920">
        <ele>40.622112</ele>
        <time>2026-05-04T16:08:03.330Z</time>
      </trkpt>
      <trkpt lat="53.208762" lon="6.621803">
        <ele>40.599626</ele>
        <time>2026-05-04T16:08:06.332Z</time>
      </trkpt>
      <trkpt lat="53.208840" lon="6.621724">
        <ele>40.584864</ele>
        <time>2026-05-04T16:08:08.333Z</time>
      </trkpt>
      <trkpt lat="53.208956" lon="6.621614">
        <ele>40.563278</ele>
        <time>2026-05-04T16:08:11.333Z</time>
      </trkpt>
      <trkpt lat="53.209041" lon="6.621539">
        <ele>40.547721</ele>
        <time>2026-05-04T16:08:13.331Z</time>
      </trkpt>
      <trkpt lat="53.209116" lon="6.621447">
        <ele>40.532662</ele>
        <time>2026-05-04T16:08:15.332Z</time>
      </trkpt>
      <trkpt lat="53.209211" lon="6.621309">
        <ele>40.512286</ele>
        <time>2026-05-04T16:08:18.332Z</time>
      </trkpt>
      <trkpt lat="53.209287" lon="6.621213">
        <ele>40.496866</ele>
        <time>2026-05-04T16:08:20.332Z</time>
      </trkpt>
      <trkpt lat="53.209384" lon="6.621069">
        <ele>40.475863</ele>
        <time>2026-05-04T16:08:23.336Z</time>
      </trkpt>
      <trkpt lat="53.209488" lon="6.620925">
        <ele>40.454001</ele>
        <time>2026-05-04T16:08:26.330Z</time>
      </trkpt>
      <trkpt lat="53.209562" lon="6.620835">
        <ele>40.439187</ele>
        <time>2026-05-04T16:08:28.338Z</time>
      </trkpt>
      <trkpt lat="53.209623" lon="6.620718">
        <ele>40.424154</ele>
        <time>2026-05-04T16:08:30.330Z</time>
      </trkpt>
      <trkpt lat="53.209721" lon="6.620568">
        <ele>40.402641</ele>
        <time>2026-05-04T16:08:33.336Z</time>
      </trkpt>
      <trkpt lat="53.209798" lon="6.620466">
        <ele>40.386737</ele>
        <time>2026-05-04T16:08:35.328Z</time>
      </trkpt>
      <trkpt lat="53.209875" lon="6.620371">
        <ele>40.371245</ele>
        <time>2026-05-04T16:08:37.336Z</time>
      </trkpt>
      <trkpt lat="53.209974" lon="6.620220">
        <ele>40.351402</ele>
        <time>2026-05-04T16:08:40.335Z</time>
      </trkpt>
      <trkpt lat="53.210047" lon="6.620118">
        <ele>40.357213</ele>
        <time>2026-05-04T16:08:42.337Z</time>
      </trkpt>
      <trkpt lat="53.210123" lon="6.620013">
        <ele>40.363235</ele>
        <time>2026-05-04T16:08:44.328Z</time>
      </trkpt>
      <trkpt lat="53.210213" lon="6.619859">
        <ele>40.371102</ele>
        <time>2026-05-04T16:08:47.335Z</time>
      </trkpt>
      <trkpt lat="53.210314" lon="6.619716">
        <ele>40.379186</ele>
        <time>2026-05-04T16:08:50.336Z</time>
      </trkpt>
      <trkpt lat="53.210388" lon="6.619619">
        <ele>40.384930</ele>
        <time>2026-05-04T16:08:52.337Z</time>
      </trkpt>
      <trkpt lat="53.210457" lon="6.619510">
        <ele>40.390728</ele>
        <time>2026-05-04T16:08:54.328Z</time>
      </trkpt>
      <trkpt lat="53.210554" lon="6.619369">
        <ele>40.398580</ele>
        <time>2026-05-04T16:08:57.335Z</time>
      </trkpt>
      <trkpt lat="53.210656" lon="6.619232">
        <ele>40.406571</ele>
        <time>2026-05-04T16:09:00.333Z</time>
      </trkpt>
      <trkpt lat="53.210728" lon="6.619133">
        <ele>40.412265</ele>
        <time>2026-05-04T16:09:02.326Z</time>
      </trkpt>
      <trkpt lat="53.210821" lon="6.618984">
        <ele>40.420133</ele>
        <time>2026-05-04T16:09:05.332Z</time>
      </trkpt>
      <trkpt lat="53.210921" lon="6.618861">
        <ele>40.427716</ele>
        <time>2026-05-04T16:09:08.332Z</time>
      </trkpt>
      <trkpt lat="53.211026" lon="6.618719">
        <ele>40.435964</ele>
        <time>2026-05-04T16:09:11.332Z</time>
      </trkpt>
      <trkpt lat="53.211100" lon="6.618618">
        <ele>40.441799</ele>
        <time>2026-05-04T16:09:13.332Z</time>
      </trkpt>
      <trkpt lat="53.211202" lon="6.618491">
        <ele>40.449567</ele>
        <time>2026-05-04T16:09:16.331Z</time>
      </trkpt>
      <trkpt lat="53.211326" lon="6.618387">
        <ele>40.458038</ele>
        <time>2026-05-04T16:09:19.331Z</time>
      </trkpt>
      <trkpt lat="53.211407" lon="6.618298">
        <ele>40.484311</ele>
        <time>2026-05-04T16:09:21.330Z</time>
      </trkpt>
      <trkpt lat="53.211514" lon="6.618191">
        <ele>40.539490</ele>
        <time>2026-05-04T16:09:24.333Z</time>
      </trkpt>
      <trkpt lat="53.211632" lon="6.618074">
        <ele>40.600205</ele>
        <time>2026-05-04T16:09:27.330Z</time>
      </trkpt>
      <trkpt lat="53.211749" lon="6.617975">
        <ele>40.658235</ele>
        <time>2026-05-04T16:09:30.330Z</time>
      </trkpt>
      <trkpt lat="53.211825" lon="6.617895">
        <ele>40.697982</ele>
        <time>2026-05-04T16:09:32.332Z</time>
      </trkpt>
      <trkpt lat="53.211932" lon="6.617786">
        <ele>40.753434</ele>
        <time>2026-05-04T16:09:35.332Z</time>
      </trkpt>
      <trkpt lat="53.212026" lon="6.617690">
        <ele>40.802183</ele>
        <time>2026-05-04T16:09:38.335Z</time>
      </trkpt>
      <trkpt lat="53.212132" lon="6.617598">
        <ele>40.855036</ele>
        <time>2026-05-04T16:09:41.327Z</time>
      </trkpt>
      <trkpt lat="53.212223" lon="6.617495">
        <ele>40.903674</ele>
        <time>2026-05-04T16:09:44.336Z</time>
      </trkpt>
      <trkpt lat="53.212220" lon="6.617306">
        <ele>40.953766</ele>
        <time>2026-05-04T16:09:47.336Z</time>
      </trkpt>
      <trkpt lat="53.212153" lon="6.617115">
        <ele>41.012413</ele>
        <time>2026-05-04T16:09:50.335Z</time>
      </trkpt>
      <trkpt lat="53.212103" lon="6.616973">
        <ele>41.056056</ele>
        <time>2026-05-04T16:09:52.335Z</time>
      </trkpt>
      <trkpt lat="53.212059" lon="6.616837">
        <ele>41.097011</ele>
        <time>2026-05-04T16:09:54.334Z</time>
      </trkpt>
      <trkpt lat="53.212003" lon="6.616658">
        <ele>41.150518</ele>
        <time>2026-05-04T16:09:57.334Z</time>
      </trkpt>
      <trkpt lat="53.211952" lon="6.616493">
        <ele>41.199713</ele>
        <time>2026-05-04T16:10:00.331Z</time>
      </trkpt>
      <trkpt lat="53.211884" lon="6.616307">
        <ele>41.254879</ele>
        <time>2026-05-04T16:10:03.331Z</time>
      </trkpt>
      <trkpt lat="53.211817" lon="6.616115">
        <ele>41.161719</ele>
        <time>2026-05-04T16:10:06.327Z</time>
      </trkpt>
      <trkpt lat="53.211757" lon="6.615920">
        <ele>41.069810</ele>
        <time>2026-05-04T16:10:09.332Z</time>
      </trkpt>
      <trkpt lat="53.211693" lon="6.615744">
        <ele>40.983488</ele>
        <time>2026-05-04T16:10:12.332Z</time>
      </trkpt>
      <trkpt lat="53.211627" lon="6.615563">
        <ele>40.894647</ele>
        <time>2026-05-04T16:10:15.330Z</time>
      </trkpt>
      <trkpt lat="53.211566" lon="6.615361">
        <ele>40.799805</ele>
        <time>2026-05-04T16:10:18.330Z</time>
      </trkpt>
      <trkpt lat="53.211519" lon="6.615225">
        <ele>40.733977</ele>
        <time>2026-05-04T16:10:20.331Z</time>
      </trkpt>
      <trkpt lat="53.211447" lon="6.615045">
        <ele>40.643230</ele>
        <time>2026-05-04T16:10:23.330Z</time>
      </trkpt>
      <trkpt lat="53.211392" lon="6.614875">
        <ele>40.562225</ele>
        <time>2026-05-04T16:10:26.331Z</time>
      </trkpt>
      <trkpt lat="53.211334" lon="6.614700">
        <ele>40.478373</ele>
        <time>2026-05-04T16:10:29.330Z</time>
      </trkpt>
      <trkpt lat="53.211293" lon="6.614560">
        <ele>40.413038</ele>
        <time>2026-05-04T16:10:31.337Z</time>
      </trkpt>
      <trkpt lat="53.211235" lon="6.614387">
        <ele>40.329918</ele>
        <time>2026-05-04T16:10:34.330Z</time>
      </trkpt>
      <trkpt lat="53.211166" lon="6.614193">
        <ele>40.235324</ele>
        <time>2026-05-04T16:10:37.330Z</time>
      </trkpt>
      <trkpt lat="53.211122" lon="6.614060">
        <ele>40.171623</ele>
        <time>2026-05-04T16:10:39.330Z</time>
      </trkpt>
      <trkpt lat="53.211073" lon="6.613926">
        <ele>40.105801</ele>
        <time>2026-05-04T16:10:41.330Z</time>
      </trkpt>
      <trkpt lat="53.211012" lon="6.613741">
        <ele>40.017263</ele>
        <time>2026-05-04T16:10:44.334Z</time>
      </trkpt>
      <trkpt lat="53.210953" lon="6.613556">
        <ele>40.037560</ele>
        <time>2026-05-04T16:10:47.334Z</time>
      </trkpt>
      <trkpt lat="53.210896" lon="6.613385">
        <ele>40.086168</ele>
        <time>2026-05-04T16:10:50.333Z</time>
      </trkpt>
      <trkpt lat="53.210825" lon="6.613201">
        <ele>40.140534</ele>
        <time>2026-05-04T16:10:53.334Z</time>
      </trkpt>
      <trkpt lat="53.210765" lon="6.613015">
        <ele>40.193007</ele>
        <time>2026-05-04T16:10:56.332Z</time>
      </trkpt>
      <trkpt lat="53.210708" lon="6.612853">
        <ele>40.239674</ele>
        <time>2026-05-04T16:10:59.326Z</time>
      </trkpt>
      <trkpt lat="53.210656" lon="6.612698">
        <ele>40.283802</ele>
        <time>2026-05-04T16:11:02.330Z</time>
      </trkpt>
      <trkpt lat="53.210609" lon="6.612566">
        <ele>40.321944</ele>
        <time>2026-05-04T16:11:05.332Z</time>
      </trkpt>
      <trkpt lat="53.210561" lon="6.612434">
        <ele>40.360301</ele>
        <time>2026-05-04T16:11:08.324Z</time>
      </trkpt>
      <trkpt lat="53.210463" lon="6.612438">
        <ele>40.400957</ele>
        <time>2026-05-04T16:11:12.331Z</time>
      </trkpt>
      <trkpt lat="53.210552" lon="6.612395">
        <ele>40.439383</ele>
        <time>2026-05-04T16:11:24.336Z</time>
      </trkpt>
      <trkpt lat="53.210644" lon="6.612319">
        <ele>40.481952</ele>
        <time>2026-05-04T16:11:27.328Z</time>
      </trkpt>
      <trkpt lat="53.210740" lon="6.612230">
        <ele>40.527492</ele>
        <time>2026-05-04T16:11:30.330Z</time>
      </trkpt>
      <trkpt lat="53.210834" lon="6.612130">
        <ele>40.573717</ele>
        <time>2026-05-04T16:11:33.334Z</time>
      </trkpt>
      <trkpt lat="53.210939" lon="6.612036">
        <ele>40.623128</ele>
        <time>2026-05-04T16:11:36.329Z</time>
      </trkpt>
      <trkpt lat="53.211043" lon="6.611948">
        <ele>40.671483</ele>
        <time>2026-05-04T16:11:39.331Z</time>
      </trkpt>
      <trkpt lat="53.211138" lon="6.611863">
        <ele>40.716182</ele>
        <time>2026-05-04T16:11:42.328Z</time>
      </trkpt>
      <trkpt lat="53.211240" lon="6.611765">
        <ele>40.766605</ele>
        <time>2026-05-04T16:11:45.330Z</time>
      </trkpt>
      <trkpt lat="53.211343" lon="6.611673">
        <ele>40.818658</ele>
        <time>2026-05-04T16:11:48.326Z</time>
      </trkpt>
      <trkpt lat="53.211444" lon="6.611573">
        <ele>40.870982</ele>
        <time>2026-05-04T16:11:51.325Z</time>
      </trkpt>
      <trkpt lat="53.211548" lon="6.611468">
        <ele>40.925139</ele>
        <time>2026-05-04T16:11:54.331Z</time>
      </trkpt>
      <trkpt lat="53.211659" lon="6.611352">
        <ele>40.983492</ele>
        <time>2026-05-04T16:11:57.328Z</time>
      </trkpt>
      <trkpt lat="53.211771" lon="6.611227">
        <ele>41.043523</ele>
        <time>2026-05-04T16:12:00.331Z</time>
      </trkpt>
      <trkpt lat="53.211876" lon="6.611090">
        <ele>41.102903</ele>
        <time>2026-05-04T16:12:03.330Z</time>
      </trkpt>
      <trkpt lat="53.211963" lon="6.610927">
        <ele>41.161171</ele>
        <time>2026-05-04T16:12:06.327Z</time>
      </trkpt>
      <trkpt lat="53.212026" lon="6.610815">
        <ele>41.202177</ele>
        <time>2026-05-04T16:12:08.330Z</time>
      </trkpt>
      <trkpt lat="53.212084" lon="6.610685">
        <ele>41.245438</ele>
        <time>2026-05-04T16:12:10.330Z</time>
      </trkpt>
      <trkpt lat="53.212142" lon="6.610538">
        <ele>41.292416</ele>
        <time>2026-05-04T16:12:12.325Z</time>
      </trkpt>
      <trkpt lat="53.212209" lon="6.610338">
        <ele>41.353572</ele>
        <time>2026-05-04T16:12:15.328Z</time>
      </trkpt>
      <trkpt lat="53.212240" lon="6.610184">
        <ele>41.396928</ele>
        <time>2026-05-04T16:12:17.331Z</time>
      </trkpt>
      <trkpt lat="53.212282" lon="6.610045">
        <ele>41.438476</ele>
        <time>2026-05-04T16:12:19.336Z</time>
      </trkpt>
      <trkpt lat="53.212318" lon="6.609904">
        <ele>41.479381</ele>
        <time>2026-05-04T16:12:21.329Z</time>
      </trkpt>
      <trkpt lat="53.212342" lon="6.609729">
        <ele>41.527290</ele>
        <time>2026-05-04T16:12:23.344Z</time>
      </trkpt>
      <trkpt lat="53.212354" lon="6.609576">
        <ele>41.529751</ele>
        <time>2026-05-04T16:12:25.332Z</time>
      </trkpt>
      <trkpt lat="53.212382" lon="6.609423">
        <ele>41.502621</ele>
        <time>2026-05-04T16:12:27.335Z</time>
      </trkpt>
      <trkpt lat="53.212405" lon="6.609265">
        <ele>41.475047</ele>
        <time>2026-05-04T16:12:29.329Z</time>
      </trkpt>
      <trkpt lat="53.212424" lon="6.609105">
        <ele>41.447386</ele>
        <time>2026-05-04T16:12:31.329Z</time>
      </trkpt>
      <trkpt lat="53.212442" lon="6.608953">
        <ele>41.421110</ele>
        <time>2026-05-04T16:12:33.330Z</time>
      </trkpt>
      <trkpt lat="53.212465" lon="6.608794">
        <ele>41.393372</ele>
        <time>2026-05-04T16:12:35.335Z</time>
      </trkpt>
      <trkpt lat="53.212484" lon="6.608630">
        <ele>41.365045</ele>
        <time>2026-05-04T16:12:37.331Z</time>
      </trkpt>
      <trkpt lat="53.212507" lon="6.608466">
        <ele>41.336481</ele>
        <time>2026-05-04T16:12:39.334Z</time>
      </trkpt>
      <trkpt lat="53.212529" lon="6.608310">
        <ele>41.309303</ele>
        <time>2026-05-04T16:12:41.330Z</time>
      </trkpt>
      <trkpt lat="53.212551" lon="6.608146">
        <ele>41.280802</ele>
        <time>2026-05-04T16:12:43.335Z</time>
      </trkpt>
      <trkpt lat="53.212569" lon="6.607998">
        <ele>41.255192</ele>
        <time>2026-05-04T16:12:45.335Z</time>
      </trkpt>
      <trkpt lat="53.212593" lon="6.607838">
        <ele>41.227221</ele>
        <time>2026-05-04T16:12:47.328Z</time>
      </trkpt>
      <trkpt lat="53.212611" lon="6.607687">
        <ele>41.201112</ele>
        <time>2026-05-04T16:12:49.335Z</time>
      </trkpt>
      <trkpt lat="53.212644" lon="6.607486">
        <ele>41.165769</ele>
        <time>2026-05-04T16:12:52.334Z</time>
      </trkpt>
      <trkpt lat="53.212675" lon="6.607285">
        <ele>41.130571</ele>
        <time>2026-05-04T16:12:55.330Z</time>
      </trkpt>
      <trkpt lat="53.212694" lon="6.607132">
        <ele>41.104073</ele>
        <time>2026-05-04T16:12:57.332Z</time>
      </trkpt>
      <trkpt lat="53.212724" lon="6.606972">
        <ele>41.075642</ele>
        <time>2026-05-04T16:12:59.333Z</time>
      </trkpt>
      <trkpt lat="53.212761" lon="6.606834">
        <ele>41.050001</ele>
        <time>2026-05-04T16:13:01.341Z</time>
      </trkpt>
      <trkpt lat="53.212804" lon="6.606702">
        <ele>41.072707</ele>
        <time>2026-05-04T16:13:03.330Z</time>
      </trkpt>
      <trkpt lat="53.212855" lon="6.606563">
        <ele>41.166819</ele>
        <time>2026-05-04T16:13:05.330Z</time>
      </trkpt>
      <trkpt lat="53.212911" lon="6.606430">
        <ele>41.260682</ele>
        <time>2026-05-04T16:13:07.332Z</time>
      </trkpt>
      <trkpt lat="53.212986" lon="6.606320">
        <ele>41.356915</ele>
        <time>2026-05-04T16:13:09.331Z</time>
      </trkpt>
      <trkpt lat="53.213088" lon="6.606176">
        <ele>41.485681</ele>
        <time>2026-05-04T16:13:12.338Z</time>
      </trkpt>
      <trkpt lat="53.213187" lon="6.606041">
        <ele>41.608902</ele>
        <time>2026-05-04T16:13:15.330Z</time>
      </trkpt>
      <trkpt lat="53.213307" lon="6.605917">
        <ele>41.744946</ele>
        <time>2026-05-04T16:13:18.329Z</time>
      </trkpt>
      <trkpt lat="53.213388" lon="6.605832">
        <ele>41.837173</ele>
        <time>2026-05-04T16:13:20.333Z</time>
      </trkpt>
      <trkpt lat="53.213505" lon="6.605730">
        <ele>41.964414</ele>
        <time>2026-05-04T16:13:23.331Z</time>
      </trkpt>
      <trkpt lat="53.213618" lon="6.605619">
        <ele>42.090802</ele>
        <time>2026-05-04T16:13:26.354Z</time>
      </trkpt>
      <trkpt lat="53.213693" lon="6.605533">
        <ele>42.178511</ele>
        <time>2026-05-04T16:13:28.330Z</time>
      </trkpt>
      <trkpt lat="53.213771" lon="6.605452">
        <ele>42.267061</ele>
        <time>2026-05-04T16:13:30.332Z</time>
      </trkpt>
      <trkpt lat="53.213848" lon="6.605367">
        <ele>42.356047</ele>
        <time>2026-05-04T16:13:32.331Z</time>
      </trkpt>
      <trkpt lat="53.213980" lon="6.605308">
        <ele>42.487781</ele>
        <time>2026-05-04T16:13:35.347Z</time>
      </trkpt>
      <trkpt lat="53.214081" lon="6.605216">
        <ele>42.598695</ele>
        <time>2026-05-04T16:13:38.332Z</time>
      </trkpt>
      <trkpt lat="53.214189" lon="6.605106">
        <ele>42.720650</ele>
        <time>2026-05-04T16:13:41.327Z</time>
      </trkpt>
      <trkpt lat="53.214293" lon="6.605015">
        <ele>42.766000</ele>
        <time>2026-05-04T16:13:44.329Z</time>
      </trkpt>
      <trkpt lat="53.214382" lon="6.604927">
        <ele>42.760655</ele>
        <time>2026-05-04T16:13:47.335Z</time>
      </trkpt>
      <trkpt lat="53.214397" lon="6.604735">
        <ele>42.754663</ele>
        <time>2026-05-04T16:13:51.333Z</time>
      </trkpt>
      <trkpt lat="53.214360" lon="6.604536">
        <ele>42.748214</ele>
        <time>2026-05-04T16:13:54.332Z</time>
      </trkpt>
      <trkpt lat="53.214329" lon="6.604339">
        <ele>42.741910</ele>
        <time>2026-05-04T16:13:57.332Z</time>
      </trkpt>
      <trkpt lat="53.214295" lon="6.604194">
        <ele>42.737091</ele>
        <time>2026-05-04T16:13:59.332Z</time>
      </trkpt>
      <trkpt lat="53.214265" lon="6.604031">
        <ele>42.731813</ele>
        <time>2026-05-04T16:14:01.331Z</time>
      </trkpt>
      <trkpt lat="53.214240" lon="6.603882">
        <ele>42.727024</ele>
        <time>2026-05-04T16:14:03.330Z</time>
      </trkpt>
      <trkpt lat="53.214226" lon="6.603726">
        <ele>42.722142</ele>
        <time>2026-05-04T16:14:05.330Z</time>
      </trkpt>
      <trkpt lat="53.214204" lon="6.603513">
        <ele>42.715453</ele>
        <time>2026-05-04T16:14:08.330Z</time>
      </trkpt>
      <trkpt lat="53.214196" lon="6.603327">
        <ele>42.709682</ele>
        <time>2026-05-04T16:14:11.338Z</time>
      </trkpt>
      <trkpt lat="53.214176" lon="6.603150">
        <ele>42.704107</ele>
        <time>2026-05-04T16:14:14.339Z</time>
      </trkpt>
      <trkpt lat="53.214138" lon="6.602982">
        <ele>42.698549</ele>
        <time>2026-05-04T16:14:17.330Z</time>
      </trkpt>
      <trkpt lat="53.214074" lon="6.602836">
        <ele>42.692949</ele>
        <time>2026-05-04T16:14:20.336Z</time>
      </trkpt>
      <trkpt lat="53.214048" lon="6.602646">
        <ele>42.686918</ele>
        <time>2026-05-04T16:14:23.331Z</time>
      </trkpt>
      <trkpt lat="53.214104" lon="6.602456">
        <ele>42.680364</ele>
        <time>2026-05-04T16:14:26.354Z</time>
      </trkpt>
      <trkpt lat="53.214195" lon="6.602353">
        <ele>42.690308</ele>
        <time>2026-05-04T16:14:29.335Z</time>
      </trkpt>
      <trkpt lat="53.214321" lon="6.602332">
        <ele>42.740183</ele>
        <time>2026-05-04T16:14:32.331Z</time>
      </trkpt>
      <trkpt lat="53.214431" lon="6.602409">
        <ele>42.787161</ele>
        <time>2026-05-04T16:14:35.335Z</time>
      </trkpt>
      <trkpt lat="53.214542" lon="6.602425">
        <ele>42.831044</ele>
        <time>2026-05-04T16:14:39.334Z</time>
      </trkpt>
      <trkpt lat="53.214651" lon="6.602367">
        <ele>42.876103</ele>
        <time>2026-05-04T16:14:42.325Z</time>
      </trkpt>
      <trkpt lat="53.214752" lon="6.602303">
        <ele>42.918652</ele>
        <time>2026-05-04T16:14:45.335Z</time>
      </trkpt>
      <trkpt lat="53.214864" lon="6.602225">
        <ele>42.966448</ele>
        <time>2026-05-04T16:14:48.332Z</time>
      </trkpt>
      <trkpt lat="53.214976" lon="6.602219">
        <ele>43.010585</ele>
        <time>2026-05-04T16:14:51.333Z</time>
      </trkpt>
      <trkpt lat="53.215065" lon="6.602152">
        <ele>43.049037</ele>
        <time>2026-05-04T16:14:54.333Z</time>
      </trkpt>
      <trkpt lat="53.215046" lon="6.601972">
        <ele>43.092146</ele>
        <time>2026-05-04T16:14:56.340Z</time>
      </trkpt>
      <trkpt lat="53.214988" lon="6.601783">
        <ele>43.142236</ele>
        <time>2026-05-04T16:14:59.341Z</time>
      </trkpt>
      <trkpt lat="53.214920" lon="6.601589">
        <ele>43.195255</ele>
        <time>2026-05-04T16:15:02.329Z</time>
      </trkpt>
      <trkpt lat="53.214863" lon="6.601465">
        <ele>43.232125</ele>
        <time>2026-05-04T16:15:04.326Z</time>
      </trkpt>
      <trkpt lat="53.214802" lon="6.601347">
        <ele>43.268892</ele>
        <time>2026-05-04T16:15:06.332Z</time>
      </trkpt>
      <trkpt lat="53.214756" lon="6.601210">
        <ele>43.305938</ele>
        <time>2026-05-04T16:15:08.329Z</time>
      </trkpt>
      <trkpt lat="53.214709" lon="6.601078">
        <ele>43.342159</ele>
        <time>2026-05-04T16:15:10.331Z</time>
      </trkpt>
      <trkpt lat="53.214641" lon="6.600889">
        <ele>43.382867</ele>
        <time>2026-05-04T16:15:13.331Z</time>
      </trkpt>
      <trkpt lat="53.214571" lon="6.600709">
        <ele>43.371530</ele>
        <time>2026-05-04T16:15:16.337Z</time>
      </trkpt>
      <trkpt lat="53.214479" lon="6.600555">
        <ele>43.360040</ele>
        <time>2026-05-04T16:15:19.330Z</time>
      </trkpt>
      <trkpt lat="53.214396" lon="6.600383">
        <ele>43.348372</ele>
        <time>2026-05-04T16:15:22.335Z</time>
      </trkpt>
      <trkpt lat="53.214343" lon="6.600182">
        <ele>43.336771</ele>
        <time>2026-05-04T16:15:25.327Z</time>
      </trkpt>
      <trkpt lat="53.214302" lon="6.600028">
        <ele>43.327869</ele>
        <time>2026-05-04T16:15:27.331Z</time>
      </trkpt>
      <trkpt lat="53.214289" lon="6.599864">
        <ele>43.319130</ele>
        <time>2026-05-04T16:15:29.330Z</time>
      </trkpt>
      <trkpt lat="53.214256" lon="6.599663">
        <ele>43.308121</ele>
        <time>2026-05-04T16:15:32.333Z</time>
      </trkpt>
      <trkpt lat="53.214232" lon="6.599498">
        <ele>43.299152</ele>
        <time>2026-05-04T16:15:34.329Z</time>
      </trkpt>
      <trkpt lat="53.214212" lon="6.599351">
        <ele>43.291189</ele>
        <time>2026-05-04T16:15:36.330Z</time>
      </trkpt>
      <trkpt lat="53.214195" lon="6.599187">
        <ele>43.282398</ele>
        <time>2026-05-04T16:15:38.328Z</time>
      </trkpt>
      <trkpt lat="53.214181" lon="6.599012">
        <ele>43.273072</ele>
        <time>2026-05-04T16:15:40.326Z</time>
      </trkpt>
      <trkpt lat="53.214174" lon="6.598855">
        <ele>43.264756</ele>
        <time>2026-05-04T16:15:42.336Z</time>
      </trkpt>
      <trkpt lat="53.214163" lon="6.598700">
        <ele>43.256511</ele>
        <time>2026-05-04T16:15:44.334Z</time>
      </trkpt>
      <trkpt lat="53.214149" lon="6.598540">
        <ele>43.247970</ele>
        <time>2026-05-04T16:15:46.329Z</time>
      </trkpt>
      <trkpt lat="53.214122" lon="6.598376">
        <ele>43.238985</ele>
        <time>2026-05-04T16:15:48.330Z</time>
      </trkpt>
      <trkpt lat="53.214086" lon="6.598208">
        <ele>43.229560</ele>
        <time>2026-05-04T16:15:50.332Z</time>
      </trkpt>
      <trkpt lat="53.214047" lon="6.598051">
        <ele>43.181490</ele>
        <time>2026-05-04T16:15:52.336Z</time>
      </trkpt>
      <trkpt lat="53.214010" lon="6.597896">
        <ele>43.112174</ele>
        <time>2026-05-04T16:15:54.332Z</time>
      </trkpt>
      <trkpt lat="53.213974" lon="6.597733">
        <ele>43.040002</ele>
        <time>2026-05-04T16:15:56.330Z</time>
      </trkpt>
      <trkpt lat="53.213940" lon="6.597575">
        <ele>42.970258</ele>
        <time>2026-05-04T16:15:58.339Z</time>
      </trkpt>
      <trkpt lat="53.213904" lon="6.597404">
        <ele>42.894960</ele>
        <time>2026-05-04T16:16:00.333Z</time>
      </trkpt>
      <trkpt lat="53.213873" lon="6.597230">
        <ele>42.819546</ele>
        <time>2026-05-04T16:16:02.331Z</time>
      </trkpt>
      <trkpt lat="53.213836" lon="6.597062">
        <ele>42.745186</ele>
        <time>2026-05-04T16:16:04.331Z</time>
      </trkpt>
      <trkpt lat="53.213805" lon="6.596908">
        <ele>42.677694</ele>
        <time>2026-05-04T16:16:06.332Z</time>
      </trkpt>
      <trkpt lat="53.213763" lon="6.596755">
        <ele>42.607776</ele>
        <time>2026-05-04T16:16:08.328Z</time>
      </trkpt>
      <trkpt lat="53.213720" lon="6.596595">
        <ele>42.534922</ele>
        <time>2026-05-04T16:16:10.331Z</time>
      </trkpt>
      <trkpt lat="53.213687" lon="6.596433">
        <ele>42.463838</ele>
        <time>2026-05-04T16:16:12.329Z</time>
      </trkpt>
      <trkpt lat="53.213661" lon="6.596274">
        <ele>42.395368</ele>
        <time>2026-05-04T16:16:14.329Z</time>
      </trkpt>
      <trkpt lat="53.213645" lon="6.596118">
        <ele>42.329619</ele>
        <time>2026-05-04T16:16:16.330Z</time>
      </trkpt>
      <trkpt lat="53.213630" lon="6.595945">
        <ele>42.257002</ele>
        <time>2026-05-04T16:16:18.328Z</time>
      </trkpt>
      <trkpt lat="53.213629" lon="6.595784">
        <ele>42.190117</ele>
        <time>2026-05-04T16:16:20.326Z</time>
      </trkpt>
      <trkpt lat="53.213637" lon="6.595623">
        <ele>42.123004</ele>
        <time>2026-05-04T16:16:22.327Z</time>
      </trkpt>
      <trkpt lat="53.213654" lon="6.595471">
        <ele>42.058769</ele>
        <time>2026-05-04T16:16:24.335Z</time>
      </trkpt>
      <trkpt lat="53.213699" lon="6.595334">
        <ele>41.993858</ele>
        <time>2026-05-04T16:16:26.341Z</time>
      </trkpt>
      <trkpt lat="53.213754" lon="6.595200">
        <ele>42.032904</ele>
        <time>2026-05-04T16:16:28.334Z</time>
      </trkpt>
      <trkpt lat="53.213830" lon="6.595023">
        <ele>42.127202</ele>
        <time>2026-05-04T16:16:31.331Z</time>
      </trkpt>
      <trkpt lat="53.213814" lon="6.594848">
        <ele>42.203848</ele>
        <time>2026-05-04T16:16:34.330Z</time>
      </trkpt>
      <trkpt lat="53.213837" lon="6.594670">
        <ele>42.282688</ele>
        <time>2026-05-04T16:16:37.332Z</time>
      </trkpt>
      <trkpt lat="53.213852" lon="6.594493">
        <ele>42.360086</ele>
        <time>2026-05-04T16:16:40.331Z</time>
      </trkpt>
      <trkpt lat="53.213817" lon="6.594345">
        <ele>42.428979</ele>
        <time>2026-05-04T16:16:43.330Z</time>
      </trkpt>
      <trkpt lat="53.213817" lon="6.594170">
        <ele>42.504747</ele>
        <time>2026-05-04T16:16:46.331Z</time>
      </trkpt>
      <trkpt lat="53.213925" lon="6.594073">
        <ele>42.593409</ele>
        <time>2026-05-04T16:16:49.332Z</time>
      </trkpt>
      <trkpt lat="53.214020" lon="6.594130">
        <ele>42.666394</ele>
        <time>2026-05-04T16:16:51.332Z</time>
      </trkpt>
      <trkpt lat="53.214159" lon="6.594129">
        <ele>42.766893</ele>
        <time>2026-05-04T16:16:54.330Z</time>
      </trkpt>
      <trkpt lat="53.214254" lon="6.594094">
        <ele>42.837230</ele>
        <time>2026-05-04T16:16:56.328Z</time>
      </trkpt>
      <trkpt lat="53.214384" lon="6.594040">
        <ele>42.934085</ele>
        <time>2026-05-04T16:16:59.326Z</time>
      </trkpt>
      <trkpt lat="53.214476" lon="6.594001">
        <ele>43.002712</ele>
        <time>2026-05-04T16:17:01.336Z</time>
      </trkpt>
      <trkpt lat="53.214564" lon="6.593965">
        <ele>43.068218</ele>
        <time>2026-05-04T16:17:03.328Z</time>
      </trkpt>
      <trkpt lat="53.214656" lon="6.593925">
        <ele>43.136952</ele>
        <time>2026-05-04T16:17:05.328Z</time>
      </trkpt>
      <trkpt lat="53.214746" lon="6.593897">
        <ele>43.203142</ele>
        <time>2026-05-04T16:17:07.326Z</time>
      </trkpt>
      <trkpt lat="53.214835" lon="6.593868">
        <ele>43.268703</ele>
        <time>2026-05-04T16:17:09.326Z</time>
      </trkpt>
      <trkpt lat="53.214925" lon="6.593836">
        <ele>43.221303</ele>
        <time>2026-05-04T16:17:11.328Z</time>
      </trkpt>
      <trkpt lat="53.215050" lon="6.593783">
        <ele>43.125737</ele>
        <time>2026-05-04T16:17:14.328Z</time>
      </trkpt>
      <trkpt lat="53.215174" lon="6.593727">
        <ele>43.030550</ele>
        <time>2026-05-04T16:17:17.325Z</time>
      </trkpt>
      <trkpt lat="53.215298" lon="6.593671">
        <ele>42.935362</ele>
        <time>2026-05-04T16:17:20.328Z</time>
      </trkpt>
      <trkpt lat="53.215415" lon="6.593614">
        <ele>42.845049</ele>
        <time>2026-05-04T16:17:23.330Z</time>
      </trkpt>
      <trkpt lat="53.215497" lon="6.593535">
        <ele>42.774899</ele>
        <time>2026-05-04T16:17:26.328Z</time>
      </trkpt>
      <trkpt lat="53.215490" lon="6.593337">
        <ele>42.686888</ele>
        <time>2026-05-04T16:17:29.332Z</time>
      </trkpt>
      <trkpt lat="53.215466" lon="6.593178">
        <ele>42.614128</ele>
        <time>2026-05-04T16:17:31.332Z</time>
      </trkpt>
      <trkpt lat="53.215448" lon="6.593020">
        <ele>42.542761</ele>
        <time>2026-05-04T16:17:33.332Z</time>
      </trkpt>
      <trkpt lat="53.215444" lon="6.592865">
        <ele>42.473919</ele>
        <time>2026-05-04T16:17:35.331Z</time>
      </trkpt>
      <trkpt lat="53.215454" lon="6.592697">
        <ele>42.399006</ele>
        <time>2026-05-04T16:17:37.328Z</time>
      </trkpt>
      <trkpt lat="53.215479" lon="6.592535">
        <ele>42.324773</ele>
        <time>2026-05-04T16:17:39.332Z</time>
      </trkpt>
      <trkpt lat="53.215510" lon="6.592381">
        <ele>42.252681</ele>
        <time>2026-05-04T16:17:41.331Z</time>
      </trkpt>
      <trkpt lat="53.215532" lon="6.592155">
        <ele>42.151082</ele>
        <time>2026-05-04T16:17:44.334Z</time>
      </trkpt>
      <trkpt lat="53.215524" lon="6.591993">
        <ele>42.078954</ele>
        <time>2026-05-04T16:17:46.328Z</time>
      </trkpt>
      <trkpt lat="53.215483" lon="6.591858">
        <ele>42.011786</ele>
        <time>2026-05-04T16:17:48.330Z</time>
      </trkpt>
      <trkpt lat="53.215403" lon="6.591683">
        <ele>41.945616</ele>
        <time>2026-05-04T16:17:51.332Z</time>
      </trkpt>
      <trkpt lat="53.215356" lon="6.591554">
        <ele>41.944527</ele>
        <time>2026-05-04T16:17:53.332Z</time>
      </trkpt>
      <trkpt lat="53.215308" lon="6.591410">
        <ele>41.943338</ele>
        <time>2026-05-04T16:17:55.328Z</time>
      </trkpt>
      <trkpt lat="53.215256" lon="6.591273">
        <ele>41.942168</ele>
        <time>2026-05-04T16:17:57.336Z</time>
      </trkpt>
      <trkpt lat="53.215205" lon="6.591133">
        <ele>41.940985</ele>
        <time>2026-05-04T16:17:59.327Z</time>
      </trkpt>
      <trkpt lat="53.215129" lon="6.590942">
        <ele>41.939331</ele>
        <time>2026-05-04T16:18:02.330Z</time>
      </trkpt>
      <trkpt lat="53.215081" lon="6.590807">
        <ele>41.938198</ele>
        <time>2026-05-04T16:18:04.337Z</time>
      </trkpt>
      <trkpt lat="53.215020" lon="6.590606">
        <ele>41.936572</ele>
        <time>2026-05-04T16:18:07.326Z</time>
      </trkpt>
      <trkpt lat="53.214974" lon="6.590477">
        <ele>41.935489</ele>
        <time>2026-05-04T16:18:09.330Z</time>
      </trkpt>
      <trkpt lat="53.214926" lon="6.590338">
        <ele>41.934332</ele>
        <time>2026-05-04T16:18:11.335Z</time>
      </trkpt>
      <trkpt lat="53.214885" lon="6.590135">
        <ele>41.932786</ele>
        <time>2026-05-04T16:18:14.330Z</time>
      </trkpt>
      <trkpt lat="53.214947" lon="6.589949">
        <ele>41.931250</ele>
        <time>2026-05-04T16:18:17.350Z</time>
      </trkpt>
      <trkpt lat="53.215047" lon="6.589796">
        <ele>41.929616</ele>
        <time>2026-05-04T16:18:20.328Z</time>
      </trkpt>
      <trkpt lat="53.215119" lon="6.589684">
        <ele>41.928430</ele>
        <time>2026-05-04T16:18:22.328Z</time>
      </trkpt>
      <trkpt lat="53.215205" lon="6.589529">
        <ele>41.926906</ele>
        <time>2026-05-04T16:18:25.328Z</time>
      </trkpt>
      <trkpt lat="53.215214" lon="6.589331">
        <ele>41.925473</ele>
        <time>2026-05-04T16:18:28.332Z</time>
      </trkpt>
      <trkpt lat="53.215124" lon="6.589162">
        <ele>41.993150</ele>
        <time>2026-05-04T16:18:31.328Z</time>
      </trkpt>
      <trkpt lat="53.215043" lon="6.589012">
        <ele>42.153261</ele>
        <time>2026-05-04T16:18:34.329Z</time>
      </trkpt>
      <trkpt lat="53.215080" lon="6.588829">
        <ele>42.306370</ele>
        <time>2026-05-04T16:18:37.334Z</time>
      </trkpt>
      <trkpt lat="53.215139" lon="6.588696">
        <ele>42.437577</ele>
        <time>2026-05-04T16:18:41.333Z</time>
      </trkpt>
      <trkpt lat="53.215050" lon="6.588790">
        <ele>42.576979</ele>
        <time>2026-05-04T16:18:48.329Z</time>
      </trkpt>
      <trkpt lat="53.214941" lon="6.588750">
        <ele>42.724714</ele>
        <time>2026-05-04T16:18:52.334Z</time>
      </trkpt>
      <trkpt lat="53.214867" lon="6.588661">
        <ele>42.845434</ele>
        <time>2026-05-04T16:18:55.336Z</time>
      </trkpt>
      <trkpt lat="53.214797" lon="6.588533">
        <ele>42.982846</ele>
        <time>2026-05-04T16:18:59.335Z</time>
      </trkpt>
      <trkpt lat="53.214717" lon="6.588411">
        <ele>43.126262</ele>
        <time>2026-05-04T16:19:04.329Z</time>
      </trkpt>
      <trkpt lat="53.214621" lon="6.588279">
        <ele>43.290879</ele>
        <time>2026-05-04T16:19:09.334Z</time>
      </trkpt>
      <trkpt lat="53.214527" lon="6.588220">
        <ele>43.423813</ele>
        <time>2026-05-04T16:19:14.333Z</time>
      </trkpt>
      <trkpt lat="53.214432" lon="6.588183">
        <ele>43.552947</ele>
        <time>2026-05-04T16:19:19.328Z</time>
      </trkpt>
      <trkpt lat="53.214345" lon="6.588121">
        <ele>43.678165</ele>
        <time>2026-05-04T16:19:23.328Z</time>
      </trkpt>
      <trkpt lat="53.214278" lon="6.588005">
        <ele>43.805923</ele>
        <time>2026-05-04T16:19:28.326Z</time>
      </trkpt>
      <trkpt lat="53.214279" lon="6.587825">
        <ele>43.948617</ele>
        <time>2026-05-04T16:19:31.332Z</time>
      </trkpt>
      <trkpt lat="53.214281" lon="6.587646">
        <ele>44.090537</ele>
        <time>2026-05-04T16:19:34.326Z</time>
      </trkpt>
      <trkpt lat="53.214236" lon="6.587483">
        <ele>44.232819</ele>
        <time>2026-05-04T16:19:38.327Z</time>
      </trkpt>
      <trkpt lat="53.214164" lon="6.587345">
        <ele>44.280870</ele>
        <time>2026-05-04T16:19:42.331Z</time>
      </trkpt>
      <trkpt lat="53.214092" lon="6.587205">
        <ele>44.231185</ele>
        <time>2026-05-04T16:19:47.330Z</time>
      </trkpt>
      <trkpt lat="53.214033" lon="6.587072">
        <ele>44.186621</ele>
        <time>2026-05-04T16:19:52.328Z</time>
      </trkpt>
      <trkpt lat="53.213935" lon="6.587007">
        <ele>44.139211</ele>
        <time>2026-05-04T16:19:58.338Z</time>
      </trkpt>
      <trkpt lat="53.213851" lon="6.586884">
        <ele>44.088982</ele>
        <time>2026-05-04T16:20:02.327Z</time>
      </trkpt>
      <trkpt lat="53.213801" lon="6.586743">
        <ele>44.044863</ele>
        <time>2026-05-04T16:20:05.335Z</time>
      </trkpt>
      <trkpt lat="53.213761" lon="6.586600">
        <ele>44.002368</ele>
        <time>2026-05-04T16:20:08.327Z</time>
      </trkpt>
      <trkpt lat="53.213817" lon="6.586455">
        <ele>43.955914</ele>
        <time>2026-05-04T16:20:11.331Z</time>
      </trkpt>
      <trkpt lat="53.213900" lon="6.586344">
        <ele>43.908105</ele>
        <time>2026-05-04T16:20:14.331Z</time>
      </trkpt>
      <trkpt lat="53.213985" lon="6.586238">
        <ele>43.860408</ele>
        <time>2026-05-04T16:20:17.333Z</time>
      </trkpt>
      <trkpt lat="53.214069" lon="6.586110">
        <ele>43.809281</ele>
        <time>2026-05-04T16:20:20.332Z</time>
      </trkpt>
      <trkpt lat="53.214133" lon="6.585995">
        <ele>43.767012</ele>
        <time>2026-05-04T16:20:23.331Z</time>
      </trkpt>
      <trkpt lat="53.214200" lon="6.585862">
        <ele>43.720218</ele>
        <time>2026-05-04T16:20:26.332Z</time>
      </trkpt>
      <trkpt lat="53.214286" lon="6.585750">
        <ele>43.671184</ele>
        <time>2026-05-04T16:20:29.327Z</time>
      </trkpt>
      <trkpt lat="53.214374" lon="6.585619">
        <ele>43.618181</ele>
        <time>2026-05-04T16:20:32.332Z</time>
      </trkpt>
      <trkpt lat="53.214457" lon="6.585484">
        <ele>43.566088</ele>
        <time>2026-05-04T16:20:35.334Z</time>
      </trkpt>
      <trkpt lat="53.214540" lon="6.585355">
        <ele>43.515109</ele>
        <time>2026-05-04T16:20:38.332Z</time>
      </trkpt>
      <trkpt lat="53.214610" lon="6.585231">
        <ele>43.428472</ele>
        <time>2026-05-04T16:20:41.338Z</time>
      </trkpt>
      <trkpt lat="53.214683" lon="6.585104">
        <ele>43.310996</ele>
        <time>2026-05-04T16:20:44.339Z</time>
      </trkpt>
      <trkpt lat="53.214762" lon="6.584989">
        <ele>43.194206</ele>
        <time>2026-05-04T16:20:47.338Z</time>
      </trkpt>
      <trkpt lat="53.214832" lon="6.584867">
        <ele>43.081453</ele>
        <time>2026-05-04T16:20:50.329Z</time>
      </trkpt>
      <trkpt lat="53.214909" lon="6.584741">
        <ele>42.961316</ele>
        <time>2026-05-04T16:20:53.329Z</time>
      </trkpt>
      <trkpt lat="53.214984" lon="6.584610">
        <ele>42.840371</ele>
        <time>2026-05-04T16:20:56.332Z</time>
      </trkpt>
      <trkpt lat="53.215066" lon="6.584476">
        <ele>42.712518</ele>
        <time>2026-05-04T16:20:59.328Z</time>
      </trkpt>
      <trkpt lat="53.215151" lon="6.584344">
        <ele>42.583167</ele>
        <time>2026-05-04T16:21:02.332Z</time>
      </trkpt>
      <trkpt lat="53.215229" lon="6.584216">
        <ele>42.461300</ele>
        <time>2026-05-04T16:21:05.328Z</time>
      </trkpt>
      <trkpt lat="53.215316" lon="6.584079">
        <ele>42.328042</ele>
        <time>2026-05-04T16:21:08.333Z</time>
      </trkpt>
      <trkpt lat="53.215398" lon="6.583952">
        <ele>42.203412</ele>
        <time>2026-05-04T16:21:11.335Z</time>
      </trkpt>
      <trkpt lat="53.215478" lon="6.583824">
        <ele>42.079945</ele>
        <time>2026-05-04T16:21:15.335Z</time>
      </trkpt>
      <trkpt lat="53.215588" lon="6.583832">
        <ele>41.957245</ele>
        <time>2026-05-04T16:21:20.332Z</time>
      </trkpt>
      <trkpt lat="53.215664" lon="6.583957">
        <ele>41.838372</ele>
        <time>2026-05-04T16:21:23.333Z</time>
      </trkpt>
      <trkpt lat="53.215733" lon="6.584083">
        <ele>41.724433</ele>
        <time>2026-05-04T16:21:26.327Z</time>
      </trkpt>
      <trkpt lat="53.215801" lon="6.584210">
        <ele>41.610746</ele>
        <time>2026-05-04T16:21:29.334Z</time>
      </trkpt>
      <trkpt lat="53.215876" lon="6.584341">
        <ele>41.491644</ele>
        <time>2026-05-04T16:21:32.333Z</time>
      </trkpt>
      <trkpt lat="53.215951" lon="6.584462">
        <ele>41.458131</ele>
        <time>2026-05-04T16:21:35.328Z</time>
      </trkpt>
      <trkpt lat="53.216027" lon="6.584587">
        <ele>41.423851</ele>
        <time>2026-05-04T16:21:38.329Z</time>
      </trkpt>
      <trkpt lat="53.216098" lon="6.584696">
        <ele>41.392857</ele>
        <time>2026-05-04T16:21:41.332Z</time>
      </trkpt>
      <trkpt lat="53.216191" lon="6.584838">
        <ele>41.352361</ele>
        <time>2026-05-04T16:21:45.331Z</time>
      </trkpt>
      <trkpt lat="53.216289" lon="6.584944">
        <ele>41.314839</ele>
        <time>2026-05-04T16:21:48.340Z</time>
      </trkpt>
      <trkpt lat="53.216405" lon="6.584915">
        <ele>41.277145</ele>
        <time>2026-05-04T16:21:51.332Z</time>
      </trkpt>
      <trkpt lat="53.216509" lon="6.584824">
        <ele>41.239413</ele>
        <time>2026-05-04T16:21:54.331Z</time>
      </trkpt>
      <trkpt lat="53.216586" lon="6.584702">
        <ele>41.205303</ele>
        <time>2026-05-04T16:21:57.329Z</time>
      </trkpt>
      <trkpt lat="53.216672" lon="6.584635">
        <ele>41.174806</ele>
        <time>2026-05-04T16:22:00.328Z</time>
      </trkpt>
      <trkpt lat="53.216767" lon="6.584619">
        <ele>41.144122</ele>
        <time>2026-05-04T16:22:05.331Z</time>
      </trkpt>
      <trkpt lat="53.216832" lon="6.584494">
        <ele>41.112264</ele>
        <time>2026-05-04T16:22:11.337Z</time>
      </trkpt>
      <trkpt lat="53.216874" lon="6.584353">
        <ele>41.081959</ele>
        <time>2026-05-04T16:22:18.329Z</time>
      </trkpt>
      <trkpt lat="53.216873" lon="6.584199">
        <ele>41.052323</ele>
        <time>2026-05-04T16:22:25.331Z</time>
      </trkpt>
      <trkpt lat="53.216763" lon="6.584202">
        <ele>41.016968</ele>
        <time>2026-05-04T16:22:29.325Z</time>
      </trkpt>
      <trkpt lat="53.216695" lon="6.584050">
        <ele>40.980456</ele>
        <time>2026-05-04T16:22:32.333Z</time>
      </trkpt>
      <trkpt lat="53.216639" lon="6.583861">
        <ele>40.939878</ele>
        <time>2026-05-04T16:22:35.333Z</time>
      </trkpt>
      <trkpt lat="53.216592" lon="6.583727">
        <ele>40.945826</ele>
        <time>2026-05-04T16:22:37.331Z</time>
      </trkpt>
      <trkpt lat="53.216541" lon="6.583580">
        <ele>41.181125</ele>
        <time>2026-05-04T16:22:39.332Z</time>
      </trkpt>
      <trkpt lat="53.216494" lon="6.583444">
        <ele>41.398604</ele>
        <time>2026-05-04T16:22:41.331Z</time>
      </trkpt>
      <trkpt lat="53.216431" lon="6.583269">
        <ele>41.681409</ele>
        <time>2026-05-04T16:22:44.330Z</time>
      </trkpt>
      <trkpt lat="53.216366" lon="6.583089">
        <ele>41.972533</ele>
        <time>2026-05-04T16:22:47.330Z</time>
      </trkpt>
      <trkpt lat="53.216299" lon="6.582898">
        <ele>42.279118</ele>
        <time>2026-05-04T16:22:50.333Z</time>
      </trkpt>
      <trkpt lat="53.216239" lon="6.582706">
        <ele>42.579074</ele>
        <time>2026-05-04T16:22:53.331Z</time>
      </trkpt>
      <trkpt lat="53.216199" lon="6.582567">
        <ele>42.792667</ele>
        <time>2026-05-04T16:22:55.330Z</time>
      </trkpt>
      <trkpt lat="53.216128" lon="6.582397">
        <ele>43.079731</ele>
        <time>2026-05-04T16:22:58.332Z</time>
      </trkpt>
      <trkpt lat="53.216086" lon="6.582223">
        <ele>43.339565</ele>
        <time>2026-05-04T16:23:01.333Z</time>
      </trkpt>
      <trkpt lat="53.216036" lon="6.582068">
        <ele>43.583411</ele>
        <time>2026-05-04T16:23:04.329Z</time>
      </trkpt>
      <trkpt lat="53.215988" lon="6.581922">
        <ele>43.814096</ele>
        <time>2026-05-04T16:23:07.332Z</time>
      </trkpt>
      <trkpt lat="53.216052" lon="6.581764">
        <ele>44.078293</ele>
        <time>2026-05-04T16:23:11.330Z</time>
      </trkpt>
      <trkpt lat="53.216133" lon="6.581641">
        <ele>44.331515</ele>
        <time>2026-05-04T16:23:14.328Z</time>
      </trkpt>
      <trkpt lat="53.216218" lon="6.581505">
        <ele>44.603788</ele>
        <time>2026-05-04T16:23:17.334Z</time>
      </trkpt>
      <trkpt lat="53.216308" lon="6.581363">
        <ele>44.890168</ele>
        <time>2026-05-04T16:23:20.341Z</time>
      </trkpt>
      <trkpt lat="53.216402" lon="6.581223">
        <ele>45.020901</ele>
        <time>2026-05-04T16:23:23.328Z</time>
      </trkpt>
      <trkpt lat="53.216493" lon="6.581085">
        <ele>44.878127</ele>
        <time>2026-05-04T16:23:26.327Z</time>
      </trkpt>
      <trkpt lat="53.216596" lon="6.580945">
        <ele>44.723873</ele>
        <time>2026-05-04T16:23:29.327Z</time>
      </trkpt>
      <trkpt lat="53.216694" lon="6.580805">
        <ele>44.574079</ele>
        <time>2026-05-04T16:23:32.329Z</time>
      </trkpt>
      <trkpt lat="53.216800" lon="6.580679">
        <ele>44.422955</ele>
        <time>2026-05-04T16:23:35.332Z</time>
      </trkpt>
      <trkpt lat="53.216904" lon="6.580543">
        <ele>44.269529</ele>
        <time>2026-05-04T16:23:38.335Z</time>
      </trkpt>
      <trkpt lat="53.217001" lon="6.580409">
        <ele>44.123311</ele>
        <time>2026-05-04T16:23:41.331Z</time>
      </trkpt>
      <trkpt lat="53.217094" lon="6.580291">
        <ele>43.987650</ele>
        <time>2026-05-04T16:23:44.329Z</time>
      </trkpt>
      <trkpt lat="53.217186" lon="6.580185">
        <ele>43.857826</ele>
        <time>2026-05-04T16:23:47.329Z</time>
      </trkpt>
      <trkpt lat="53.217272" lon="6.580063">
        <ele>43.726762</ele>
        <time>2026-05-04T16:23:50.337Z</time>
      </trkpt>
      <trkpt lat="53.217361" lon="6.579950">
        <ele>43.596904</ele>
        <time>2026-05-04T16:23:53.331Z</time>
      </trkpt>
      <trkpt lat="53.217444" lon="6.580020">
        <ele>43.488902</ele>
        <time>2026-05-04T16:24:06.330Z</time>
      </trkpt>
      <trkpt lat="53.217437" lon="6.580179">
        <ele>43.378019</ele>
        <time>2026-05-04T16:24:21.333Z</time>
      </trkpt>
      <trkpt lat="53.217323" lon="6.580112">
        <ele>43.237646</ele>
        <time>2026-05-04T16:24:26.332Z</time>
      </trkpt>
      <trkpt lat="53.217265" lon="6.579938">
        <ele>43.099141</ele>
        <time>2026-05-04T16:24:30.328Z</time>
      </trkpt>
      <trkpt lat="53.217215" lon="6.579764">
        <ele>42.985693</ele>
        <time>2026-05-04T16:24:34.332Z</time>
      </trkpt>
      <trkpt lat="53.217178" lon="6.579562">
        <ele>42.987643</ele>
        <time>2026-05-04T16:24:37.332Z</time>
      </trkpt>
      <trkpt lat="53.217195" lon="6.579395">
        <ele>42.989207</ele>
        <time>2026-05-04T16:24:40.330Z</time>
      </trkpt>
      <trkpt lat="53.217187" lon="6.579209">
        <ele>42.990928</ele>
        <time>2026-05-04T16:24:43.331Z</time>
      </trkpt>
      <trkpt lat="53.217150" lon="6.579037">
        <ele>42.992615</ele>
        <time>2026-05-04T16:24:46.329Z</time>
      </trkpt>
      <trkpt lat="53.217104" lon="6.578874">
        <ele>42.994279</ele>
        <time>2026-05-04T16:24:49.330Z</time>
      </trkpt>
      <trkpt lat="53.217060" lon="6.578730">
        <ele>42.995771</ele>
        <time>2026-05-04T16:24:52.330Z</time>
      </trkpt>
      <trkpt lat="53.217019" lon="6.578591">
        <ele>42.997201</ele>
        <time>2026-05-04T16:24:55.334Z</time>
      </trkpt>
      <trkpt lat="53.216978" lon="6.578430">
        <ele>42.998816</ele>
        <time>2026-05-04T16:24:59.330Z</time>
      </trkpt>
      <trkpt lat="53.217009" lon="6.578278">
        <ele>43.000299</ele>
        <time>2026-05-04T16:25:04.336Z</time>
      </trkpt>
      <trkpt lat="53.217090" lon="6.578199">
        <ele>43.001745</ele>
        <time>2026-05-04T16:25:07.330Z</time>
      </trkpt>
      <trkpt lat="53.217180" lon="6.578126">
        <ele>43.003287</ele>
        <time>2026-05-04T16:25:10.335Z</time>
      </trkpt>
      <trkpt lat="53.217257" lon="6.578045">
        <ele>43.004690</ele>
        <time>2026-05-04T16:25:13.332Z</time>
      </trkpt>
      <trkpt lat="53.217330" lon="6.577935">
        <ele>43.006206</ele>
        <time>2026-05-04T16:25:17.334Z</time>
      </trkpt>
      <trkpt lat="53.217346" lon="6.577759">
        <ele>43.007849</ele>
        <time>2026-05-04T16:25:22.334Z</time>
      </trkpt>
      <trkpt lat="53.217323" lon="6.577611">
        <ele>43.009260</ele>
        <time>2026-05-04T16:25:25.336Z</time>
      </trkpt>
      <trkpt lat="53.217295" lon="6.577459">
        <ele>43.010728</ele>
        <time>2026-05-04T16:25:28.334Z</time>
      </trkpt>
      <trkpt lat="53.217259" lon="6.577282">
        <ele>43.012454</ele>
        <time>2026-05-04T16:25:31.335Z</time>
      </trkpt>
      <trkpt lat="53.217227" lon="6.577116">
        <ele>42.980808</ele>
        <time>2026-05-04T16:25:34.333Z</time>
      </trkpt>
      <trkpt lat="53.217172" lon="6.576964">
        <ele>42.922839</ele>
        <time>2026-05-04T16:25:37.333Z</time>
      </trkpt>
      <trkpt lat="53.217102" lon="6.576819">
        <ele>42.862045</ele>
        <time>2026-05-04T16:25:40.334Z</time>
      </trkpt>
      <trkpt lat="53.217042" lon="6.576700">
        <ele>42.811266</ele>
        <time>2026-05-04T16:25:43.339Z</time>
      </trkpt>
      <trkpt lat="53.216966" lon="6.576577">
        <ele>42.753576</ele>
        <time>2026-05-04T16:25:46.327Z</time>
      </trkpt>
      <trkpt lat="53.216888" lon="6.576438">
        <ele>42.691397</ele>
        <time>2026-05-04T16:25:49.332Z</time>
      </trkpt>
      <trkpt lat="53.216809" lon="6.576305">
        <ele>42.630249</ele>
        <time>2026-05-04T16:25:52.328Z</time>
      </trkpt>
      <trkpt lat="53.216746" lon="6.576189">
        <ele>42.579131</ele>
        <time>2026-05-04T16:25:55.329Z</time>
      </trkpt>
      <trkpt lat="53.216672" lon="6.576067">
        <ele>42.522449</ele>
        <time>2026-05-04T16:25:58.329Z</time>
      </trkpt>
      <trkpt lat="53.216594" lon="6.575924">
        <ele>42.459310</ele>
        <time>2026-05-04T16:26:02.330Z</time>
      </trkpt>
      <trkpt lat="53.216538" lon="6.575798">
        <ele>42.408092</ele>
        <time>2026-05-04T16:26:05.331Z</time>
      </trkpt>
      <trkpt lat="53.216489" lon="6.575655">
        <ele>42.354313</ele>
        <time>2026-05-04T16:26:08.332Z</time>
      </trkpt>
      <trkpt lat="53.216453" lon="6.575497">
        <ele>42.299133</ele>
        <time>2026-05-04T16:26:11.329Z</time>
      </trkpt>
      <trkpt lat="53.216428" lon="6.575319">
        <ele>42.239456</ele>
        <time>2026-05-04T16:26:14.330Z</time>
      </trkpt>
      <trkpt lat="53.216456" lon="6.575161">
        <ele>42.185672</ele>
        <time>2026-05-04T16:26:17.333Z</time>
      </trkpt>
      <trkpt lat="53.216531" lon="6.575036">
        <ele>42.127912</ele>
        <time>2026-05-04T16:26:20.333Z</time>
      </trkpt>
      <trkpt lat="53.216628" lon="6.574902">
        <ele>42.059291</ele>
        <time>2026-05-04T16:26:23.334Z</time>
      </trkpt>
      <trkpt lat="53.216716" lon="6.574785">
        <ele>42.037703</ele>
        <time>2026-05-04T16:26:26.332Z</time>
      </trkpt>
      <trkpt lat="53.216792" lon="6.574688">
        <ele>42.045232</ele>
        <time>2026-05-04T16:26:29.335Z</time>
      </trkpt>
      <trkpt lat="53.216903" lon="6.574621">
        <ele>42.054523</ele>
        <time>2026-05-04T16:26:33.342Z</time>
      </trkpt>
      <trkpt lat="53.216994" lon="6.574560">
        <ele>42.062242</ele>
        <time>2026-05-04T16:26:37.331Z</time>
      </trkpt>
      <trkpt lat="53.217075" lon="6.574434">
        <ele>42.070955</ele>
        <time>2026-05-04T16:26:54.328Z</time>
      </trkpt>
      <trkpt lat="53.217120" lon="6.574295">
        <ele>42.078403</ele>
        <time>2026-05-04T16:26:57.328Z</time>
      </trkpt>
      <trkpt lat="53.217225" lon="6.574219">
        <ele>42.087412</ele>
        <time>2026-05-04T16:27:00.329Z</time>
      </trkpt>
      <trkpt lat="53.217331" lon="6.574147">
        <ele>42.096419</ele>
        <time>2026-05-04T16:27:03.332Z</time>
      </trkpt>
      <trkpt lat="53.217431" lon="6.574072">
        <ele>42.105048</ele>
        <time>2026-05-04T16:27:06.332Z</time>
      </trkpt>
      <trkpt lat="53.217511" lon="6.573994">
        <ele>42.112340</ele>
        <time>2026-05-04T16:27:09.331Z</time>
      </trkpt>
      <trkpt lat="53.217591" lon="6.573917">
        <ele>42.119609</ele>
        <time>2026-05-04T16:27:12.330Z</time>
      </trkpt>
      <trkpt lat="53.217684" lon="6.573842">
        <ele>42.127738</ele>
        <time>2026-05-04T16:27:15.330Z</time>
      </trkpt>
      <trkpt lat="53.217768" lon="6.573770">
        <ele>42.135171</ele>
        <time>2026-05-04T16:27:18.331Z</time>
      </trkpt>
      <trkpt lat="53.217846" lon="6.573693">
        <ele>42.142303</ele>
        <time>2026-05-04T16:27:21.335Z</time>
      </trkpt>
      <trkpt lat="53.217937" lon="6.573577">
        <ele>42.151314</ele>
        <time>2026-05-04T16:27:24.328Z</time>
      </trkpt>
      <trkpt lat="53.218035" lon="6.573471">
        <ele>42.160505</ele>
        <time>2026-05-04T16:27:27.328Z</time>
      </trkpt>
      <trkpt lat="53.218131" lon="6.573368">
        <ele>42.169487</ele>
        <time>2026-05-04T16:27:30.333Z</time>
      </trkpt>
      <trkpt lat="53.218237" lon="6.573280">
        <ele>42.195060</ele>
        <time>2026-05-04T16:27:33.327Z</time>
      </trkpt>
      <trkpt lat="53.218338" lon="6.573199">
        <ele>42.235517</ele>
        <time>2026-05-04T16:27:36.328Z</time>
      </trkpt>
      <trkpt lat="53.218439" lon="6.573140">
        <ele>42.274154</ele>
        <time>2026-05-04T16:27:39.331Z</time>
      </trkpt>
      <trkpt lat="53.218542" lon="6.573062">
        <ele>42.314992</ele>
        <time>2026-05-04T16:27:42.330Z</time>
      </trkpt>
      <trkpt lat="53.218660" lon="6.572973">
        <ele>42.361745</ele>
        <time>2026-05-04T16:27:45.325Z</time>
      </trkpt>
      <trkpt lat="53.218753" lon="6.572908">
        <ele>42.398148</ele>
        <time>2026-05-04T16:27:47.327Z</time>
      </trkpt>
      <trkpt lat="53.218835" lon="6.572836">
        <ele>42.431601</ele>
        <time>2026-05-04T16:27:49.327Z</time>
      </trkpt>
      <trkpt lat="53.218953" lon="6.572743">
        <ele>42.478716</ele>
        <time>2026-05-04T16:27:52.332Z</time>
      </trkpt>
      <trkpt lat="53.219072" lon="6.572649">
        <ele>42.526250</ele>
        <time>2026-05-04T16:27:55.328Z</time>
      </trkpt>
      <trkpt lat="53.219159" lon="6.572602">
        <ele>42.559268</ele>
        <time>2026-05-04T16:27:57.328Z</time>
      </trkpt>
      <trkpt lat="53.219269" lon="6.572540">
        <ele>42.601189</ele>
        <time>2026-05-04T16:28:00.328Z</time>
      </trkpt>
      <trkpt lat="53.219385" lon="6.572467">
        <ele>42.645951</ele>
        <time>2026-05-04T16:28:03.331Z</time>
      </trkpt>
      <trkpt lat="53.219497" lon="6.572397">
        <ele>42.689132</ele>
        <time>2026-05-04T16:28:06.334Z</time>
      </trkpt>
      <trkpt lat="53.219620" lon="6.572326">
        <ele>42.736125</ele>
        <time>2026-05-04T16:28:09.335Z</time>
      </trkpt>
      <trkpt lat="53.219741" lon="6.572259">
        <ele>42.782156</ele>
        <time>2026-05-04T16:28:12.327Z</time>
      </trkpt>
      <trkpt lat="53.219841" lon="6.572171">
        <ele>42.822971</ele>
        <time>2026-05-04T16:28:15.334Z</time>
      </trkpt>
      <trkpt lat="53.219932" lon="6.572078">
        <ele>42.823752</ele>
        <time>2026-05-04T16:28:18.333Z</time>
      </trkpt>
      <trkpt lat="53.219960" lon="6.571926">
        <ele>42.823752</ele>
        <time>2026-05-04T16:28:21.333Z</time>
      </trkpt>
      <trkpt lat="53.219872" lon="6.571521">
        <ele>42.823752</ele>
        <time>2026-05-04T16:29:43.337Z</time>
      </trkpt>
      <trkpt lat="53.219826" lon="6.571347">
        <ele>42.823752</ele>
        <time>2026-05-04T16:29:47.335Z</time>
      </trkpt>
      <trkpt lat="53.219783" lon="6.571174">
        <ele>42.823752</ele>
        <time>2026-05-04T16:29:51.328Z</time>
      </trkpt>
      <trkpt lat="53.219730" lon="6.571009">
        <ele>42.823752</ele>
        <time>2026-05-04T16:29:55.340Z</time>
      </trkpt>
      <trkpt lat="53.219689" lon="6.570865">
        <ele>42.823752</ele>
        <time>2026-05-04T16:29:58.334Z</time>
      </trkpt>
      <trkpt lat="53.219655" lon="6.570720">
        <ele>42.823752</ele>
        <time>2026-05-04T16:30:01.334Z</time>
      </trkpt>
      <trkpt lat="53.219594" lon="6.570559">
        <ele>42.823752</ele>
        <time>2026-05-04T16:30:05.327Z</time>
      </trkpt>
      <trkpt lat="53.219563" lon="6.570397">
        <ele>42.823752</ele>
        <time>2026-05-04T16:30:08.333Z</time>
      </trkpt>
      <trkpt lat="53.219533" lon="6.570230">
        <ele>42.823752</ele>
        <time>2026-05-04T16:30:11.333Z</time>
      </trkpt>
      <trkpt lat="53.219498" lon="6.570068">
        <ele>42.823752</ele>
        <time>2026-05-04T16:30:14.327Z</time>
      </trkpt>
      <trkpt lat="53.219465" lon="6.569896">
        <ele>42.823752</ele>
        <time>2026-05-04T16:30:17.331Z</time>
      </trkpt>
      <trkpt lat="53.219444" lon="6.569718">
        <ele>42.823752</ele>
        <time>2026-05-04T16:30:20.330Z</time>
      </trkpt>
      <trkpt lat="53.219411" lon="6.569535">
        <ele>42.823752</ele>
        <time>2026-05-04T16:30:24.330Z</time>
      </trkpt>
      <trkpt lat="53.219324" lon="6.569479">
        <ele>42.823752</ele>
        <time>2026-05-04T16:30:28.329Z</time>
      </trkpt>
      <trkpt lat="53.219230" lon="6.569527">
        <ele>42.823752</ele>
        <time>2026-05-04T16:30:32.331Z</time>
      </trkpt>
      <trkpt lat="53.219140" lon="6.569587">
        <ele>42.823752</ele>
        <time>2026-05-04T16:30:36.327Z</time>
      </trkpt>
      <trkpt lat="53.219050" lon="6.569645">
        <ele>42.823752</ele>
        <time>2026-05-04T16:30:41.325Z</time>
      </trkpt>
    </trkseg>
  </trk>
</gpx>